[[{"header":{"parameterUnit":"m.s-1","parameterCategory":1,"la1":31.0,"la2":29.5877,"lo1":-88.7671,"lo2":-86.6584,"dy":0.0162,"dx":0.0185,"nx":115,"ny":88,"refTime":"2023-07-30T06:00:00:Z","depth":0,"parameterNumber":2,"parameterNumberName":"U-component_of_WINDS"},"data":[0.0,0.0,0.0,0.0,0.0,0.0,0.0,0.0,0.0,0.0,0.0,0.0,0.0,0.0,0.0,0.0,0.0,0.0,0.0,0.0,0.0,0.0,0.0,0.0,0.0,0.0,0.0,0.0,0.0,0.0,0.0,0.0,0.0,0.0,0.0,0.0,0.0,0.0,0.0,0.0,0.0,0.0,0.0,0.0,0.0,0.0,0.0,0.0,0.0,0.0,0.0,0.0,0.0,0.0,0.0,0.0,0.0,0.0,0.0,0.0,0.0,0.0,0.0,0.0,0.0,0.0,0.0,0.0,0.0,0.0,0.0,0.0,0.0,0.0,0.0,0.0,0.0,0.0,0.0,0.0,0.0,0.0,0.0,0.0,0.0,0.0,0.0,0.0,0.0,0.0,0.0,0.0,0.0,0.0,0.0,0.0,0.0,0.0,0.0,0.0,0.0,0.0,0.0,0.0,0.0,0.0,0.0,0.0,0.0,0.0,0.0,0.0,0.0,0.0,0.0,0.0,0.0,0.0,0.0,0.0,0.0,0.0,0.0,0.0,0.0,0.0,0.0,0.0,0.0,0.0,0.0,0.0,0.0,0.0,0.0,0.0,0.0,0.0,0.0,0.0,0.0,0.0,0.0,0.0,0.0,0.0,0.0,0.0,0.0,0.0,0.0,0.0,0.0,0.0,0.0,0.0,0.0,0.0,0.0,0.0,0.0,0.0,0.0,0.0,0.0,0.0,0.0,0.0,0.0,0.0,0.0,0.0,0.0,0.0,0.0,0.0,0.0,0.0,0.0,0.0,0.0,0.0,0.0,0.0,0.0,0.0,0.0,0.0,0.0,0.0,0.0,0.0,0.0,0.0,0.0,0.0,0.0,0.0,0.0,0.0,0.0,0.0,0.0,0.0,0.0,0.0,0.0,0.0,0.0,0.0,0.0,0.0,0.0,0.0,0.0,0.0,0.0,0.0,0.0,0.0,0.0,0.0,0.0,0.0,0.0,0.0,0.0,0.0,0.0,0.0,0.0,0.0,0.0,0.0,0.0,0.0,0.0,0.0,0.0,0.0,0.0,0.0,0.0,0.0,0.0,0.0,0.0,0.0,0.0,0.0,0.0,0.0,0.0,0.0,0.0,0.0,0.0,0.0,0.0,0.0,0.0,0.0,0.0,0.0,0.0,0.0,0.0,0.0,0.0,0.0,0.0,0.0,0.0,0.0,0.0,0.0,0.0,0.0,0.0,0.0,0.0,0.0,0.0,0.0,0.0,0.0,0.0,0.0,0.0,0.0,0.0,0.0,0.0,0.0,0.0,0.0,0.0,0.0,0.0,0.0,0.0,0.0,0.0,0.0,0.0,0.0,0.0,0.0,0.0,0.0,0.0,0.0,0.0,0.0,0.0,0.0,0.0,0.0,0.0,0.0,0.0,0.0,0.0,0.0,0.0,0.0,0.0,0.0,0.0,0.0,0.0,0.0,0.0,0.0,0.0,0.0,0.0,0.0,0.0,0.0,0.0,0.0,0.0,0.0,0.0,0.0,0.0,0.0,0.0,0.0,0.0,0.0,0.0,0.0,0.0,0.0,0.0,0.0,0.0,0.0,0.0,0.0,0.0,0.0,0.0,0.0,0.0,0.0,0.0,0.0,0.0,0.0,0.0,0.0,0.0,0.0,0.0,0.0,0.0,0.0,0.0,0.0,0.0,0.0,0.0,0.0,0.0,0.0,0.0,0.0,0.0,0.0,0.0,0.0,0.0,0.0,0.0,0.0,0.0,0.0,0.0,0.0,0.0,0.0,0.0,0.0,0.0,0.0,0.0,0.0,0.0,0.0,0.0,0.0,0.0,0.0,0.0,0.0,0.0,0.0,0.0,0.0,0.0,0.0,0.0,0.0,0.0,0.0,0.0,0.0,0.0,0.0,0.0,0.0,0.0,0.0,0.0,0.0,0.0,0.0,0.0,0.0,0.0,0.0,0.0,0.0,0.0,0.0,0.0,0.0,0.0,0.0,0.0,0.0,0.0,0.0,0.0,0.0,0.0,0.0,0.0,0.0,0.0,0.0,0.0,0.0,0.0,0.0,0.0,0.0,0.0,0.0,0.0,0.0,0.0,0.0,0.0,0.0,0.0,0.0,0.0,0.0,0.0,0.0,0.0,0.0,0.0,0.0,0.0,0.0,0.0,0.0,0.0,0.0,0.0,0.0,0.0,0.0,0.0,0.0,0.0,0.0,0.0,0.0,0.0,0.0,0.0,0.0,0.0,0.0,0.0,0.0,0.0,0.0,0.0,0.0,0.0,0.0,0.0,0.0,0.0,0.0,0.0,0.0,0.0,0.0,0.0,0.0,0.0,0.0,0.0,0.0,0.0,0.0,0.0,0.0,0.0,0.0,0.0,0.0,0.0,0.0,0.0,0.0,0.0,0.0,0.0,0.0,0.0,0.0,0.0,0.0,0.0,0.0,0.0,0.0,0.0,0.0,0.0,0.0,0.0,0.0,0.0,0.0,0.0,0.0,0.0,0.0,0.0,0.0,0.0,0.0,0.0,0.0,0.0,0.0,0.0,0.0,0.0,0.0,0.0,0.0,0.0,0.0,0.0,0.0,0.0,0.0,0.0,0.0,0.0,0.0,0.0,0.0,0.0,0.0,0.0,0.0,0.0,0.0,0.0,0.0,0.0,0.0,0.0,0.0,0.0,0.0,0.0,0.0,0.0,0.0,0.0,0.0,0.0,0.0,0.0,0.0,0.0,0.0,0.0,0.0,0.0,0.0,0.0,0.0,0.0,0.0,0.0,0.0,0.0,0.0,0.0,0.0,0.0,0.0,0.0,0.0,0.0,0.0,0.0,0.0,0.0,0.0,0.0,0.0,0.0,0.0,0.0,0.0,0.0,0.0,0.0,0.0,0.0,0.0,0.0,0.0,0.0,0.0,0.0,0.0,0.0,0.0,0.0,0.0,0.0,0.0,0.0,0.0,0.0,0.0,0.0,0.0,0.0,0.0,0.0,0.0,0.0,0.0,0.0,0.0,0.0,0.0,0.0,0.0,0.0,0.0,0.0,0.0,0.0,0.0,0.0,0.0,0.0,0.0,0.0,0.0,0.0,0.0,0.0,0.0,0.0,0.0,0.0,0.0,0.0,0.0,0.0,0.0,0.0,0.0,0.0,0.0,0.0,0.0,0.0,0.0,0.0,0.0,0.0,0.0,0.0,0.0,0.0,0.0,0.0,0.0,0.0,0.0,0.0,0.0,0.0,0.0,0.0,0.0,0.0,0.0,0.0,0.0,0.0,0.0,0.0,0.0,0.0,0.0,0.0,0.0,0.0,0.0,0.0,0.0,0.0,0.0,0.0,0.0,0.0,0.0,0.0,0.0,0.0,0.0,0.0,0.0,0.0,0.0,0.0,0.0,0.0,0.0,0.0,0.0,0.0,0.0,0.0,0.0,0.0,0.0,0.0,0.0,0.0,0.0,0.0,0.0,0.0,0.0,0.0,0.0,0.0,0.0,0.0,0.0,0.0,0.0,0.0,0.0,0.0,0.0,0.0,0.0,0.0,0.0,0.0,0.0,0.0,0.0,0.0,0.0,0.0,0.0,0.0,0.0,0.0,0.0,0.0,0.0,0.0,0.0,0.0,0.0,0.0,0.0,0.0,0.0,0.0,0.0,0.0,0.0,0.0,0.0,0.0,0.0,0.0,0.0,0.0,0.0,0.0,0.0,0.0,0.0,0.0,0.0,0.0,0.0,0.0,0.0,0.0,0.0,0.0,0.0,0.0,0.0,0.0,0.0,0.0,0.0,0.0,0.0,0.0,0.0,0.0,0.0,0.0,0.0,0.0,0.0,0.0,0.0,0.0,0.0,0.0,0.0,0.0,0.0,0.0,0.0,0.0,0.0,0.0,0.0,0.0,0.0,0.0,0.0,0.0,0.0,0.0,0.0,0.0,0.0,0.0,0.0,0.0,0.0,0.0,0.0,0.0,0.0,0.0,0.0,0.0,0.0,0.0,0.0,0.0,0.0,0.0,0.0,0.0,0.0,0.0,0.0,0.0,0.0,0.0,0.0,0.0,0.0,0.0,0.0,0.0,0.0,0.0,0.0,0.0,0.0,0.0,0.0,0.0,0.0,0.0,0.0,0.0,0.0,0.0,0.0,0.0,0.0,0.0,0.0,0.0,0.0,0.0,0.0,0.0,0.0,0.0,0.0,0.0,0.0,0.0,0.0,0.0,0.0,0.0,0.0,0.0,0.0,0.0,0.0,0.0,0.0,0.0,0.0,0.0,0.0,-0.2218,0.0,0.0,0.0,0.0,0.0,0.0,0.0,0.0,0.0,0.0,0.0,0.0,0.0,0.0,0.0,0.0,0.0,0.0,0.0,0.0,0.0,0.0,0.0,0.0,0.0,0.0,0.0,0.0,0.0,0.0,0.0,0.0,0.0,0.0,0.0,0.0,0.0,0.0,0.0,0.0,0.0,0.0,0.0,0.0,0.0,0.0,0.0,0.0,0.0,0.0,0.0,0.0,0.0,0.0,0.0,0.0,0.0,0.0,0.0,0.0,0.0,0.0,0.0,0.0,0.0,0.0,0.0,0.0,0.0,0.0,0.0,0.0,0.0,0.0,0.0,0.0,0.0,0.0,0.0,0.0,0.0,0.0,0.0,0.0,0.0,0.0,0.0,0.0,0.0,0.0,0.0,0.0,0.0,0.0,0.0,0.0,0.0,0.0,0.0,0.0,0.0,0.0,0.0,0.0,0.0,0.0,0.0,0.0,0.0,0.0,-0.1537,-0.1588,-0.1747,-0.1839,-0.1759,0.0,0.0,0.0,0.0,0.0,0.0,0.0,0.0,0.0,0.0,0.0,0.0,0.0,0.0,0.0,0.0,0.0,0.0,0.0,0.0,0.0,0.0,0.0,0.0,0.0,0.0,0.0,0.0,0.0,0.0,0.0,0.0,0.0,0.0,0.0,0.0,0.0,0.0,0.0,0.0,0.0,0.0,0.0,0.0,0.0,0.0,0.0,0.0,0.0,0.0,0.0,0.0,0.0,0.0,0.0,0.0,0.0,0.0,0.0,0.0,0.0,0.0,0.0,0.0,0.0,0.0,0.0,0.0,0.0,0.0,0.0,0.0,0.0,0.0,0.0,0.0,0.0,0.0,0.0,0.0,0.0,0.0,0.0,0.0,0.0,0.0,0.0,0.0,0.0,0.0,0.0,0.0,0.0,0.0,0.0,0.0,0.0,0.0,0.0,0.0,0.0,0.0,0.0,0.0,0.0,0.0,0.0,0.0,0.0,0.0,0.0,0.0,-0.1607,-0.1617,-0.1457,0.0,0.0,0.0,0.0,0.0,0.0,0.0,0.0,0.0,0.0,0.0,0.0,0.0,0.0,0.0,0.0,0.0,0.0,0.0,0.0,0.0,0.0,0.0,0.0,0.0,0.0,0.0,0.0,0.0,0.0,0.0,0.0,0.0,0.0,0.0,0.0,0.0,0.0,0.0,0.0,0.0,0.0,0.0,0.0,0.0,0.0,0.0,0.0,0.0,0.0,0.0,0.0,0.0,0.0,0.0,0.0,0.0,0.0,0.0,0.0,0.0,0.0,0.0,0.0,0.0,0.0,0.0,0.0,0.0,0.0,0.0,0.0,0.0,0.0,0.0,0.0,0.0,0.0,0.0,0.0,0.0,0.0,0.0,0.0,0.0,0.0,0.0,0.0,0.0,0.0,0.0,0.0,0.0,0.0,0.0,0.0,0.0,0.0,0.0,0.0,0.0,0.0,0.0,0.0,0.0,0.0,0.0,0.0,0.0,0.0,-0.147,-0.156,-0.1597,0.0,-0.1595,0.0,0.0,0.0,0.0,0.0,0.0,0.0,0.0,0.0,0.0,0.0,0.0,0.0,0.0,0.0,0.0,0.0,0.0,0.0,0.0,0.0,0.0,0.0,0.0,0.0,0.0,0.0,0.0,0.0,0.0,0.0,0.0,0.0,0.0,0.0,0.0,0.0,0.0,0.0,0.0,0.0,0.0,0.0,0.0,0.0,0.0,0.0,0.0,0.0,0.0,0.0,0.0,0.0,0.0,0.0,0.0,0.0,0.0,0.0,0.0,0.0,0.0,0.0,0.0,0.0,0.0,0.0,0.0,0.0,0.0,0.0,0.0,0.0,0.0,0.0,0.0,0.0,0.0,0.0,0.0,0.0,0.0,0.0,0.0,0.0,0.0,0.0,0.0,0.0,0.0,0.0,0.0,0.0,0.0,0.0,0.0,0.0,0.0,0.0,0.0,0.0,0.0,0.0,0.0,0.0,0.0,0.0,0.0,0.0,0.0,-0.1435,-0.1479,-0.1479,-0.1479,0.0,0.0,0.0,0.0,0.0,0.0,0.0,0.0,0.0,0.0,0.0,0.0,0.0,0.0,0.0,0.0,0.0,0.0,0.0,0.0,0.0,0.0,0.0,0.0,0.0,0.0,0.0,0.0,0.0,0.0,0.0,0.0,0.0,0.0,0.0,0.0,0.0,0.0,0.0,0.0,0.0,0.0,0.0,0.0,0.0,0.0,0.0,0.0,0.0,0.0,0.0,0.0,0.0,0.0,0.0,0.0,0.0,0.0,0.0,0.0,0.0,0.0,0.0,0.0,0.0,0.0,0.0,0.0,0.0,0.0,0.0,0.0,0.0,0.0,0.0,0.0,0.0,0.0,0.0,0.0,0.0,0.0,0.0,0.0,0.0,0.0,0.0,0.0,0.0,0.0,0.0,0.0,0.0,0.0,0.0,0.0,0.0,0.0,0.0,0.0,0.0,0.0,0.0,0.0,0.0,0.0,0.0,0.0,0.0,0.0,-0.1299,-0.1344,-0.1389,-0.1389,-0.1389,-0.1389,0.0,0.0,0.0,0.0,0.0,0.0,0.0,0.0,0.0,0.0,0.0,0.0,0.0,0.0,0.0,0.0,0.0,0.0,0.0,0.0,0.0,0.0,0.0,0.0,0.0,0.0,0.0,0.0,0.0,0.0,0.0,0.0,0.0,0.0,0.0,0.0,0.0,0.0,0.0,0.0,0.0,0.0,0.0,0.0,0.0,0.0,0.0,0.0,0.0,0.0,0.0,0.0,0.0,0.0,0.0,0.0,0.0,0.0,0.0,0.0,0.0,0.0,0.0,0.0,0.0,0.0,0.0,0.0,0.0,0.0,0.0,0.0,0.0,0.0,0.0,0.0,0.0,0.0,0.0,0.0,0.0,0.0,0.0,0.0,0.0,0.0,0.0,0.0,0.0,0.0,0.0,0.0,0.0,0.0,0.0,0.0,0.0,0.0,0.0,0.0,0.0,0.0,0.0,0.0,0.0,0.0,0.0,0.0,-0.112,-0.112,-0.1165,-0.1299,-0.1389,-0.1389,0.0,0.0,0.0,0.0,0.0,0.0,0.0,0.0,0.0,0.0,0.0,0.0,0.0,0.0,0.0,0.0,0.0,0.0,0.0,0.0,0.0,0.0,0.0,0.0,0.0,0.0,0.0,0.0,0.0,0.0,0.0,0.0,0.0,0.0,0.0,0.0,0.0,0.0,0.0,0.0,0.0,0.0,0.0,0.0,0.0,0.0,0.0,0.0,0.0,0.0,0.0,0.0,0.0,0.0,0.0,0.0,0.0,0.0,0.0,0.0,0.0,0.0,0.0,0.0,0.0,0.0,0.0,0.0,0.0,0.0,0.0,0.0,0.0,0.0,0.0,0.0,0.0,0.0,0.0,0.0,0.0,0.0,0.0,0.0,0.0,0.0,0.0,0.0,0.0,0.0,0.0,0.0,0.0,0.0,0.0,0.0,0.0,0.0,0.0,0.0,0.0,0.0,0.0,0.0,0.0,0.0,0.0,0.0,0.0,-0.112,-0.112,-0.112,-0.1165,-0.121,-0.1254,0.0,0.0,0.0,0.0,0.0,0.0,0.0,0.0,0.0,0.0,0.0,0.0,0.0,0.0,0.0,0.0,0.0,0.0,0.0,0.0,0.0,0.0,0.0,0.0,0.0,0.0,0.0,0.0,0.0,0.0,0.0,0.0,0.0,0.0,0.0,0.0,0.0,0.0,0.0,0.0,0.0,0.0,0.0,0.0,0.0,0.0,0.0,0.0,0.0,0.0,0.0,0.0,0.0,0.0,0.0,0.0,0.0,0.0,0.0,0.0,0.0,0.0,0.0,0.0,0.0,0.0,0.0,0.0,0.0,0.0,0.0,0.0,0.0,0.0,0.0,0.0,0.0,0.0,0.0,0.0,0.0,0.0,0.0,0.0,0.0,0.0,0.0,0.0,0.0,0.0,0.0,0.0,0.0,0.0,0.0,0.0,0.0,0.0,0.0,0.0,0.0,0.0,0.0,0.0,0.0,0.0,0.0,0.0,0.0,-0.0987,0.0,-0.0986,-0.1031,-0.0985,-0.1074,0.0,0.0,0.0,0.0,0.0,0.0,0.0,0.0,0.0,0.0,0.0,0.0,0.0,0.0,0.0,0.0,0.0,0.0,0.0,0.0,0.0,0.0,0.0,0.0,0.0,0.0,0.0,0.0,0.0,0.0,0.0,0.0,0.0,0.0,0.0,0.0,0.0,0.0,0.0,0.0,0.0,0.0,0.0,0.0,0.0,0.0,0.0,0.0,0.0,0.0,0.0,0.0,0.0,0.0,0.0,0.0,0.0,0.0,0.0,0.0,0.0,0.0,0.0,0.0,0.0,0.0,0.0,0.0,0.0,0.0,0.0,0.0,0.0,0.0,0.0,0.0,0.0,0.0,0.0,0.0,0.0,0.0,0.0,0.0,0.0,0.0,0.0,0.0,0.0,0.0,0.0,0.0,0.0,0.0,0.0,0.0,0.0,0.0,0.0,0.0,0.0,0.0,0.0,0.0,0.0,0.0,0.0,0.0,-0.072,-0.072,-0.0722,-0.0769,-0.09,-0.0765,-0.0851,0.0,0.0,0.0,0.0,0.0,0.0,0.0,0.0,0.0,0.0,0.0,0.0,0.0,0.0,0.0,0.0,0.0,0.0,0.0,0.0,0.0,0.0,0.0,0.0,0.0,0.0,0.0,0.0,0.0,0.0,0.0,0.0,0.0,0.0,0.0,0.0,0.0,0.0,0.0,0.0,0.0,0.0,0.0,0.0,0.0,0.0,0.0,0.0,0.0,0.0,0.0,0.0,0.0,0.0,0.0,0.0,0.0,0.0,0.0,0.0,0.0,0.0,0.0,0.0,0.0,0.0,0.0,0.0,0.0,0.0,0.0,0.0,0.0,0.0,0.0,0.0,0.0,0.0,0.0,0.0,0.0,0.0,0.0,0.0,0.0,0.0,0.0,0.0,0.0,0.0,0.0,0.0,0.0,0.0,0.0,0.0,0.0,0.0,0.0,0.0,0.0,0.0,0.0,0.0,0.0,0.0,0.0,0.0,0.0,-0.0751,-0.077,-0.078,-0.0827,-0.0807,-0.0796,0.0,0.0,0.0,0.0,0.0,0.0,0.0,0.0,0.0,0.0,0.0,0.0,0.0,0.0,0.0,0.0,0.0,0.0,0.0,0.0,0.0,0.0,0.0,0.0,0.0,0.0,0.0,0.0,0.0,0.0,0.0,0.0,0.0,0.0,0.0,0.0,0.0,0.0,0.0,0.0,0.0,0.0,0.0,0.0,0.0,0.0,0.0,0.0,0.0,0.0,0.0,0.0,0.0,0.0,0.0,0.0,0.0,0.0,0.0,0.0,0.0,0.0,0.0,0.0,0.0,0.0,0.0,0.0,0.0,0.0,0.0,0.0,0.0,0.0,0.0,0.0,0.0,0.0,0.0,0.0,0.0,0.0,0.0,0.0,0.0,0.0,0.0,0.0,0.0,0.0,0.0,0.0,0.0,0.0,0.0,0.0,0.0,0.0,0.0,0.0,0.0,0.0,0.0,0.0,0.0,0.0,0.0,0.0,0.0,-0.0898,-0.0854,-0.0863,-0.0926,-0.0846,-0.0872,-0.0858,0.0,0.0,0.0,0.0,0.0,0.0,0.0,0.0,0.0,0.0,0.0,0.0,0.0,0.0,0.0,0.0,0.0,0.0,0.0,0.0,0.0,0.0,0.0,0.0,0.0,0.0,0.0,0.0,0.0,0.0,0.0,0.0,0.0,0.0,0.0,0.0,0.0,0.0,0.0,0.0,0.0,0.0,0.0,0.0,0.0,0.0,0.0,0.0,0.0,0.0,0.0,0.0,0.0,0.0,0.0,0.0,0.0,0.0,0.0,0.0,0.0,0.0,0.0,0.0,0.0,0.0,0.0,0.0,0.0,0.0,0.0,0.0,0.0,0.0,0.0,0.0,0.0,0.0,0.0,0.0,0.0,0.0,0.0,0.0,0.0,0.0,0.0,0.0,0.0,0.0,0.0,0.0,0.0,0.0,0.0,0.0,0.0,0.0,0.0,0.0,0.0,0.0,0.0,0.0,0.0,0.0,0.0,0.0,-0.1128,-0.0934,-0.0932,-0.1124,-0.0981,-0.0896,0.0,0.0,0.0,0.0,0.0,0.0,0.0,0.0,0.0,0.0,0.0,0.0,0.0,0.0,0.0,0.0,0.0,0.0,0.0,0.0,0.0,0.0,0.0,0.0,0.0,0.0,0.0,0.0,0.0,0.0,0.0,0.0,0.0,0.0,0.0,0.0,0.0,0.0,0.0,0.0,0.0,0.0,0.0,0.0,0.0,0.0,0.0,0.0,0.0,0.0,0.0,0.0,0.0,0.0,0.0,0.0,0.0,0.0,0.0,0.0,0.0,0.0,0.0,0.0,0.0,0.0,0.0,0.0,0.0,0.0,0.0,0.0,0.0,0.0,0.0,0.0,0.0,0.0,0.0,0.0,0.0,0.0,0.0,0.0,0.0,0.0,0.0,0.0,0.0,0.0,0.0,0.0,0.0,0.0,0.0,0.0,0.0,0.0,0.0,0.0,0.0,0.0,0.0,0.0,0.0,0.0,0.0,0.0,0.0,-0.1422,-0.1326,-0.1311,-0.132,-0.114,-0.1098,0.0,0.0,0.0,0.0,0.0,0.0,0.0,0.0,0.0,0.0,0.0,0.0,0.0,0.0,0.0,0.0,0.0,0.0,0.0,0.0,0.0,0.0,0.0,0.0,0.0,0.0,0.0,0.0,0.0,0.0,0.0,0.0,0.0,0.0,0.0,0.0,0.0,0.0,0.0,0.0,0.0,0.0,0.0,0.0,0.0,0.0,0.0,0.0,0.0,0.0,0.0,0.0,0.0,0.0,0.0,0.0,0.0,0.0,0.0,0.0,0.0,0.0,0.0,0.0,0.0,0.0,0.0,0.0,0.0,0.0,0.0,0.0,0.0,0.0,0.0,0.0,0.0,0.0,0.0,0.0,0.0,0.0,0.0,0.0,0.0,0.0,0.0,0.0,0.0,0.0,0.0,0.0,0.0,0.0,0.0,0.0,0.0,0.0,0.0,0.0,0.0,0.0,0.0,0.0,0.0,0.0,0.0,0.0,-0.1479,-0.1452,-0.1647,-0.1716,-0.1716,-0.1365,-0.1082,0.0,0.0,0.0,0.0,0.0,0.0,0.0,0.0,0.0,0.0,0.0,0.0,0.0,0.0,0.0,0.0,0.0,0.0,0.0,0.0,0.0,0.0,0.0,0.0,0.0,0.0,0.0,0.0,0.0,0.0,0.0,0.0,0.0,0.0,0.0,0.0,0.0,0.0,0.0,0.0,0.0,0.0,0.0,0.0,0.0,0.0,0.0,0.0,0.0,0.0,0.0,0.0,0.0,0.0,0.0,0.0,0.0,0.0,0.0,0.0,0.0,0.0,0.0,0.0,0.0,0.0,0.0,0.0,0.0,0.0,0.0,0.0,0.0,0.0,0.0,0.0,0.0,0.0,0.0,0.0,0.0,0.0,0.0,0.0,0.0,0.0,0.0,0.0,0.0,0.0,0.0,0.0,0.0,0.0,0.0,0.0,0.0,0.0,0.0,0.0,0.0,0.0,0.0,0.0,0.0,0.0,0.0,0.0,-0.1465,-0.143,-0.1883,-0.213,-0.2067,-0.1544,-0.0945,0.0,0.0,0.0,0.0,0.0,0.0,0.0,0.0,0.0,0.0,0.0,0.0,0.0,0.0,0.0,0.0,0.0,0.0,0.0,0.0,0.0,0.0,0.0,0.0,0.0,0.0,0.0,0.0,0.0,0.0,0.0,0.0,0.0,0.0,0.0,0.0,0.0,0.0,0.0,0.0,0.0,0.0,0.0,0.0,0.0,0.0,0.0,0.0,0.0,0.0,0.0,0.0,0.0,0.0,0.0,0.0,0.0,0.0,0.0,0.0,0.0,0.0,0.0,0.0,0.0,0.0,0.0,0.0,0.0,0.0,0.0,0.0,0.0,0.0,0.0,0.0,0.0,0.0,0.0,0.0,0.0,0.0,0.0,0.0,0.0,0.0,0.0,0.0,0.0,0.0,0.0,0.0,0.0,0.0,0.0,0.0,0.0,0.0,0.0,0.0,0.0,0.0,0.0,0.0,0.0,0.0,0.0,0.0,-0.1558,-0.1707,-0.1985,-0.2151,-0.2199,-0.1655,-0.1164,0.0,0.0,0.0,0.0,0.0,0.0,0.0,0.0,0.0,0.0,0.0,0.0,0.0,0.0,0.0,0.0,0.0,0.0,0.0,0.0,0.0,0.0,0.0,0.0,0.0,0.0,0.0,0.0,0.0,0.0,0.0,0.0,0.0,0.0,0.0,0.0,0.0,0.0,0.0,0.0,0.0,0.0,0.0,0.0,0.0,0.0,0.0,0.0,0.6987,0.0,0.0,0.0,0.0,0.0,0.0,0.0,0.0,0.0,0.0,0.0,0.0,0.0,0.0,0.0,0.0,0.0,0.0,0.0,0.0,0.0,0.0,0.0,0.0,0.0,0.0,0.0,0.0,0.0,0.0,0.0,0.0,0.0,0.0,0.0,0.0,0.0,0.0,0.0,0.0,0.0,0.0,0.0,0.0,0.0,0.0,0.0,0.0,0.0,0.0,0.0,0.0,0.0,0.0,0.0,0.0,0.0,0.0,0.0,-0.1629,-0.1803,-0.2025,-0.2187,-0.2214,-0.1779,-0.1275,0.0,0.0,0.0,0.0,0.0,0.0,0.0,0.0,0.0,0.0,0.0,0.0,0.0,0.0,0.0,0.0,0.0,0.0,0.0,0.0,0.0,0.0,0.0,0.0,0.0,0.0,0.0,0.0,0.0,0.0,0.0,0.0,0.0,0.0,0.0,0.0,0.0,0.0,0.0,0.0,0.0,0.0,0.0,0.0,0.0,0.0,0.0,0.0,0.0,0.0,0.0,0.0,0.0,0.0,0.0,0.0,0.0,0.0,0.0,0.0,0.0,0.0,0.0,0.0,0.0,0.0,0.0,0.0,0.0,0.0,0.0,0.0,0.0,0.0,0.0,0.0,0.0,0.0,0.0,0.0,0.0,0.0,0.0,0.0,0.0,0.0,0.0,0.0,0.0,0.0,0.0,0.0,0.0,0.0,0.0,0.0,0.0,0.0,0.0,0.0,0.0,0.0,0.0,0.0,0.0,0.0,0.0,-0.1263,-0.1759,-0.1881,-0.206,-0.2221,-0.222,-0.1897,-0.1445,-0.0773,0.0,0.0,0.0,0.0,0.0,0.0,0.0,0.0,0.0,0.0,0.0,0.0,0.0,0.0,0.0,0.0,0.0,0.0,0.0,0.0,0.0,0.0,0.0,0.0,0.0,0.0,0.0,0.0,0.0,0.0,0.0,0.0,0.0,0.0,0.0,0.0,0.0,0.0,0.624,0.632,0.0,0.0,0.0,0.0,0.0,0.0,0.0,0.0,0.7401,0.0,0.0,0.0,0.0,0.0,0.0,0.0,0.0,0.0,0.0,0.0,0.0,0.0,0.0,0.0,0.0,0.0,0.0,0.0,0.0,0.0,0.0,0.0,0.0,0.0,0.0,0.0,0.0,0.0,0.0,0.0,0.0,0.0,0.0,0.0,0.0,0.0,0.0,0.0,0.0,0.0,0.0,0.0,0.0,0.0,0.0,0.0,0.0,0.0,0.0,0.0,0.0,0.0,0.0,0.0,0.0,-0.0668,-0.1352,-0.184,-0.2135,-0.2149,-0.2221,-0.222,-0.1898,-0.1523,-0.1041,0.0,0.0,0.0,0.0,0.0,0.0,0.0,0.0,0.0,0.0,0.0,0.0,0.0,0.0,0.0,0.0,0.0,0.0,0.0,0.0,0.0,0.0,0.0,0.0,0.0,0.0,0.0,0.0,0.0,0.0,0.0,0.0,0.0,0.0,0.0,0.0,0.0,0.0,0.0,0.6413,0.6571,0.0,0.0,0.0,0.0,0.0,0.0,0.0,0.0,0.8318,0.0,0.0,0.0,0.0,0.0,0.0,0.0,0.0,0.0,0.0,0.0,0.0,0.0,0.0,0.0,0.0,0.0,0.0,0.0,0.0,0.0,0.0,0.0,0.0,0.0,0.0,0.0,0.0,0.0,0.0,0.0,0.0,0.0,0.0,0.0,0.0,0.0,0.0,0.0,0.0,0.0,0.0,0.0,0.0,0.0,0.0,0.0,0.0,0.0,0.0,0.0,0.0,0.0,0.0,0.0,-0.0737,-0.1378,-0.1871,-0.2217,-0.2221,-0.2221,-0.2153,-0.1726,-0.1226,0.0,0.0,0.0,0.0,0.0,0.0,0.0,0.0,0.0,0.0,0.0,0.0,0.0,0.0,0.0,0.0,0.0,0.0,0.0,0.0,0.0,0.0,0.0,0.0,0.0,0.0,0.0,0.0,0.0,0.0,0.0,0.0,0.0,0.0,0.0,0.0,0.0,0.0,0.0,0.0,0.6261,0.6497,0.6523,0.0,0.0,0.0,0.0,0.0,0.0,0.8598,0.8769,0.0,0.0,0.0,0.0,0.0,0.0,0.0,0.0,0.0,0.0,0.0,0.0,0.0,0.0,0.0,0.0,0.0,0.0,0.0,0.0,0.0,0.0,0.0,0.0,0.0,0.0,0.0,0.0,0.0,0.0,0.0,0.0,0.0,0.0,0.0,0.0,0.0,0.0,0.0,0.0,0.0,0.0,0.0,0.0,0.0,0.0,0.0,0.0,0.0,0.0,0.0,0.0,0.0,0.0,0.0,-0.0986,-0.1524,-0.1896,-0.2151,-0.2234,-0.2241,-0.2239,-0.1483,-0.0854,0.0,0.0,0.0,0.0,0.0,0.0,0.0,0.0,0.0,0.0,0.0,0.0,0.0,0.0,0.0,0.0,0.0,0.0,0.0,0.0,0.0,0.0,0.0,0.0,0.0,0.0,0.0,0.0,0.0,0.0,0.0,0.0,0.0,0.0,0.0,0.0,0.0,0.0,0.0,0.0,0.0,0.6371,0.6704,0.7056,0.0,0.0,0.0,0.0,0.8454,0.89,0.0,0.0,0.0,0.0,0.0,0.0,0.0,0.0,0.0,0.0,0.0,0.0,0.0,0.0,0.0,0.0,0.0,0.0,0.0,0.0,0.0,0.0,0.0,0.0,0.0,0.0,0.0,0.0,0.0,0.0,0.0,0.0,0.0,0.0,0.0,0.0,0.0,0.0,0.0,0.0,0.0,0.0,0.0,0.0,0.0,0.0,0.0,0.0,0.0,0.0,0.0,0.0,0.0,0.0,0.0,0.0,-0.1974,-0.1842,-0.183,-0.2153,-0.2275,-0.2304,-0.2303,-0.1499,-0.0861,0.0,0.0,0.0,0.0,0.0,0.0,0.0,0.0,0.0,0.0,0.0,0.0,0.0,0.0,0.0,0.0,0.0,0.0,0.0,0.0,0.0,0.0,0.0,0.0,0.0,0.0,0.0,0.0,0.0,0.0,0.0,0.0,0.0,0.0,0.0,0.0,0.0,0.0,0.0,0.0,0.0,0.638,0.6335,0.6768,0.7081,0.0,0.0,0.8297,0.8468,0.9137,0.0,0.0,0.0,0.0,0.0,0.0,0.0,0.0,0.0,0.0,0.0,0.0,0.0,0.0,0.0,0.0,0.0,0.0,0.0,0.0,0.0,0.0,0.0,0.0,0.0,0.0,0.0,0.0,0.0,0.0,0.0,0.0,0.0,0.0,0.0,0.0,0.0,0.0,0.0,0.0,0.0,0.0,0.0,0.0,0.0,0.0,0.0,0.0,0.0,0.0,0.0,0.0,0.0,0.0,0.0,-0.0893,-0.2152,-0.2052,-0.1905,-0.1722,-0.2052,-0.2224,-0.2297,-0.1327,-0.0476,0.0,0.0,0.0,0.0,0.0,0.0,0.0,0.0,0.0,0.0,0.0,0.0,0.0,0.0,0.0,0.0,0.0,0.0,0.0,0.0,0.0,0.0,0.0,0.0,0.0,0.0,0.0,0.0,0.0,0.0,0.0,0.0,0.0,0.0,0.0,0.0,0.0,0.0,0.0,0.0,0.0,0.0,0.6591,0.699,0.0,0.0,0.0,0.8743,0.8883,0.0,0.0,0.0,0.0,0.0,0.0,0.0,0.0,0.0,0.0,0.0,0.0,0.0,0.0,0.0,0.0,0.0,0.0,0.0,0.0,0.0,0.0,0.0,0.0,0.0,0.0,0.0,0.0,0.0,0.0,0.0,0.0,0.0,0.0,0.0,0.0,0.0,0.0,0.0,0.0,0.0,0.0,0.0,0.0,0.0,0.0,0.0,0.0,0.0,0.0,0.0,0.0,0.0,0.0,0.0,0.0,0.0,-0.1628,-0.1723,-0.1557,-0.1063,-0.1307,-0.1546,-0.1692,-0.0866,0.0,0.0,0.0,0.0,0.0,0.0,0.0,0.0,0.0,0.0,0.0,0.0,0.0,0.0,0.0,0.0,0.0,0.0,0.0,0.0,0.0,0.0,0.0,0.0,0.0,0.0,0.0,0.2705,0.0,0.0,0.0,0.0,0.0,0.0,0.0,0.0,0.0,0.0,0.0,0.0,0.0,0.0,0.6554,0.6841,0.722,0.7568,0.0,0.0,0.9162,0.9336,0.9913,1.0136,0.0,0.0,0.0,0.0,0.0,0.0,0.0,0.0,0.0,0.0,0.0,0.0,0.0,0.0,0.0,0.0,0.0,0.0,0.0,0.0,0.0,0.0,0.0,0.0,0.0,0.0,0.0,0.0,0.0,0.0,0.0,0.0,0.0,0.0,0.0,0.0,0.0,0.0,0.0,0.0,0.0,0.0,0.0,0.0,0.0,0.0,0.0,0.0,0.0,0.0,0.0,0.0,0.0,0.0,0.0,-0.0067,-0.0495,-0.0509,-0.0218,0.0298,0.0377,-0.0075,-0.0,0.0221,0.0,0.0,0.0,0.0,0.0,0.0,0.0,0.0,0.0,0.0,0.0,0.0,0.0,0.0,0.0,0.0,0.0,0.0,0.0,0.0,0.0,0.0,0.0,0.0,0.0,0.0,0.0,0.0,0.0,0.0,0.0,0.0,0.0,0.0,0.0,0.0,0.0,0.0,0.0,0.0,0.0,0.685,0.6876,0.7267,0.758,0.0,0.0,0.9233,0.9768,1.0533,1.0876,1.0293,0.0,0.0,0.0,0.0,0.0,0.0,0.0,0.0,0.0,0.0,0.0,0.0,0.0,0.0,0.0,0.0,0.0,0.0,0.0,0.0,0.0,0.0,0.0,0.0,0.0,0.0,0.0,0.0,0.0,0.0,0.0,0.0,0.0,0.0,0.0,0.0,0.0,0.0,0.0,0.0,0.0,0.0,0.0,0.0,0.0,0.0,0.0,0.0,0.0,0.0,0.0,0.0,0.0,0.1073,0.1172,0.08,0.0448,0.0299,0.1301,0.1627,0.1238,0.145,0.1501,0.0,0.0,0.0,0.0,0.0,0.0,0.0,0.0,0.0,0.0,0.0,0.0,0.0,0.0,0.0,0.0,0.0,0.0,0.0,0.0,0.0,0.0,0.0,0.0,0.0,0.0,0.0,0.0,0.3792,0.42,0.4713,0.0,0.0,0.0,0.0,0.0,0.0,0.0,0.0,0.0,0.0,0.7005,0.7232,0.7389,0.0,0.0,0.8282,0.8813,0.9314,0.9782,1.0101,0.9984,0.98,0.0,0.0,0.0,0.0,0.0,0.0,0.0,0.0,0.0,0.0,0.0,0.0,0.0,0.0,0.0,0.0,0.0,0.0,0.0,0.0,0.0,0.0,0.0,0.0,0.0,0.0,0.0,0.0,0.0,0.0,0.0,0.0,0.0,0.0,0.0,0.0,0.0,0.0,0.0,0.0,0.0,0.0,0.0,0.0,0.0,0.0,0.0,0.0,0.0,0.0,0.0,0.0,0.1039,0.122,0.0974,0.0688,0.0383,0.1323,0.1807,0.1729,0.2102,0.2155,0.0,0.0,0.0,0.0,0.0,0.0,0.0,0.0,0.0,0.0,0.0,0.0,0.0,0.0,0.0,0.0,0.0,0.0,0.0,0.0,0.0,0.0,0.0,0.0,0.0,0.0,0.0,0.0,0.3837,0.4216,0.4677,0.0,0.0,0.0,0.0,0.0,0.0,0.0,0.0,0.0,0.0,0.7149,0.7478,0.7563,0.7651,0.7859,0.8214,0.8618,0.9135,0.9463,0.9691,0.975,0.0,0.0,0.0,0.0,0.0,0.0,0.0,0.0,0.0,0.0,0.0,0.0,0.0,0.0,0.0,0.0,0.0,0.0,0.0,0.0,0.0,0.0,0.0,0.0,0.0,0.0,0.0,0.0,0.0,0.0,0.1708,0.0,0.0,0.0,0.0,0.0,0.0,0.0,0.0,0.0,0.0,0.0,0.0,0.0,0.0,0.0,0.0,0.0,0.0,0.0,0.0,0.0,0.0,-0.0359,-0.0378,-0.0232,-0.0157,-0.0,0.0235,0.0628,0.1259,0.1524,0.1827,0.2051,0.0,0.0,0.0,0.0,0.0,0.0,0.0,0.0,0.0,0.0,0.0,0.0,0.0,0.0,0.0,0.0,0.0,0.0,0.0,0.0,0.0,0.0,0.0,0.0,0.0,0.0,0.2938,0.3505,0.4064,0.0,0.0,0.0,0.0,0.0,0.0,0.0,0.0,0.0,0.0,0.7227,0.7504,0.7516,0.7677,0.7868,0.8025,0.8394,0.8922,0.9463,0.9771,0.9836,0.0,0.0,0.0,0.0,0.0,0.0,0.0,0.0,0.0,0.0,0.0,0.0,0.0,0.0,0.0,0.0,0.0,0.0,0.0,0.0,0.0,0.0,0.0,0.0,0.0,0.0,0.0,0.1464,0.1762,0.0,0.0,0.0,0.0,0.0,0.0,0.0,0.0,0.0,0.0,0.0,0.209,0.1944,0.0,0.0,0.0,0.0,0.0,0.0,0.0,0.0,0.0,0.0,0.0,0.0,-0.067,-0.0455,-0.063,-0.0722,-0.0643,-0.106,-0.0821,0.0246,0.0165,0.0246,0.0794,0.0,0.0,0.0,0.0,0.0,0.0,0.0,0.0,0.0,0.0,0.0,0.0,0.0,0.0,0.0,0.0,0.0,0.0,0.0,0.0,0.0,0.0,0.0,0.0,0.0,0.2693,0.0,0.0,0.0,0.0,0.0,0.0,0.0,0.0,0.0,0.0,0.0,0.6199,0.6844,0.7029,0.7182,0.7454,0.752,0.7638,0.0,0.0,0.0,0.0,0.0,0.0,0.0,0.0,0.0,0.0,0.0,0.0,0.0,0.0,0.8635,0.9023,0.9146,0.9208,0.9457,0.0,0.0,0.0,0.0,0.0,0.0,0.0,0.0,0.0,0.0,0.0,0.0,0.0,0.0,0.1403,0.0,0.171,0.0,0.0,0.0,0.0,0.0,0.0,0.0,0.0,0.1867,0.1743,0.1285,0.1448,0.1288,0.0,0.1207,0.0935,0.0,0.0,0.0,0.0,0.0,0.0,0.0,0.0,-0.1238,-0.1022,-0.1376,-0.1561,-0.148,-0.1919,-0.1682,-0.0504,-0.084,-0.067,0.0083,0.1073,0.1444,0.0,0.0,0.0,0.0,0.0,0.0,0.0,0.0,0.0,0.0,0.0,0.0,0.0,0.0,0.0,0.0,0.0,0.0,0.0,0.0,0.0,0.0,0.0,0.284,0.0,0.0,0.0,0.0,0.0,0.0,0.0,0.0,0.0,0.5171,0.5471,0.5878,0.6445,0.6667,0.6897,0.7161,0.0,0.0,0.0,0.0,0.0,0.0,0.0,0.8899,0.895,0.8746,0.8512,0.8567,0.8375,0.8365,0.866,0.0,0.0,0.8969,0.9014,0.9086,0.9351,0.9478,0.9544,0.961,1.0071,1.0399,0.0,0.0,0.0,0.0,0.0,0.0,0.0,0.0,0.1181,0.1377,0.0,0.16,0.0,0.0,0.0,0.0,0.0,0.1735,0.0,0.0,0.1831,0.1093,0.0084,0.0589,0.0505,-0.0,0.1348,0.0925,-0.1258,-0.0806,0.0,0.0,0.0,0.0,0.0,0.0,-0.2175,-0.2015,-0.2444,-0.2615,-0.2449,-0.245,-0.2029,-0.1099,-0.1352,-0.1109,-0.0261,-0.0171,-0.0083,0.0163,0.0234,0.0,0.0,0.0,0.0,0.0,0.0,0.0,0.0,0.0,0.0,0.0,0.0,0.0,0.0,0.0,0.0,0.0,0.0,0.0,0.0,0.276,0.0,0.0,0.0,0.0,0.0,0.0,0.0,0.0,0.0,0.0,0.4474,0.4997,0.5442,0.5676,0.0,0.0,0.0,0.0,0.7202,0.7684,0.7906,0.809,0.8505,0.8587,0.8513,0.8362,0.0,0.0,0.8334,0.8526,0.8685,0.8922,0.8903,0.8941,0.8882,0.8876,0.9022,0.9379,0.9449,0.9449,0.9659,1.0142,1.0553,0.1104,0.0,0.0,0.0,0.0,0.1003,0.0942,0.0979,0.129,0.1422,0.1424,0.1617,0.0,0.0,0.0,0.0,0.0,0.0,0.1933,0.2046,0.1459,0.0607,-0.044,-0.0176,-0.0176,-0.0528,-0.0352,-0.0793,-0.1675,-0.1945,-0.1898,-0.1798,0.0,0.0,0.0,0.0,-0.2513,-0.241,-0.2712,-0.2842,-0.279,-0.2834,-0.2762,-0.2485,-0.2669,-0.2292,-0.1455,-0.0994,-0.0709,-0.0512,-0.0,0.0,0.0,0.0,0.0,0.0,0.0,0.0,0.0,0.0,0.0,0.0,0.0,0.0,0.0,0.0,0.0,0.0,0.0,0.0,0.2558,0.2569,0.2665,0.0,0.0,0.0,0.0,0.0,0.0,0.0,0.0,0.0,0.3441,0.4223,0.4877,0.0,0.0,0.599,0.6319,0.6518,0.6709,0.7122,0.7413,0.0,0.7851,0.8189,0.8313,0.8275,0.8105,0.8033,0.7764,0.7827,0.794,0.8327,0.8255,0.8214,0.8341,0.8827,0.9194,0.9495,0.9575,0.9575,0.9791,1.0228,1.0437,0.132,0.1243,0.1125,0.1104,0.1147,0.1148,0.114,0.1245,0.1328,0.1451,0.1427,0.1626,0.1709,0.1772,0.1795,0.0,0.0,0.0,0.1516,0.1714,0.0722,-0.0272,-0.1287,-0.1103,-0.1194,-0.147,-0.147,-0.1745,-0.2298,-0.2233,-0.239,-0.2658,0.0,0.0,-0.2274,-0.2538,-0.2652,-0.2615,-0.2834,-0.2961,-0.3088,-0.3125,-0.3146,-0.3146,-0.3146,-0.2938,-0.2436,-0.206,-0.185,-0.1624,-0.1139,-0.0844,0.0,0.0,0.0,0.0,0.0,0.0,0.0,0.0,0.0,0.0,0.0,0.1716,0.0,0.0,0.0,0.0,0.2248,0.2679,0.2847,0.274,0.0,0.0,0.0,0.0,0.0,0.0,0.0,0.2898,0.2696,0.2661,0.2803,0.3283,0.3841,0.4277,0.4608,0.4856,0.5105,0.0,0.6123,0.66,0.7045,0.7499,0.7729,0.7998,0.8213,0.8229,0.8122,0.7931,0.7812,0.768,0.7758,0.7979,0.7927,0.788,0.8102,0.8484,0.8941,0.9165,0.9316,0.9397,0.962,1.0062,1.0351,0.1526,0.1502,0.1228,0.1177,0.1277,0.1198,0.1257,0.1441,0.1442,0.1458,0.1484,0.1487,0.1504,0.1533,0.153,0.0,0.1768,0.0852,0.0762,0.1335,-0.0191,-0.1431,-0.2386,-0.2095,-0.2286,-0.2667,-0.1999,-0.219,-0.3048,-0.2193,-0.2194,-0.3056,-0.2821,-0.2515,-0.2413,-0.2598,-0.2717,-0.2767,-0.2959,-0.3154,-0.316,-0.3158,-0.316,-0.316,-0.316,-0.3157,-0.3153,-0.3056,-0.3053,-0.3045,-0.2946,-0.2412,-0.1309,0.0,0.0,0.0,0.0,0.0,0.0,0.0,0.0,0.0,0.0,0.0,0.0,0.0,0.0,0.0,0.2153,0.0,0.3188,0.3031,0.0,0.0,0.0,0.2445,0.2445,0.245,0.2472,0.2525,0.0,0.0,0.2347,0.2353,0.2423,0.2715,0.3212,0.3463,0.3465,0.4653,0.5531,0.5997,0.6824,0.7503,0.7793,0.8004,0.8098,0.8288,0.8128,0.8006,0.813,0.7958,0.7901,0.8016,0.7878,0.7781,0.8,0.8022,0.8223,0.8616,0.8837,0.9047,0.9261,0.9735,1.0147,0.1526,0.152,0.1448,0.1436,0.1462,0.1371,0.1386,0.141,0.1504,0.1508,0.1517,0.154,0.1566,0.1594,0.1571,0.1654,0.1647,0.1341,0.124,0.1335,-0.0191,-0.1622,-0.2961,-0.2576,-0.267,-0.2954,-0.2859,-0.2859,-0.3052,-0.2901,-0.2825,-0.3119,-0.3053,-0.3023,-0.2937,-0.2933,-0.2962,-0.302,-0.3117,-0.314,-0.3185,-0.3187,-0.3188,-0.3187,-0.3187,-0.3165,-0.312,-0.3119,-0.3097,-0.305,-0.3022,-0.2888,-0.2465,-0.1388,0.0,0.0,0.0,0.0,0.0,0.0,0.0,0.0,0.0,0.1491,0.1758,0.0,0.1709,0.0,0.1646,0.1843,0.2494,0.2208,0.0,0.0,0.2169,0.2085,0.2086,0.1948,0.1972,0.2241,0.2013,0.1948,0.1958,0.1959,0.1878,0.1896,0.2531,0.3073,0.3347,0.4139,0.4944,0.5332,0.6081,0.6752,0.7066,0.7449,0.7726,0.8009,0.8026,0.7949,0.7994,0.7714,0.753,0.7499,0.7442,0.7415,0.7481,0.7651,0.7805,0.8116,0.8502,0.8829,0.9138,0.9306,0.9495,0.1566,0.1566,0.1566,0.1566,0.1565,0.1538,0.1526,0.1431,0.1526,0.1629,0.1548,0.1578,0.16,0.1615,0.16,0.1492,0.1293,0.1191,0.1288,0.1387,-0.0594,-0.1883,-0.2477,-0.2752,-0.2937,-0.3129,-0.3129,-0.3143,-0.3172,-0.3204,-0.3234,-0.326,-0.3294,-0.3277,-0.3211,-0.3157,-0.3146,-0.318,-0.318,-0.3198,-0.3229,-0.323,-0.323,-0.323,-0.323,-0.3215,-0.3181,-0.318,-0.3165,-0.3131,-0.3104,-0.3075,-0.3042,-0.1921,-0.1134,0.0,0.0,0.0,0.0,0.0,0.0,0.0,0.0,0.0,0.0,0.0,0.1634,0.1754,0.1568,0.1749,0.2232,0.2017,0.1905,0.1904,0.1905,0.1904,0.1731,0.1662,0.1587,0.1764,0.1707,0.1638,0.1638,0.1651,0.1667,0.1499,0.1985,0.2368,0.2536,0.3314,0.3915,0.4328,0.5256,0.6292,0.6822,0.707,0.7338,0.777,0.7761,0.7601,0.7448,0.7379,0.7311,0.7165,0.7159,0.7195,0.7195,0.736,0.7544,0.7768,0.8061,0.8337,0.8797,0.8995,0.9122,0.1622,0.1622,0.1619,0.162,0.1618,0.1566,0.1542,0.1538,0.1542,0.1656,0.1585,0.1611,0.1622,0.1623,0.1626,0.1323,0.0916,0.0414,0.0625,0.1248,-0.1248,-0.2185,-0.1871,-0.2765,-0.3253,-0.3253,-0.3253,-0.3281,-0.3331,-0.3332,-0.336,-0.341,-0.3413,-0.3413,-0.3407,-0.3307,-0.3251,-0.3243,-0.3243,-0.3241,-0.3243,-0.3249,-0.3253,-0.3253,-0.3247,-0.3243,-0.3243,-0.3236,-0.323,-0.3229,-0.318,-0.3151,-0.315,-0.2474,-0.1926,0.0,-0.1467,0.0,0.0,0.0,0.0,0.0,0.0,0.0,0.0,0.1406,0.152,0.1767,0.1739,0.1825,0.2048,0.2107,0.199,0.181,0.1809,0.1628,0.1446,0.1446,0.1447,0.1447,0.147,0.1487,0.1488,0.151,0.1525,0.1532,0.1648,0.1657,0.164,0.2405,0.3097,0.3139,0.455,0.5802,0.6454,0.6783,0.7047,0.7534,0.7468,0.7026,0.6897,0.696,0.7002,0.6927,0.6888,0.6965,0.6923,0.7097,0.7228,0.7435,0.7539,0.7746,0.8384,0.8619,0.8819,0.1654,0.1651,0.1628,0.1631,0.1652,0.1641,0.1622,0.1601,0.1626,0.164,0.1645,0.1651,0.155,0.1552,0.1575,0.1584,0.1268,-0.1483,-0.1696,0.0212,-0.2226,-0.3182,-0.3075,-0.3277,-0.3377,-0.3377,-0.3379,-0.3384,-0.3395,-0.3395,-0.3401,-0.3412,-0.3305,-0.3305,-0.3412,0.0,0.0,0.0,-0.3305,-0.3304,-0.3305,-0.3248,-0.3272,-0.3376,-0.333,0.0,-0.3303,-0.3256,-0.323,-0.323,-0.3219,0.0,0.0,0.0,0.0,0.0,0.0,0.0,0.0,0.0,0.0,0.0,-0.0559,-0.0,0.1191,0.1486,0.161,0.1647,0.1622,0.1616,0.1745,0.1623,0.1603,0.1603,0.1508,0.1509,0.1509,0.1508,0.1508,0.1509,0.1514,0.1517,0.1518,0.1523,0.1536,0.156,0.1568,0.1579,0.1596,0.2292,0.2798,0.3007,0.4185,0.5284,0.5508,0.6182,0.6654,0.6799,0.6991,0.7003,0.6588,0.684,0.692,0.669,0.6625,0.6649,0.6546,0.653,0.6695,0.6919,0.7099,0.7351,0.7929,0.8036,0.8154,0.1662,0.0,0.163,0.1626,0.0,0.164,0.1632,0.162,0.1665,0.1685,0.1685,0.1369,0.1369,0.158,0.1594,0.064,-0.1066,-0.215,-0.2375,-0.1834,-0.3024,-0.3564,-0.3452,-0.3427,-0.3413,-0.3413,-0.3413,-0.3427,-0.3452,-0.3454,-0.3469,-0.3499,-0.3499,-0.3499,-0.3497,-0.3469,-0.3424,-0.3367,-0.3365,-0.3367,-0.3367,-0.3397,-0.3305,-0.3412,-0.3383,0.0,0.0,0.0,0.0,0.0,0.0,0.0,0.0,0.0,0.0,-0.3185,-0.2835,-0.2623,-0.2548,-0.2649,-0.2473,-0.2015,-0.1009,-0.0,0.0956,0.1165,0.1282,0.1592,0.1566,0.1555,0.1568,0.1544,0.1526,0.1526,0.1526,0.1526,0.1526,0.1526,0.1526,0.1528,0.1539,0.1549,0.1549,0.1562,0.1576,0.1591,0.1594,0.1599,0.1613,0.192,0.2322,0.2725,0.3429,0.4133,0.4535,0.5037,0.5741,0.6145,0.6242,0.6294,0.6382,0.6557,0.6571,0.6334,0.6362,0.6412,0.629,0.6343,0.6428,0.6609,0.6697,0.6786,0.7136,0.7584,0.794,0.1677,0.1675,0.1645,0.1635,0.1641,0.164,0.1643,0.1651,0.0,0.0,0.0,0.1072,0.0857,0.075,0.0967,-0.043,-0.3015,-0.2402,-0.2638,-0.3629,-0.3519,-0.3516,-0.3621,-0.3466,-0.3443,-0.3443,-0.3443,-0.3467,-0.3511,-0.3512,-0.3538,-0.3583,-0.3587,-0.3587,-0.3583,-0.3537,-0.3491,-0.3446,-0.3432,-0.3427,-0.3427,-0.3437,-0.3443,-0.3444,-0.3432,-0.3428,-0.3427,-0.3417,-0.339,-0.3341,-0.3338,-0.3338,-0.3231,-0.3186,-0.3285,-0.3227,-0.3085,-0.2976,-0.2915,-0.2919,-0.3043,-0.3302,-0.1278,0.0209,0.06,0.0605,0.0812,0.132,0.1397,0.1481,0.1579,0.1558,0.1542,0.1542,0.1543,0.1543,0.1543,0.1542,0.1545,0.1545,0.1566,0.1579,0.1581,0.1599,0.1617,0.1616,0.1614,0.1617,0.1617,0.1617,0.192,0.2423,0.2826,0.3128,0.363,0.4033,0.4438,0.5448,0.5242,0.5309,0.5836,0.6103,0.6112,0.6029,0.6143,0.617,0.6149,0.6186,0.6254,0.6254,0.6343,0.6343,0.6432,0.7054,0.7591,0.1737,0.1843,0.1705,0.1707,0.1731,0.1623,0.1637,0.1543,0.0637,0.053,0.0981,0.1417,-0.0109,-0.2838,-0.1771,-0.1336,-0.1336,-0.2681,-0.347,-0.358,-0.3578,-0.3575,-0.3574,-0.3567,-0.3563,-0.3563,-0.3561,-0.3567,-0.3574,-0.3574,-0.3579,-0.3586,-0.3587,-0.3587,-0.3587,-0.3579,-0.3571,-0.3561,-0.3511,-0.3485,-0.3485,-0.3536,-0.3563,-0.3561,-0.3511,-0.3484,-0.3484,-0.3439,-0.3409,-0.3401,-0.3399,-0.3399,-0.3293,-0.3284,-0.339,-0.3505,-0.3392,-0.3285,-0.3293,-0.3293,-0.319,-0.3091,-0.1173,-0.0,0.0106,0.0104,0.0103,0.0207,0.0713,0.1107,0.151,0.1607,0.1503,0.1603,0.1604,0.1604,0.1601,0.1603,0.1601,0.16,0.1607,0.161,0.1609,0.1613,0.1617,0.1617,0.1617,0.1617,0.1617,0.1617,0.1617,0.1819,0.2322,0.2826,0.3027,0.353,0.3831,0.3627,0.4033,0.4329,0.491,0.5207,0.5459,0.6039,0.6018,0.6007,0.5893,0.5882,0.5741,0.573,0.5816,0.6083,0.6088,0.6438,0.67,0.175,0.1746,0.1717,0.1712,0.1727,0.1617,0.1089,0.011,-0.1296,-0.1842,-0.144,-0.0554,-0.0887,-0.1997,-0.1901,-0.2019,-0.2356,-0.2691,-0.3139,-0.359,-0.3587,-0.3587,-0.3587,-0.3587,-0.3587,-0.3587,-0.3587,-0.3587,-0.3587,-0.3587,-0.3587,-0.3587,-0.3587,-0.3587,-0.3587,-0.3587,-0.3587,-0.3587,-0.356,-0.3546,-0.3545,-0.3574,-0.3587,-0.3587,-0.3559,-0.3546,-0.3546,-0.3521,-0.3492,-0.3459,-0.3458,-0.3458,-0.3456,-0.3429,-0.3441,-0.3504,-0.3477,-0.3473,-0.351,-0.3511,-0.3181,-0.2522,-0.2194,-0.1426,-0.0,-0.0,-0.0,-0.0,0.0209,0.052,0.0729,0.1041,0.1141,0.1129,0.1231,0.143,0.1622,0.1633,0.1635,0.1622,0.1632,0.1635,0.1618,0.1617,0.1617,0.1617,0.1617,0.1617,0.1617,0.1617,0.1617,0.1617,0.1919,0.2121,0.2222,0.2423,0.2522,0.2318,0.2924,0.3428,0.3929,0.4232,0.4598,0.4914,0.4916,0.4819,0.4723,0.4628,0.4578,0.4654,0.501,0.528,0.5371,0.5816,0.6257,0.132,0.1098,0.1083,0.1186,0.1187,0.1402,0.0326,-0.1539,-0.297,-0.355,-0.3478,-0.2356,-0.1683,-0.157,-0.1795,-0.2467,-0.3367,-0.2802,-0.2913,-0.3587,-0.3587,-0.3587,-0.3587,-0.3587,-0.3587,-0.3587,-0.3587,-0.3587,-0.3587,-0.3587,-0.3587,-0.3587,-0.3587,-0.3587,-0.3587,-0.3587,-0.3587,-0.3587,-0.3587,-0.3587,-0.3587,-0.3587,-0.3587,-0.3587,-0.3587,-0.3587,-0.3587,-0.3587,-0.3565,-0.3522,-0.3516,-0.3516,-0.3516,-0.3477,-0.3493,-0.3576,-0.3546,-0.354,-0.3587,-0.3594,-0.2919,-0.157,-0.2806,-0.258,-0.0,-0.0,-0.0,-0.0,-0.0,-0.0,-0.0,0.0639,0.1061,0.1047,0.1149,0.1348,0.1533,0.1648,0.1651,0.1626,0.1638,0.1641,0.1624,0.1617,0.1617,0.1617,0.1617,0.1617,0.1617,0.1617,0.1617,0.1617,0.1617,0.1617,0.1617,0.1617,0.1717,0.1614,0.2119,0.2623,0.3126,0.353,0.3815,0.3954,0.3983,0.391,0.3735,0.366,0.3711,0.3799,0.4143,0.4472,0.4746,0.5102,0.5813,-0.0112,-0.0671,-0.0558,-0.0558,-0.0335,0.0558,-0.067,-0.3135,-0.358,-0.3585,-0.3481,-0.2356,-0.2468,-0.3143,-0.2466,-0.2689,-0.3589,-0.3475,-0.3475,-0.3587,-0.3587,-0.3587,-0.3587,-0.3587,-0.3587,-0.3587,-0.3587,-0.3587,-0.3587,-0.3587,-0.3587,-0.3587,-0.3587,-0.3587,-0.3587,-0.3587,-0.3587,-0.3587,-0.3587,-0.3587,-0.3587,-0.3587,-0.3587,-0.3587,-0.359,-0.3587,-0.3591,-0.3587,-0.3586,-0.358,-0.358,-0.358,-0.3578,-0.3574,-0.3576,-0.3589,-0.3582,-0.3585,-0.3593,-0.3594,-0.2693,-0.0673,-0.2244,-0.2468,-0.0,-0.0,-0.0,-0.0,-0.0,-0.0,-0.0,0.0962,0.1603,0.1598,0.1595,0.1689,0.1665,0.1661,0.1651,0.162,0.1628,0.162,0.1622,0.1618,0.1617,0.1617,0.1617,0.1617,0.1617,0.1617,0.1617,0.1617,0.1617,0.1617,0.1617,0.1617,0.1617,0.1617,0.1617,0.202,0.2523,0.2825,0.3021,0.3404,0.3754,0.3583,0.3612,0.3643,0.3502,0.3296,0.3535,0.3848,0.4383,0.4472,0.4741,-0.0897,-0.1346,-0.1009,-0.1121,-0.1234,-0.157,-0.2468,-0.3594,-0.3589,-0.3589,-0.359,-0.3027,-0.3141,-0.3589,-0.3138,-0.325,-0.3587,-0.3587,-0.3587,-0.3587,-0.3587,-0.3587,-0.3587,-0.3587,-0.3587,-0.3587,-0.3587,-0.3587,-0.3587,-0.3587,-0.3587,-0.3587,-0.3587,-0.3587,-0.3587,-0.3587,-0.3587,-0.3589,-0.3624,-0.3642,-0.364,-0.3642,-0.3658,-0.3691,-0.3695,-0.3676,-0.3649,-0.3674,-0.3662,-0.36,-0.3655,-0.3679,-0.3643,-0.364,-0.364,-0.3639,-0.3608,-0.3587,-0.359,-0.3593,-0.3143,-0.2132,-0.1683,-0.1009,-0.0,-0.0,-0.0,-0.0,-0.0,0.022,0.0879,0.1539,0.1752,0.1845,0.1731,0.1719,0.169,0.1703,0.1702,0.1673,0.1669,0.166,0.1645,0.1628,0.1618,0.1617,0.1617,0.1617,0.1617,0.1617,0.1617,0.1617,0.1617,0.1617,0.1617,0.1617,0.1617,0.1617,0.1617,0.1819,0.1919,0.2121,0.2221,0.2624,0.2684,0.2635,0.2388,0.2437,0.2399,0.2476,0.2815,0.3133,0.3935,0.3937,0.4295,-0.1907,-0.2242,-0.1794,-0.1907,-0.2355,-0.3255,-0.3593,-0.3593,-0.3589,-0.3587,-0.3587,-0.3587,-0.3587,-0.3587,-0.3587,-0.3587,-0.3587,-0.3587,-0.3587,-0.3587,-0.3587,-0.3587,-0.3587,-0.3587,-0.3587,-0.3587,-0.3587,-0.3587,-0.3587,-0.3587,-0.3587,-0.3587,-0.3587,-0.3587,-0.3587,-0.3587,-0.3595,-0.3616,-0.3658,-0.3694,-0.3722,-0.3729,-0.3743,-0.3767,-0.3768,-0.3748,-0.3707,-0.3745,-0.373,-0.3646,-0.3724,-0.3749,-0.3707,-0.3703,-0.3696,-0.3677,-0.3638,-0.3604,-0.359,-0.359,-0.3593,-0.3481,-0.1907,-0.0673,-0.0,-0.0,-0.0,-0.0,-0.0448,-0.0112,0.0561,0.1234,0.145,0.1433,0.1541,0.175,0.1723,0.1738,0.1733,0.1701,0.1692,0.1694,0.1665,0.1636,0.1617,0.1617,0.1617,0.1617,0.1617,0.1617,0.1617,0.1617,0.1617,0.1617,0.1617,0.1617,0.1617,0.1617,0.1617,0.1617,0.1617,0.1617,0.1617,0.2017,0.1693,0.1667,0.1824,0.1692,0.1571,0.1543,0.1895,0.2529,0.3139,0.3315,0.3492,-0.3478,-0.3475,-0.3475,-0.3362,-0.3475,-0.3587,-0.3586,-0.3582,-0.3587,-0.3587,-0.3583,-0.3587,-0.3587,-0.3587,-0.3587,-0.3587,-0.3587,-0.3587,-0.3587,-0.3587,-0.3587,-0.3587,-0.3587,-0.3587,-0.3587,-0.3587,-0.3587,-0.3587,-0.3587,-0.3587,-0.3587,-0.3587,-0.3587,-0.3587,-0.3587,-0.3587,-0.3616,-0.3657,-0.3676,-0.3732,-0.383,-0.3846,-0.3823,-0.3785,-0.3773,-0.3775,-0.3767,-0.3768,-0.3766,-0.3759,-0.377,-0.3773,-0.3766,-0.3766,-0.374,-0.3689,-0.3676,-0.365,-0.3604,-0.3594,-0.3594,-0.3597,-0.3371,-0.2468,-0.0673,-0.0,-0.0,-0.157,-0.157,-0.1458,-0.1234,-0.0112,0.0672,0.0783,0.1343,0.1665,0.1751,0.1641,0.1723,0.169,0.1696,0.1694,0.1667,0.1636,0.1622,0.1618,0.1617,0.1617,0.1617,0.1617,0.1617,0.1617,0.1617,0.1617,0.1617,0.1617,0.1617,0.1617,0.1617,0.1617,0.1617,0.1617,0.1617,0.1617,0.1611,0.1588,0.1545,0.1513,0.1491,0.1476,0.1481,0.1939,0.2445,0.2157,0.242,-0.3589,-0.3587,-0.3587,-0.3587,-0.3587,-0.3587,-0.3565,-0.3643,-0.3572,-0.3565,-0.3651,-0.357,-0.3587,-0.3587,-0.3587,-0.3587,-0.3587,-0.3587,-0.3587,-0.3587,-0.3587,-0.3587,-0.3587,-0.3587,-0.3587,-0.3587,-0.3587,-0.3587,-0.3587,-0.3587,-0.3587,-0.3587,-0.3587,-0.3587,-0.3587,-0.3587,-0.36,-0.3625,-0.3694,-0.3759,-0.3808,-0.3877,-0.3906,-0.3887,-0.3886,-0.3868,-0.3828,-0.3865,-0.3852,-0.3773,-0.3841,-0.3868,-0.3833,-0.3827,-0.38,-0.3745,-0.3736,-0.3726,-0.3703,-0.3668,-0.3646,-0.3644,-0.3613,-0.3483,-0.2691,-0.1794,-0.1234,-0.1346,-0.1683,-0.1795,-0.157,-0.0785,-0.0,0.0224,0.0448,0.0895,0.1113,0.1111,0.1216,0.1641,0.1742,0.1715,0.157,0.1652,0.1536,0.1621,0.1617,0.1617,0.1617,0.1617,0.1617,0.1617,0.1617,0.1617,0.1617,0.1617,0.1617,0.1617,0.1617,0.1617,0.1617,0.1617,0.1617,0.1617,0.1617,0.1603,0.1558,0.1522,0.1501,0.1502,0.1508,0.1584,0.1831,0.181,0.1978,-0.3587,-0.3587,-0.3587,-0.3587,-0.3587,-0.3587,-0.3564,-0.3642,-0.3568,-0.3564,-0.354,-0.3571,-0.3587,-0.3587,-0.3587,-0.3587,-0.3587,-0.3587,-0.3587,-0.3587,-0.3587,-0.3587,-0.3587,-0.3587,-0.3587,-0.3587,-0.3587,-0.3587,-0.3587,-0.3587,-0.3587,-0.3587,-0.3587,-0.3587,-0.3587,-0.3587,-0.3594,-0.3632,-0.3718,-0.3777,-0.3808,-0.3897,-0.395,-0.395,-0.395,-0.3932,-0.3892,-0.3929,-0.3917,-0.3853,-0.3907,-0.3932,-0.3894,-0.389,-0.3862,-0.3807,-0.3798,-0.3788,-0.3768,-0.373,-0.3823,-0.3936,-0.3902,-0.3984,-0.4075,-0.3393,-0.2595,-0.2023,-0.1907,-0.2132,-0.1795,-0.1346,-0.0785,-0.0336,-0.0112,0.0224,0.0673,0.0673,0.0896,0.1338,0.1425,0.1396,0.1474,0.1565,0.1545,0.1621,0.1617,0.1617,0.1617,0.1617,0.1617,0.1617,0.1617,0.1617,0.1617,0.1617,0.1617,0.1617,0.1617,0.1617,0.1617,0.1617,0.1617,0.1617,0.1611,0.1599,0.1573,0.1536,0.1524,0.1524,0.1513,0.1497,0.1659,0.1636,0.1804,-0.3587,-0.3587,-0.3587,-0.3587,-0.3587,-0.3587,-0.3586,-0.3575,-0.3471,-0.3469,-0.3565,-0.3583,-0.3587,-0.3587,-0.3587,-0.3587,-0.3587,-0.3587,-0.3587,-0.3587,-0.3587,-0.3587,-0.3587,-0.3587,-0.3587,-0.3587,-0.3587,-0.3587,-0.3587,-0.3587,-0.3587,-0.3587,-0.3587,-0.3587,-0.3587,-0.359,-0.3615,-0.3665,-0.3726,-0.3789,-0.3857,-0.3907,-0.3942,-0.3944,-0.3947,-0.3948,-0.3944,-0.395,-0.3946,-0.3942,-0.3944,-0.395,-0.3943,-0.3943,-0.3921,-0.3872,-0.3861,-0.3831,-0.3788,-0.3775,-0.3886,-0.4234,-0.4347,-0.4309,-0.438,-0.4718,-0.4347,-0.3162,-0.2813,-0.2584,-0.1908,-0.1683,-0.1458,-0.1009,-0.0561,-0.0,0.0336,0.0561,0.0673,0.0894,0.0876,0.0857,0.0957,0.1158,0.1346,0.1424,0.1516,0.1516,0.1516,0.1516,0.1516,0.1516,0.1414,0.1212,0.1414,0.1617,0.1617,0.1617,0.1617,0.1617,0.1617,0.1617,0.1617,0.1617,0.1617,0.1605,0.1582,0.1549,0.1544,0.154,0.1523,0.1506,0.149,0.1562,0.1626,-0.3587,-0.3587,-0.3587,-0.3587,-0.3587,-0.3587,-0.3565,-0.3643,-0.3568,-0.3564,-0.3538,-0.357,-0.3587,-0.3587,-0.3587,-0.3587,-0.3587,-0.3587,-0.3587,-0.3587,-0.3587,-0.3587,-0.3587,-0.3587,-0.3587,-0.3587,-0.3587,-0.3587,-0.3587,-0.3587,-0.3587,-0.3587,-0.3587,-0.3587,-0.3587,-0.3589,-0.3601,-0.362,-0.3676,-0.3718,-0.3743,-0.3835,-0.3887,-0.3892,-0.3928,-0.395,-0.395,-0.395,-0.395,-0.395,-0.395,-0.395,-0.395,-0.395,-0.3942,-0.3927,-0.3924,-0.3917,-0.3892,-0.3854,-0.4069,-0.4298,-0.4623,-0.4819,-0.4913,-0.4789,-0.4406,-0.3544,-0.3079,-0.2614,-0.2024,-0.1795,-0.1683,-0.157,-0.1346,-0.1009,-0.0448,0.0336,0.0561,0.0336,0.0222,0.0219,-0.0,-0.0,0.0732,0.1016,0.1112,0.1214,0.1415,0.1212,0.0909,0.101,0.0808,0.0808,0.0909,0.1111,0.1212,0.1414,0.1516,0.1617,0.1617,0.1617,0.1617,0.1617,0.1617,0.1608,0.1585,0.1573,0.1568,0.1549,0.1528,0.1515,0.1507,0.1485,0.1547,-0.3587,-0.3587,-0.3587,-0.3587,-0.3587,-0.3587,-0.3567,-0.3649,-0.357,-0.3565,-0.3656,-0.357,-0.3587,-0.3587,-0.3587,-0.3587,-0.3587,-0.3587,-0.3587,-0.3587,-0.3587,-0.3587,-0.3587,-0.3587,-0.3587,-0.3587,-0.3587,-0.3587,-0.3587,-0.3587,-0.3587,-0.3587,-0.3587,-0.3587,-0.3587,-0.3587,-0.3587,-0.3595,-0.3647,-0.3679,-0.3699,-0.3775,-0.3826,-0.3833,-0.3864,-0.3894,-0.3914,-0.3917,-0.3928,-0.3946,-0.395,-0.395,-0.395,-0.395,-0.395,-0.395,-0.4073,-0.4071,-0.4069,-0.4278,-0.4378,-0.473,-0.5058,-0.5238,-0.5316,-0.5061,-0.49,-0.4232,-0.3638,-0.2946,-0.236,-0.1907,-0.1795,-0.1795,-0.1795,-0.157,-0.1121,-0.0224,0.0336,-0.0,-0.0,-0.0,-0.0,-0.0,-0.0,0.0409,0.0711,0.0813,0.1216,0.1111,0.101,0.0808,0.0707,0.0606,0.0505,0.0606,0.0808,0.1111,0.1415,0.1516,0.1617,0.1617,0.1617,0.1617,0.1617,0.1616,0.1597,0.1594,0.1588,0.1561,0.1529,0.1524,0.1513,0.1486,0.1458,-0.3587,-0.3587,-0.3587,-0.3587,-0.3587,-0.3587,-0.3585,-0.3585,-0.3586,-0.3585,-0.3585,-0.3585,-0.3587,-0.3587,-0.3587,-0.3587,-0.3587,-0.3587,-0.3587,-0.3587,-0.3587,-0.3587,-0.3587,-0.3587,-0.3587,-0.3587,-0.3587,-0.3587,-0.3587,-0.3587,-0.3587,-0.3587,-0.3587,-0.3587,-0.3587,-0.3587,-0.3587,-0.3595,-0.3642,-0.3668,-0.367,-0.3732,-0.3764,-0.3766,-0.3896,-0.393,-0.3861,-0.4,-0.3902,-0.3942,-0.395,-0.395,-0.395,-0.395,-0.395,-0.394,-0.4186,-0.4298,-0.4424,-0.4643,-0.4887,-0.5247,-0.5234,-0.5469,-0.5556,-0.576,-0.5586,-0.4872,-0.4281,-0.3708,-0.303,-0.2243,-0.1907,-0.1795,-0.1795,-0.1795,-0.1683,-0.0785,-0.0224,-0.0,-0.0,-0.0,-0.0,-0.0,-0.0,0.0103,0.0409,0.0715,0.1015,0.1111,0.1111,0.0909,0.0505,0.0101,-0.0101,-0.0202,-0.0,0.0606,0.0909,0.1111,0.1415,0.1516,0.1617,0.1617,0.1613,0.1613,0.1605,0.1593,0.1576,0.1545,0.1528,0.1528,0.1509,0.1478,0.1459,-0.3587,-0.3587,-0.3587,-0.3587,-0.3587,-0.3587,-0.3587,-0.3587,-0.3587,-0.3587,-0.3587,-0.3587,-0.3587,-0.3587,-0.3587,-0.3587,-0.3587,-0.3587,-0.3587,-0.3587,-0.3587,-0.3587,-0.3587,-0.3587,-0.3587,-0.3587,-0.3587,-0.3587,-0.3587,-0.3587,-0.3587,-0.3587,-0.3587,-0.3587,-0.3587,-0.3587,-0.3587,-0.3587,-0.3601,-0.3613,-0.3623,-0.3672,-0.3702,-0.3706,-0.3743,-0.3793,-0.3977,-0.4145,-0.4174,-0.3946,-0.395,-0.395,-0.395,-0.3947,-0.405,-0.4135,-0.4243,-0.4462,-0.4543,-0.4773,-0.489,-0.5245,-0.5379,-0.5461,-0.5894,-0.6001,-0.5822,-0.5268,-0.4674,-0.3855,-0.3147,-0.2354,-0.1907,-0.1795,-0.1795,-0.1795,-0.1795,-0.157,-0.1009,-0.0,-0.0,-0.0,-0.0,-0.0,-0.0,-0.0,-0.0,0.0509,0.081,0.0808,0.0707,0.0303,-0.0101,-0.0505,-0.0808,-0.101,-0.0707,-0.0101,0.0303,0.0505,0.101,0.1516,0.1516,0.1617,0.1604,0.1601,0.1579,0.1561,0.154,0.1532,0.1526,0.1523,0.1493,0.1463,0.1451,-0.3587,-0.3587,-0.3587,-0.3587,-0.3587,-0.3587,-0.3587,-0.3587,-0.3587,-0.3587,-0.3587,-0.3587,-0.3587,-0.3587,-0.3587,-0.3587,-0.3587,-0.3587,-0.3587,-0.3587,-0.3587,-0.3587,-0.3587,-0.3587,-0.3587,-0.3587,-0.3587,-0.3587,-0.3587,-0.3587,-0.3587,-0.3587,-0.3587,-0.3587,-0.3587,-0.3587,-0.3587,-0.3587,-0.3587,-0.3587,-0.3591,-0.362,-0.3635,-0.3644,-0.3679,-0.3837,-0.4018,-0.4197,-0.4254,-0.4298,-0.4318,-0.4319,-0.4438,-0.4412,-0.4258,-0.4335,-0.4553,-0.4751,-0.4838,-0.5059,-0.5176,-0.5412,-0.5412,-0.5743,-0.6067,-0.6288,-0.6244,-0.6028,-0.5338,-0.4747,-0.4158,-0.3137,-0.2243,-0.1907,-0.1795,-0.1795,-0.1795,-0.1795,-0.1458,-0.0897,-0.056,-0.0222,-0.0107,-0.0,-0.0,-0.0,-0.0,-0.0,0.0607,0.0404,0.0202,-0.0202,-0.0404,-0.0606,-0.0909,-0.1111,-0.1111,-0.0505,-0.0303,-0.0101,0.0404,0.101,0.1212,0.121,0.1399,0.1585,0.1572,0.1558,0.1545,0.1538,0.1529,0.1505,0.1474,0.1461,0.1447,-0.3587,-0.3587,-0.3587,-0.3587,-0.3587,-0.3587,-0.3587,-0.3587,-0.3587,-0.3587,-0.3587,-0.3587,-0.3587,-0.3587,-0.3587,-0.3587,-0.3587,-0.3587,-0.3587,-0.3587,-0.3587,-0.3587,-0.3587,-0.3587,-0.3587,-0.3587,-0.3587,-0.3587,-0.3587,-0.3587,-0.3587,-0.3587,-0.3587,-0.3587,-0.3587,-0.3587,-0.3587,-0.3587,-0.3587,-0.3587,-0.3587,-0.3595,-0.36,-0.3602,-0.3733,-0.399,-0.4274,-0.4449,-0.4529,-0.5018,-0.4908,-0.4894,-0.5133,-0.4958,-0.4681,-0.4537,-0.4843,-0.5042,-0.5265,-0.536,-0.5602,-0.5594,-0.5949,-0.617,-0.6205,-0.6524,-0.6716,-0.6631,-0.6158,-0.5493,-0.4817,-0.3808,-0.269,-0.2019,-0.1795,-0.1795,-0.1795,-0.1795,-0.1795,-0.1795,-0.1234,-0.0773,-0.0435,-0.0108,-0.0,-0.0,-0.0,-0.0,-0.0101,-0.0202,-0.0404,-0.0707,-0.0707,-0.0707,-0.0909,-0.1212,-0.1111,-0.0909,-0.0808,-0.0606,-0.0404,0.0101,0.0505,0.0805,0.1196,0.1492,0.1592,0.1577,0.1553,0.1529,0.151,0.1483,0.1455,0.1456,0.1448,-0.3587,-0.3587,-0.3587,-0.3587,-0.3587,-0.3587,-0.3587,-0.3587,-0.3587,-0.3587,-0.3587,-0.3587,-0.3587,-0.3587,-0.3587,-0.3587,-0.3587,-0.3587,-0.3587,-0.3587,-0.3587,-0.3587,-0.3587,-0.3587,-0.3587,-0.3587,-0.3587,-0.3587,-0.3587,-0.3587,-0.3587,-0.3587,-0.3587,-0.3587,-0.3587,-0.3587,-0.3587,-0.3587,-0.3587,-0.3587,-0.3587,-0.3587,-0.3587,-0.3591,-0.3855,-0.4229,-0.4719,-0.5133,-0.5424,-0.557,-0.5228,-0.4997,-0.5121,-0.4983,-0.4828,-0.4899,-0.4984,-0.5171,-0.5346,-0.5564,-0.5775,-0.579,-0.6139,-0.6331,-0.6537,-0.6646,-0.6855,-0.6824,-0.6267,-0.5373,-0.4143,-0.3473,-0.269,-0.2131,-0.1795,-0.1795,-0.1795,-0.1795,-0.1795,-0.1795,-0.1681,-0.1558,-0.1308,-0.0862,-0.0532,-0.0207,-0.041,-0.0813,-0.081,-0.0808,-0.0909,-0.101,-0.101,-0.0909,-0.1212,-0.1414,-0.1313,-0.1212,-0.1212,-0.1111,-0.0909,-0.0505,-0.0,0.0602,0.1194,0.1294,0.14,0.1567,0.1539,0.1515,0.1493,0.1378,0.1363,0.1363,0.145,-0.3587,-0.3587,-0.3587,-0.3587,-0.3587,-0.3587,-0.3587,-0.3587,-0.3587,-0.3587,-0.3587,-0.3587,-0.3587,-0.3587,-0.3587,-0.3587,-0.3587,-0.3587,-0.3587,-0.3587,-0.3587,-0.3587,-0.3587,-0.3587,-0.3587,-0.3587,-0.3587,-0.3587,-0.3587,-0.3587,-0.3587,-0.3587,-0.3587,-0.3587,-0.3587,-0.3587,-0.3587,-0.3587,-0.3587,-0.3587,-0.3587,-0.3587,-0.3699,-0.3814,-0.4183,-0.4655,-0.5111,-0.5486,-0.5855,-0.5976,-0.5637,-0.545,-0.5618,-0.5371,-0.5094,-0.5175,-0.535,-0.5435,-0.5613,-0.5938,-0.6165,-0.6047,-0.6272,-0.6495,-0.6715,-0.6826,-0.7046,-0.7046,-0.6599,-0.5706,-0.4032,-0.3808,-0.325,-0.2131,-0.1795,-0.1795,-0.1795,-0.1795,-0.1795,-0.1795,-0.1795,-0.1778,-0.1645,-0.1301,-0.1278,-0.094,-0.0517,-0.0923,-0.1113,-0.1111,-0.1111,-0.1212,-0.1111,-0.1212,-0.1415,-0.1516,-0.1516,-0.1516,-0.1415,-0.1415,-0.1313,-0.0808,-0.0404,0.01,0.05,0.1,0.11,0.127,0.1344,0.1234,0.1124,0.1195,0.127,0.1356,0.1353,-0.3587,-0.3587,-0.3587,-0.3587,-0.3587,-0.3587,-0.3587,-0.3587,-0.3587,-0.3587,-0.3587,-0.3587,-0.3587,-0.3587,-0.3587,-0.3587,-0.3587,-0.3587,-0.3587,-0.3587,-0.3587,-0.3587,-0.3587,-0.3587,-0.3587,-0.3587,-0.3587,-0.3587,-0.3587,-0.3587,-0.3587,-0.3587,-0.3587,-0.3587,-0.3587,-0.3699,-0.3699,-0.3587,-0.3699,-0.3699,-0.3587,-0.3699,-0.3811,-0.4372,-0.4711,-0.5164,-0.55,-0.5844,-0.6061,-0.6274,-0.6047,-0.6136,-0.6223,-0.5884,-0.5602,-0.5484,-0.5758,-0.5837,-0.5942,-0.6272,-0.6497,-0.6383,-0.6604,-0.6715,-0.6824,-0.7046,-0.7154,-0.7154,-0.6932,-0.6374,-0.4815,-0.4369,-0.3473,-0.2354,-0.1795,-0.1795,-0.1795,-0.1795,-0.1795,-0.1795,-0.1795,-0.1783,-0.1768,-0.164,-0.1717,-0.1583,-0.1151,-0.0931,-0.1123,-0.1314,-0.1314,-0.1314,-0.1212,-0.1313,-0.1516,-0.1617,-0.1617,-0.1617,-0.1617,-0.1617,-0.1516,-0.101,-0.0606,-0.0606,-0.0202,-0.0,-0.0,0.0789,0.0874,0.0766,0.0752,0.0737,0.091,0.117,0.1257,-0.3587,-0.3587,-0.3587,-0.3587,-0.3587,-0.3587,-0.3587,-0.3587,-0.3587,-0.3587,-0.3587,-0.3587,-0.3587,-0.3587,-0.3587,-0.3587,-0.3587,-0.3587,-0.3587,-0.3587,-0.3587,-0.3587,-0.3587,-0.3587,-0.3587,-0.3587,-0.3587,-0.3587,-0.3587,-0.3587,-0.3587,-0.3587,-0.3587,-0.3587,-0.3699,-0.3813,-0.3813,-0.3811,-0.3811,-0.3813,-0.3811,-0.3923,-0.4369,-0.4927,-0.5262,-0.5599,-0.6047,-0.6381,-0.6604,-0.6606,-0.6604,-0.6512,-0.6327,-0.5758,-0.5751,-0.5969,-0.5953,-0.6044,-0.6272,-0.6495,-0.6604,-0.6715,-0.6935,-0.7043,-0.7154,-0.7154,-0.7154,-0.7154,-0.7043,-0.6485,-0.4704,-0.448,-0.3586,-0.2466,-0.1795,-0.1795,-0.1795,-0.1795,-0.1795,-0.1795,-0.1794,-0.1793,-0.178,-0.1766,-0.1744,-0.1717,-0.1591,-0.1152,-0.1032,-0.1224,-0.1418,-0.1315,-0.1313,-0.1415,-0.1617,-0.1617,-0.1617,-0.1617,-0.1617,-0.1617,-0.1415,-0.1111,-0.0808,-0.0707,-0.0,-0.0,-0.0,-0.0,0.0588,0.0772,0.0472,-0.0,0.0456,0.0721,0.0808,-0.3587,-0.3587,-0.3587,-0.3587,-0.3587,-0.3587,-0.3587,-0.3587,-0.3587,-0.3587,-0.3587,-0.3587,-0.3587,-0.3587,-0.3587,-0.3587,-0.3587,-0.3587,-0.3587,-0.3587,-0.3587,-0.3587,-0.3587,-0.3587,-0.3587,-0.3699,-0.3701,-0.3701,-0.3587,-0.3587,-0.3587,-0.3587,-0.3587,-0.3699,-0.3813,-0.3924,-0.4036,-0.4035,-0.4147,-0.4258,-0.4147,-0.4482,-0.5037,-0.5371,-0.5819,-0.6267,-0.6492,-0.6824,-0.6824,-0.6715,-0.6715,-0.6604,-0.6383,-0.6161,-0.594,-0.6274,-0.627,-0.6267,-0.6495,-0.6715,-0.6935,-0.6935,-0.7154,-0.7154,-0.7154,-0.7154,-0.7154,-0.7154,-0.7154,-0.671,-0.5373,-0.4814,-0.3808,-0.2802,-0.2131,-0.1795,-0.1795,-0.1795,-0.1795,-0.1795,-0.1795,-0.1794,-0.1793,-0.178,-0.1767,-0.1746,-0.1723,-0.1485,-0.1148,-0.1237,-0.153,-0.1417,-0.1414,-0.1415,-0.1617,-0.1617,-0.1617,-0.1617,-0.1516,-0.1516,-0.1516,-0.1111,-0.0808,-0.0505,-0.0,-0.0,-0.0,-0.0,-0.0,-0.0,-0.0,-0.0,-0.0,0.0181,-0.0,-0.3587,-0.3587,-0.3587,-0.3587,-0.3587,-0.3587,-0.3587,-0.3587,-0.3587,-0.3587,-0.3587,-0.3587,-0.3587,-0.3587,-0.3587,-0.3587,-0.3587,-0.3587,-0.3587,-0.3587,-0.3587,-0.3587,-0.3587,-0.3699,-0.3701,-0.3813,-0.4035,-0.3924,-0.3813,-0.3811,-0.381,-0.381,-0.3811,-0.3923,-0.4036,-0.426,-0.437,-0.4369,-0.4592,-0.4592,-0.4815,-0.5148,-0.5483,-0.5706,-0.6379,-0.6712,-0.6824,-0.7043,-0.7046,-0.6935,-0.6824,-0.6826,-0.672,-0.6609,-0.6495,-0.6495,-0.6604,-0.6715,-0.6824,-0.7046,-0.7157,-0.7154,-0.7154,-0.7154,-0.7154,-0.7154,-0.7154,-0.7154,-0.7154,-0.6821,-0.5819,-0.5037,-0.4143,-0.3138,-0.2354,-0.1795,-0.1795,-0.1795,-0.1795,-0.1795,-0.1795,-0.1795,-0.1794,-0.1793,-0.178,-0.1768,-0.1745,-0.1501,-0.1266,-0.1458,-0.1647,-0.1626,-0.1516,-0.1516,-0.1617,-0.1617,-0.1617,-0.1617,-0.1516,-0.1415,-0.1415,-0.1313,-0.101,-0.0707,-0.0,-0.0,-0.0,-0.0,-0.0,-0.0,-0.0,-0.0,-0.0,-0.0,-0.0,-0.3587,-0.3587,-0.3587,-0.3587,-0.3587,-0.3587,-0.3587,-0.3587,-0.3587,-0.3587,-0.3699,-0.3587,-0.3587,-0.3587,-0.3587,-0.3587,-0.3587,-0.3587,-0.3587,-0.3587,-0.3699,-0.3699,-0.3699,-0.3813,-0.3924,-0.4036,-0.4258,-0.4258,-0.4148,-0.4257,-0.4369,-0.4369,-0.4257,-0.448,-0.448,-0.4594,-0.4706,-0.4592,-0.4817,-0.5039,-0.526,-0.5373,-0.5819,-0.6379,-0.6604,-0.6824,-0.7043,-0.7154,-0.7154,-0.7154,-0.7154,-0.7157,-0.7157,-0.7157,-0.7154,-0.7043,-0.6932,-0.6824,-0.7043,-0.7154,-0.7154,-0.7154,-0.7154,-0.7154,-0.7154,-0.7154,-0.7154,-0.7154,-0.7154,-0.6932,-0.6042,-0.5037,-0.4143,-0.3249,-0.2467,-0.1907,-0.1795,-0.1795,-0.1795,-0.1795,-0.1795,-0.1795,-0.1795,-0.1795,-0.1793,-0.1781,-0.1765,-0.1516,-0.1381,-0.1566,-0.165,-0.1626,-0.1617,-0.1617,-0.1617,-0.1617,-0.1617,-0.1617,-0.1414,-0.1212,-0.101,-0.101,-0.1415,-0.101,-0.0505,-0.0,-0.0,-0.0,-0.0,-0.0,-0.0,-0.0,-0.0,-0.0,-0.0,-0.3923,-0.3587,-0.3701,-0.3701,-0.3587,-0.3587,-0.3587,-0.3587,-0.3587,-0.3813,-0.4038,-0.3701,-0.3587,-0.3587,-0.3587,-0.3587,-0.3587,-0.3701,-0.3701,-0.3811,-0.3921,-0.4145,-0.4145,-0.4258,-0.4258,-0.437,-0.4592,-0.4706,-0.4594,-0.4482,-0.448,-0.448,-0.4592,-0.4702,-0.4925,-0.515,-0.5373,-0.5487,-0.5603,-0.5712,-0.5935,-0.6044,-0.6265,-0.6712,-0.6824,-0.7046,-0.7157,-0.7154,-0.7154,-0.7154,-0.7154,-0.7154,-0.7154,-0.7154,-0.7154,-0.7154,-0.7043,-0.7046,-0.7154,-0.7154,-0.7154,-0.7154,-0.7154,-0.7154,-0.7154,-0.7154,-0.7154,-0.7154,-0.7154,-0.6932,-0.6376,-0.526,-0.459,-0.3696,-0.269,-0.2131,-0.1795,-0.1795,-0.1795,-0.1795,-0.1795,-0.1795,-0.1795,-0.1795,-0.1789,-0.1773,-0.1755,-0.1619,-0.1583,-0.1546,-0.1634,-0.1621,-0.1617,-0.1617,-0.1617,-0.1617,-0.1617,-0.1516,-0.1111,-0.0909,-0.0404,-0.0505,-0.0909,-0.1111,-0.0606,-0.0,-0.0,-0.0,-0.0,-0.0,-0.0,-0.0,-0.0,-0.0,-0.0,-0.4369,-0.3811,-0.4036,-0.4035,-0.381,-0.3698,-0.3586,-0.3586,-0.381,-0.4036,-0.4038,-0.3813,-0.3587,-0.3587,-0.3587,-0.3699,-0.3701,-0.3924,-0.3924,-0.4033,-0.4257,-0.4706,-0.4817,-0.4929,-0.4815,-0.4815,-0.5152,-0.5266,-0.5266,-0.5152,-0.5039,-0.4814,-0.5039,-0.5262,-0.5485,-0.5708,-0.5822,-0.6049,-0.6161,-0.6272,-0.6381,-0.6604,-0.6715,-0.6824,-0.7043,-0.7154,-0.7154,-0.7154,-0.7154,-0.7154,-0.7154,-0.7154,-0.7154,-0.7154,-0.7154,-0.7154,-0.7154,-0.7154,-0.7154,-0.7154,-0.7154,-0.7154,-0.7154,-0.7154,-0.7154,-0.7154,-0.7154,-0.7154,-0.7154,-0.7154,-0.6932,-0.5708,-0.4927,-0.4033,-0.3138,-0.2466,-0.1907,-0.1795,-0.1795,-0.1795,-0.1795,-0.1795,-0.1795,-0.1795,-0.1785,-0.1767,-0.1744,-0.172,-0.1681,-0.1637,-0.1625,-0.1617,-0.1617,-0.1617,-0.1617,-0.1617,-0.1617,-0.1515,-0.111,-0.0606,-0.0202,-0.0101,-0.0404,-0.0404,-0.0,-0.0,-0.0,-0.0,-0.0,-0.0,-0.0,-0.0,-0.0,-0.0,-0.0,-0.5043,-0.448,-0.4479,-0.448,-0.4367,-0.3807,-0.3582,-0.3695,-0.4255,-0.4258,-0.3923,-0.3699,-0.3699,-0.3699,-0.3699,-0.3813,-0.4038,-0.4038,-0.4147,-0.4369,-0.4592,-0.5154,-0.5491,-0.5601,-0.5485,-0.5599,-0.5824,-0.6049,-0.6163,-0.5938,-0.5824,-0.5712,-0.5824,-0.6049,-0.6161,-0.6158,-0.627,-0.6383,-0.6383,-0.6495,-0.6604,-0.6715,-0.6824,-0.7046,-0.7154,-0.7154,-0.7154,-0.7154,-0.7154,-0.7154,-0.7154,-0.7154,-0.7154,-0.7154,-0.7154,-0.7154,-0.7154,-0.7154,-0.7154,-0.7154,-0.7154,-0.7154,-0.7154,-0.7154,-0.7154,-0.7154,-0.7154,-0.7154,-0.7154,-0.7154,-0.6932,-0.6265,-0.5262,-0.448,-0.3585,-0.2691,-0.2131,-0.1795,-0.1795,-0.1795,-0.1791,-0.1785,-0.1777,-0.1773,-0.1778,-0.1762,-0.1728,-0.1703,-0.167,-0.1633,-0.1623,-0.1617,-0.1617,-0.1617,-0.1617,-0.1617,-0.1617,-0.1511,-0.1307,-0.0704,-0.0101,-0.0,-0.0,-0.0,-0.0,-0.0,-0.0,-0.0,-0.0,-0.0,-0.0,-0.0,-0.0,-0.0,-0.0,-0.6044,-0.6151,-0.5817,-0.5148,-0.448,-0.425,-0.4139,-0.4365,-0.5596,-0.5599,-0.4702,-0.4369,-0.4145,-0.4145,-0.3923,-0.4036,-0.4258,-0.4484,-0.4594,-0.4704,-0.5039,-0.5712,-0.6051,-0.6163,-0.6047,-0.6158,-0.6272,-0.6272,-0.6274,-0.6495,-0.6495,-0.6381,-0.6383,-0.6383,-0.6492,-0.6715,-0.6826,-0.6826,-0.6826,-0.6935,-0.6935,-0.7046,-0.7046,-0.7154,-0.7154,-0.7154,-0.7154,-0.7154,-0.7154,-0.7154,-0.7154,-0.7154,-0.7154,-0.7154,-0.7154,-0.7154,-0.7154,-0.7154,-0.7154,-0.7154,-0.7154,-0.7154,-0.7154,-0.7154,-0.7154,-0.7154,-0.7154,-0.7154,-0.7154,-0.7154,-0.7043,-0.6262,-0.526,-0.4814,-0.4032,-0.3026,-0.2355,-0.2019,-0.1789,-0.1787,-0.1774,-0.1763,-0.1755,-0.1746,-0.1754,-0.1756,-0.172,-0.1684,-0.1652,-0.163,-0.1622,-0.1617,-0.1617,-0.1617,-0.1617,-0.1617,-0.1617,-0.151,-0.1404,-0.0802,-0.0,-0.0,-0.0,-0.0,-0.0,-0.0,-0.0,-0.0,-0.0,-0.0,-0.0,-0.0,-0.0,-0.0,-0.0,-0.6818,-0.7154,-0.6599,-0.604,-0.526,-0.4918,-0.5031,-0.5483,-0.6601,-0.6604,-0.5483,-0.5037,-0.4815,-0.4594,-0.4594,-0.4594,-0.4927,-0.5041,-0.4929,-0.5152,-0.5487,-0.6158,-0.6383,-0.6495,-0.6495,-0.6495,-0.6604,-0.6604,-0.6604,-0.6826,-0.6826,-0.6715,-0.6717,-0.6715,-0.6824,-0.7043,-0.7154,-0.7154,-0.7154,-0.7154,-0.7154,-0.7154,-0.7154,-0.7154,-0.7154,-0.7154,-0.7154,-0.7154,-0.7154,-0.7154,-0.7154,-0.7154,-0.7154,-0.7154,-0.7154,-0.7154,-0.7154,-0.7154,-0.7154,-0.7154,-0.7154,-0.7154,-0.7154,-0.7154,-0.7154,-0.7154,-0.7154,-0.7154,-0.7154,-0.7154,-0.7154,-0.6376,-0.5706,-0.5148,-0.4142,-0.3249,-0.2579,-0.2131,-0.2008,-0.1778,-0.1763,-0.1749,-0.1732,-0.1722,-0.1716,-0.172,-0.1699,-0.1666,-0.1637,-0.1622,-0.162,-0.1617,-0.1617,-0.1617,-0.1617,-0.1617,-0.1617,-0.1615,-0.1408,-0.09,-0.0,-0.0,-0.0,-0.0,-0.0,-0.0,-0.0,-0.0,-0.0,-0.0,-0.0,-0.0,-0.0,-0.0,-0.0,-0.7154,-0.7154,-0.6824,-0.6824,-0.693,-0.5919,-0.6033,-0.6821,-0.7157,-0.6824,-0.5931,-0.5708,-0.5375,-0.5152,-0.515,-0.5373,-0.5599,-0.571,-0.5596,-0.5596,-0.5935,-0.6609,-0.6831,-0.694,-0.6826,-0.7157,-0.7046,-0.7046,-0.7046,-0.7046,-0.7157,-0.7157,-0.7046,-0.7043,-0.7154,-0.7154,-0.7154,-0.7154,-0.7154,-0.7154,-0.7154,-0.7154,-0.7154,-0.7154,-0.7154,-0.7154,-0.7154,-0.7154,-0.7154,-0.7154,-0.7154,-0.7154,-0.7154,-0.7154,-0.7154,-0.7154,-0.7154,-0.7154,-0.7154,-0.7154,-0.7154,-0.7154,-0.7154,-0.7154,-0.7154,-0.7154,-0.7154,-0.7154,-0.7154,-0.7154,-0.7046,-0.6824,-0.6156,-0.5485,-0.4479,-0.3473,-0.2915,-0.2131,-0.1898,-0.1774,-0.1757,-0.1739,-0.1717,-0.1699,-0.1684,-0.1676,-0.1667,-0.1648,-0.1624,-0.1617,-0.1617,-0.1617,-0.1617,-0.1617,-0.1617,-0.1617,-0.1616,-0.1616,-0.1307,-0.0698,-0.0,-0.0,-0.0,-0.0,-0.0,-0.0,-0.0,-0.0,-0.0,-0.0,-0.0,-0.0,-0.0,-0.0,-0.0,-0.7934,-0.8269,-0.7823,-0.7823,-0.8156,-0.7152,-0.6818,-0.7268,-0.7835,-0.7838,-0.6937,-0.649,-0.6047,-0.5824,-0.571,-0.5933,-0.6158,-0.6158,-0.6047,-0.6047,-0.6381,-0.6717,-0.7051,-0.7049,-0.7046,-0.7154,-0.7154,-0.7154,-0.7154,-0.7154,-0.7154,-0.7154,-0.7154,-0.7154,-0.7154,-0.7154,-0.7154,-0.7154,-0.7154,-0.7154,-0.7154,-0.7154,-0.7154,-0.7154,-0.7154,-0.7154,-0.7154,-0.7154,-0.7154,-0.7154,-0.7154,-0.7154,-0.7154,-0.7154,-0.7154,-0.7154,-0.7154,-0.7154,-0.7154,-0.7154,-0.7154,-0.7154,-0.7154,-0.7154,-0.7154,-0.7154,-0.7154,-0.7154,-0.7154,-0.7154,-0.7154,-0.6715,-0.6161,-0.5712,-0.4929,-0.3921,-0.3139,-0.2355,-0.1789,-0.1773,-0.1757,-0.1707,-0.1676,-0.1682,-0.1673,-0.1663,-0.1658,-0.1644,-0.1623,-0.1618,-0.1617,-0.1617,-0.1617,-0.1617,-0.1617,-0.1617,-0.1415,-0.1313,-0.09,-0.0296,-0.0,-0.0,-0.0,-0.0,-0.0,-0.0,-0.0,-0.0,-0.0,-0.0,-0.0,0.0701,-0.0,-0.0,-0.0,-0.8491,-0.8826,-0.838,-0.8488,-0.8716,-0.7706,-0.7374,-0.7826,-0.8618,-0.8507,-0.7715,-0.7265,-0.6932,-0.6826,-0.6715,-0.6601,-0.6829,-0.6829,-0.6601,-0.6715,-0.6824,-0.7049,-0.716,-0.716,-0.7157,-0.7154,-0.7154,-0.7154,-0.7154,-0.7154,-0.7154,-0.7154,-0.7154,-0.7154,-0.7154,-0.7154,-0.7154,-0.7154,-0.7154,-0.7154,-0.7154,-0.7154,-0.7154,-0.7154,-0.7154,-0.7154,-0.7154,-0.7154,-0.7154,-0.7154,-0.7154,-0.7154,-0.7154,-0.7154,-0.7154,-0.7154,-0.7154,-0.7154,-0.7154,-0.7154,-0.7154,-0.7154,-0.7154,-0.7154,-0.7154,-0.7154,-0.7154,-0.7154,-0.7154,-0.7046,-0.6935,-0.6495,-0.6161,-0.5826,-0.5041,-0.4147,-0.3587,-0.2802,-0.2122,-0.2104,-0.1752,-0.1697,-0.1656,-0.1658,-0.1665,-0.1657,-0.165,-0.1637,-0.1624,-0.162,-0.1415,-0.1313,-0.1313,-0.1313,-0.1415,-0.1617,-0.1414,-0.1111,-0.0,-0.0,-0.0,-0.0,-0.0,-0.0,-0.0,-0.0,-0.0,-0.0,-0.0,-0.0,-0.0,0.0789,0.1487,0.1197,0.0802,-0.8937,-0.8826,-0.8598,-0.8598,-0.8712,-0.7814,-0.7925,-0.883,-0.883,-0.8605,-0.8045,-0.8263,-0.7934,-0.7604,-0.7823,-0.7823,-0.7823,-0.7604,-0.7376,-0.7152,-0.7154,-0.7268,-0.7157,-0.7154,-0.7154,-0.7154,-0.7265,-0.7265,-0.7265,-0.7268,-0.7268,-0.7154,-0.7154,-0.7154,-0.7154,-0.7154,-0.7154,-0.7154,-0.7154,-0.7154,-0.7154,-0.7154,-0.7154,-0.7154,-0.7154,-0.7154,-0.7154,-0.7154,-0.7154,-0.7154,-0.7154,-0.7154,-0.7154,-0.7154,-0.7154,-0.7154,-0.7154,-0.7154,-0.7154,-0.7154,-0.7154,-0.7154,-0.7154,-0.7154,-0.7154,-0.7154,-0.7154,-0.7154,-0.7043,-0.6935,-0.6715,-0.6381,-0.6158,-0.5599,-0.5039,-0.448,-0.4257,-0.3578,-0.2894,-0.2433,-0.1977,-0.1831,-0.1695,-0.1687,-0.168,-0.167,-0.1663,-0.1648,-0.1635,-0.162,-0.1314,-0.0808,-0.0808,-0.101,-0.0,-0.0,-0.101,-0.0606,-0.0,-0.0,-0.0,-0.0,-0.0,-0.0,-0.0,-0.0,-0.0,-0.0,-0.0,-0.0,-0.0,0.0492,0.0895,0.1302,0.1103,-0.8937,-0.8937,-0.8823,-0.8823,-0.8826,-0.8488,-0.8602,-0.8937,-0.8937,-0.8716,-0.8602,-0.8484,-0.8266,-0.7937,-0.7934,-0.8048,-0.7934,-0.7823,-0.7598,-0.7487,-0.7376,-0.7379,-0.7268,-0.7265,-0.7265,-0.7265,-0.7268,-0.7379,-0.7493,-0.7493,-0.7379,-0.7265,-0.7268,-0.7265,-0.7154,-0.7154,-0.7154,-0.7154,-0.7154,-0.7154,-0.7154,-0.7154,-0.7154,-0.7154,-0.7154,-0.7154,-0.7154,-0.7154,-0.7154,-0.7154,-0.7154,-0.7154,-0.7154,-0.7154,-0.7154,-0.7154,-0.7154,-0.7154,-0.7154,-0.7154,-0.7154,-0.7154,-0.7154,-0.7154,-0.7154,-0.7154,-0.7043,-0.6935,-0.6824,-0.6715,-0.6492,-0.6158,-0.5935,-0.5601,-0.5041,-0.4706,-0.4482,-0.4029,-0.3343,-0.267,-0.2208,-0.1968,-0.1832,-0.1715,-0.1707,-0.1693,-0.1679,-0.1664,-0.1644,-0.1628,-0.1213,-0.0606,-0.0,-0.0,-0.0,-0.0,-0.0,-0.0,-0.0,-0.0,-0.0,-0.0,-0.0,-0.0,-0.0,-0.0,-0.0,-0.0,-0.0,-0.0,-0.0,-0.0,0.0398,0.0803,0.1099,-0.8937,-0.8937,-0.8937,-0.8937,-0.8937,-0.8937,-0.8937,-0.8937,-0.8937,-0.8937,-0.8937,-0.8712,-0.8488,-0.838,-0.8266,-0.8266,-0.838,-0.7937,-0.7826,-0.8048,-0.7715,-0.7712,-0.7598,-0.7598,-0.7598,-0.749,-0.749,-0.7604,-0.7607,-0.7607,-0.7493,-0.7268,-0.7268,-0.7268,-0.7268,-0.7154,-0.7154,-0.7154,-0.7154,-0.7154,-0.7154,-0.7154,-0.7154,-0.7154,-0.7154,-0.7154,-0.7154,-0.7154,-0.7154,-0.7154,-0.7154,-0.7154,-0.7154,-0.7154,-0.7154,-0.7154,-0.7154,-0.7154,-0.7154,-0.7154,-0.7154,-0.7157,-0.7157,-0.7157,-0.7046,-0.6935,-0.6824,-0.6826,-0.6604,-0.6383,-0.6158,-0.5933,-0.5824,-0.5603,-0.5266,-0.4931,-0.4594,-0.4258,-0.3695,-0.3022,-0.2559,-0.2316,-0.208,-0.1853,-0.1627,-0.1509,-0.1496,-0.1691,-0.1662,-0.1632,-0.1013,-0.0303,-0.0,-0.0,-0.0,-0.0,-0.0,-0.0,-0.0,-0.0,-0.0,-0.0,-0.0,-0.0,-0.0,-0.0,-0.0,-0.0,-0.0,-0.0,-0.0,-0.0,-0.0,0.0302,0.0596,-0.8937,-0.8937,-0.8937,-0.8937,-0.8937,-0.8937,-0.8937,-0.8937,-0.8937,-0.8937,-0.8937,-0.8937,-0.8826,-0.8716,-0.8598,-0.8598,-0.8602,-0.8273,-0.8273,-0.883,-0.8159,-0.7934,-0.8042,-0.8042,-0.7823,-0.7934,-0.7937,-0.7823,-0.7718,-0.7715,-0.7715,-0.7379,-0.7493,-0.7493,-0.7382,-0.7376,-0.7376,-0.7268,-0.7268,-0.7268,-0.7265,-0.7154,-0.7154,-0.7154,-0.7154,-0.7154,-0.7154,-0.7154,-0.7154,-0.7154,-0.7154,-0.7154,-0.7154,-0.7154,-0.7154,-0.7154,-0.7154,-0.7154,-0.7154,-0.7154,-0.7154,-0.7157,-0.7163,-0.7049,-0.6937,-0.6715,-0.6717,-0.6492,-0.627,-0.6049,-0.5824,-0.5712,-0.5603,-0.5491,-0.538,-0.5156,-0.5044,-0.4596,-0.3921,-0.3249,-0.2797,-0.2443,-0.2221,-0.199,-0.1764,-0.1426,-0.1086,-0.1288,-0.1482,-0.1449,-0.0,-0.0,-0.0,-0.0,-0.0,-0.0,-0.0,-0.0,-0.0,-0.0,-0.0,-0.0,-0.0,-0.0,-0.0,-0.0,-0.0,-0.0,-0.0,-0.0,-0.0,-0.0,-0.0,-0.0,-0.0,-0.8937,-0.8937,-0.8937,-0.8937,-0.8937,-0.8937,-0.8937,-0.8937,-0.8937,-0.8937,-0.8937,-0.8937,-0.8937,-0.8826,-0.8823,-0.8823,-0.8716,-0.8494,-0.8602,-0.8602,-0.8266,-0.8156,-0.8152,-0.8156,-0.8048,-0.8048,-0.8045,-0.8152,-0.8156,-0.8156,-0.8159,-0.8048,-0.8048,-0.7826,-0.7715,-0.7712,-0.7601,-0.7493,-0.7493,-0.7379,-0.7265,-0.7265,-0.7154,-0.7154,-0.7154,-0.7265,-0.7265,-0.7154,-0.7154,-0.7154,-0.7154,-0.7154,-0.7154,-0.7154,-0.7154,-0.7154,-0.7154,-0.7154,-0.7154,-0.7154,-0.7154,-0.7157,-0.716,-0.694,-0.6829,-0.6717,-0.6495,-0.6158,-0.5935,-0.5712,-0.5603,-0.5603,-0.5493,-0.5493,-0.5382,-0.5382,-0.5382,-0.4821,-0.4147,-0.3587,-0.3029,-0.2692,-0.2468,-0.2017,-0.1791,-0.1333,-0.055,-0.0544,-0.0866,-0.0,-0.0,-0.0,-0.0,-0.0,-0.0,-0.0,-0.0,-0.0,-0.0,-0.0,-0.0,-0.0,-0.0,-0.0,-0.0,-0.0,-0.0,-0.0,-0.0,-0.0,-0.0,-0.0,-0.0,-0.0,-0.0,-0.8937,-0.8937,-0.8937,-0.8937,-0.8937,-0.8937,-0.8937,-0.8937,-0.8937,-0.8937,-0.8937,-0.8937,-0.8937,-0.8826,-0.8823,-0.8823,-0.8826,-0.8605,-0.8605,-0.8598,-0.8595,-0.8488,-0.838,-0.838,-0.8491,-0.838,-0.8266,-0.8374,-0.8484,-0.8484,-0.8374,-0.8377,-0.8152,-0.8156,-0.8048,-0.8045,-0.7937,-0.7826,-0.7826,-0.7712,-0.7487,-0.7376,-0.7268,-0.7268,-0.7268,-0.7268,-0.7268,-0.7268,-0.7154,-0.7154,-0.7154,-0.7154,-0.7154,-0.7154,-0.7154,-0.7154,-0.7154,-0.7154,-0.7154,-0.7154,-0.7154,-0.7157,-0.694,-0.672,-0.6495,-0.6274,-0.6049,-0.5824,-0.5712,-0.5491,-0.5493,-0.5493,-0.5493,-0.5382,-0.5382,-0.5382,-0.527,-0.4933,-0.4482,-0.4145,-0.3587,-0.3027,-0.2467,-0.1121,-0.0896,-0.0784,-0.0111,-0.0,-0.0,-0.0,-0.0,-0.0,-0.0,-0.0,-0.0,-0.0,-0.0,-0.0,-0.0,-0.0,-0.0,-0.0,-0.0,-0.0,-0.0,-0.0,-0.0,-0.0,-0.0,-0.0,-0.0,-0.0,-0.0,-0.0,-0.0,-0.8937,-0.8937,-0.8937,-0.8937,-0.8937,-0.8937,-0.8937,-0.8937,-0.8937,-0.8937,-0.8937,-0.8937,-0.8937,-0.8823,-0.8709,-0.8823,-0.8716,-0.8605,-0.8605,-0.8712,-0.8709,-0.8712,-0.8712,-0.8826,-0.8826,-0.8712,-0.8598,-0.8598,-0.8598,-0.8595,-0.8595,-0.8371,-0.8371,-0.8484,-0.8371,-0.8263,-0.8159,-0.8045,-0.8045,-0.8045,-0.782,-0.7598,-0.7601,-0.7493,-0.7493,-0.7487,-0.749,-0.7493,-0.7376,-0.7268,-0.7379,-0.7268,-0.7268,-0.7268,-0.7154,-0.7154,-0.7154,-0.7154,-0.7154,-0.7154,-0.7154,-0.7157,-0.6831,-0.65,-0.6274,-0.6049,-0.5826,-0.5603,-0.5491,-0.5382,-0.5382,-0.5382,-0.5382,-0.5382,-0.5382,-0.5382,-0.527,-0.5044,-0.4706,-0.448,-0.3923,-0.3251,-0.2354,-0.1009,-0.0561,-0.0336,-0.0,-0.0,-0.0,-0.0,-0.0,-0.0,-0.0,-0.0,-0.0,-0.0,-0.0,-0.0,-0.0,-0.0,-0.0,-0.0,-0.0,-0.0,-0.0,-0.0,-0.0,-0.0,-0.0,-0.0,-0.0,-0.0,-0.0,-0.0,-0.0,-0.8937,-0.8937,-0.8937,-0.8937,-0.8937,-0.8937,-0.8937,-0.8937,-0.8937,-0.8937,-0.8937,-0.8937,-0.8937,-0.8937,-0.8826,-0.8937,-0.8826,-0.8605,-0.8716,-0.8826,-0.8823,-0.8826,-0.8937,-0.8937,-0.8937,-0.8826,-0.8823,-0.8826,-0.8712,-0.8823,-0.8709,-0.8484,-0.8709,-0.8709,-0.8484,-0.8488,-0.8602,-0.8488,-0.8377,-0.8266,-0.8045,-0.7934,-0.7934,-0.7934,-0.7823,-0.7823,-0.7934,-0.7934,-0.7823,-0.7823,-0.7604,-0.7604,-0.7493,-0.7379,-0.7379,-0.7376,-0.7376,-0.7265,-0.7379,-0.7268,-0.7268,-0.7268,-0.694,-0.6831,-0.6495,-0.6161,-0.5935,-0.5712,-0.5601,-0.5382,-0.5382,-0.5382,-0.5382,-0.5382,-0.5382,-0.5382,-0.527,-0.4931,-0.4592,-0.4258,-0.3926,-0.359,-0.3255,-0.2244,-0.157,-0.1234,-0.0785,-0.0,-0.0,-0.0,-0.0,-0.0,-0.0,-0.0,-0.0,-0.0,-0.0,-0.0,-0.0,-0.0,-0.0,-0.0,-0.0,-0.0,-0.0,-0.0,-0.0,-0.0,-0.0,-0.0,-0.0,-0.0,-0.0,-0.0,-0.0]},{"header":{"parameterUnit":"m.s-1","parameterCategory":1,"la1":31.0,"la2":29.5877,"lo1":-88.7671,"lo2":-86.6584,"dy":0.0162,"dx":0.0185,"nx":115,"ny":88,"refTime":"2023-07-30T06:00:00:Z","depth":0,"parameterNumber":3,"parameterNumberName":"V-component_of_WINDS"},"data":[0.0,0.0,0.0,0.0,0.0,0.0,0.0,0.0,0.0,0.0,0.0,0.0,0.0,0.0,0.0,0.0,0.0,0.0,0.0,0.0,0.0,0.0,0.0,0.0,0.0,0.0,0.0,0.0,0.0,0.0,0.0,0.0,0.0,0.0,0.0,0.0,0.0,0.0,0.0,0.0,0.0,0.0,0.0,0.0,0.0,0.0,0.0,0.0,0.0,0.0,0.0,0.0,0.0,0.0,0.0,0.0,0.0,0.0,0.0,0.0,0.0,0.0,0.0,0.0,0.0,0.0,0.0,0.0,0.0,0.0,0.0,0.0,0.0,0.0,0.0,0.0,0.0,0.0,0.0,0.0,0.0,0.0,0.0,0.0,0.0,0.0,0.0,0.0,0.0,0.0,0.0,0.0,0.0,0.0,0.0,0.0,0.0,0.0,0.0,0.0,0.0,0.0,0.0,0.0,0.0,0.0,0.0,0.0,0.0,0.0,0.0,0.0,0.0,0.0,0.0,0.0,0.0,0.0,0.0,0.0,0.0,0.0,0.0,0.0,0.0,0.0,0.0,0.0,0.0,0.0,0.0,0.0,0.0,0.0,0.0,0.0,0.0,0.0,0.0,0.0,0.0,0.0,0.0,0.0,0.0,0.0,0.0,0.0,0.0,0.0,0.0,0.0,0.0,0.0,0.0,0.0,0.0,0.0,0.0,0.0,0.0,0.0,0.0,0.0,0.0,0.0,0.0,0.0,0.0,0.0,0.0,0.0,0.0,0.0,0.0,0.0,0.0,0.0,0.0,0.0,0.0,0.0,0.0,0.0,0.0,0.0,0.0,0.0,0.0,0.0,0.0,0.0,0.0,0.0,0.0,0.0,0.0,0.0,0.0,0.0,0.0,0.0,0.0,0.0,0.0,0.0,0.0,0.0,0.0,0.0,0.0,0.0,0.0,0.0,0.0,0.0,0.0,0.0,0.0,0.0,0.0,0.0,0.0,0.0,0.0,0.0,0.0,0.0,0.0,0.0,0.0,0.0,0.0,0.0,0.0,0.0,0.0,0.0,0.0,0.0,0.0,0.0,0.0,0.0,0.0,0.0,0.0,0.0,0.0,0.0,0.0,0.0,0.0,0.0,0.0,0.0,0.0,0.0,0.0,0.0,0.0,0.0,0.0,0.0,0.0,0.0,0.0,0.0,0.0,0.0,0.0,0.0,0.0,0.0,0.0,0.0,0.0,0.0,0.0,0.0,0.0,0.0,0.0,0.0,0.0,0.0,0.0,0.0,0.0,0.0,0.0,0.0,0.0,0.0,0.0,0.0,0.0,0.0,0.0,0.0,0.0,0.0,0.0,0.0,0.0,0.0,0.0,0.0,0.0,0.0,0.0,0.0,0.0,0.0,0.0,0.0,0.0,0.0,0.0,0.0,0.0,0.0,0.0,0.0,0.0,0.0,0.0,0.0,0.0,0.0,0.0,0.0,0.0,0.0,0.0,0.0,0.0,0.0,0.0,0.0,0.0,0.0,0.0,0.0,0.0,0.0,0.0,0.0,0.0,0.0,0.0,0.0,0.0,0.0,0.0,0.0,0.0,0.0,0.0,0.0,0.0,0.0,0.0,0.0,0.0,0.0,0.0,0.0,0.0,0.0,0.0,0.0,0.0,0.0,0.0,0.0,0.0,0.0,0.0,0.0,0.0,0.0,0.0,0.0,0.0,0.0,0.0,0.0,0.0,0.0,0.0,0.0,0.0,0.0,0.0,0.0,0.0,0.0,0.0,0.0,0.0,0.0,0.0,0.0,0.0,0.0,0.0,0.0,0.0,0.0,0.0,0.0,0.0,0.0,0.0,0.0,0.0,0.0,0.0,0.0,0.0,0.0,0.0,0.0,0.0,0.0,0.0,0.0,0.0,0.0,0.0,0.0,0.0,0.0,0.0,0.0,0.0,0.0,0.0,0.0,0.0,0.0,0.0,0.0,0.0,0.0,0.0,0.0,0.0,0.0,0.0,0.0,0.0,0.0,0.0,0.0,0.0,0.0,0.0,0.0,0.0,0.0,0.0,0.0,0.0,0.0,0.0,0.0,0.0,0.0,0.0,0.0,0.0,0.0,0.0,0.0,0.0,0.0,0.0,0.0,0.0,0.0,0.0,0.0,0.0,0.0,0.0,0.0,0.0,0.0,0.0,0.0,0.0,0.0,0.0,0.0,0.0,0.0,0.0,0.0,0.0,0.0,0.0,0.0,0.0,0.0,0.0,0.0,0.0,0.0,0.0,0.0,0.0,0.0,0.0,0.0,0.0,0.0,0.0,0.0,0.0,0.0,0.0,0.0,0.0,0.0,0.0,0.0,0.0,0.0,0.0,0.0,0.0,0.0,0.0,0.0,0.0,0.0,0.0,0.0,0.0,0.0,0.0,0.0,0.0,0.0,0.0,0.0,0.0,0.0,0.0,0.0,0.0,0.0,0.0,0.0,0.0,0.0,0.0,0.0,0.0,0.0,0.0,0.0,0.0,0.0,0.0,0.0,0.0,0.0,0.0,0.0,0.0,0.0,0.0,0.0,0.0,0.0,0.0,0.0,0.0,0.0,0.0,0.0,0.0,0.0,0.0,0.0,0.0,0.0,0.0,0.0,0.0,0.0,0.0,0.0,0.0,0.0,0.0,0.0,0.0,0.0,0.0,0.0,0.0,0.0,0.0,0.0,0.0,0.0,0.0,0.0,0.0,0.0,0.0,0.0,0.0,0.0,0.0,0.0,0.0,0.0,0.0,0.0,0.0,0.0,0.0,0.0,0.0,0.0,0.0,0.0,0.0,0.0,0.0,0.0,0.0,0.0,0.0,0.0,0.0,0.0,0.0,0.0,0.0,0.0,0.0,0.0,0.0,0.0,0.0,0.0,0.0,0.0,0.0,0.0,0.0,0.0,0.0,0.0,0.0,0.0,0.0,0.0,0.0,0.0,0.0,0.0,0.0,0.0,0.0,0.0,0.0,0.0,0.0,0.0,0.0,0.0,0.0,0.0,0.0,0.0,0.0,0.0,0.0,0.0,0.0,0.0,0.0,0.0,0.0,0.0,0.0,0.0,0.0,0.0,0.0,0.0,0.0,0.0,0.0,0.0,0.0,0.0,0.0,0.0,0.0,0.0,0.0,0.0,0.0,0.0,0.0,0.0,0.0,0.0,0.0,0.0,0.0,0.0,0.0,0.0,0.0,0.0,0.0,0.0,0.0,0.0,0.0,0.0,0.0,0.0,0.0,0.0,0.0,0.0,0.0,0.0,0.0,0.0,0.0,0.0,0.0,0.0,0.0,0.0,0.0,0.0,0.0,0.0,0.0,0.0,0.0,0.0,0.0,0.0,0.0,0.0,0.0,0.0,0.0,0.0,0.0,0.0,0.0,0.0,0.0,0.0,0.0,0.0,0.0,0.0,0.0,0.0,0.0,0.0,0.0,0.0,0.0,0.0,0.0,0.0,0.0,0.0,0.0,0.0,0.0,0.0,0.0,0.0,0.0,0.0,0.0,0.0,0.0,0.0,0.0,0.0,0.0,0.0,0.0,0.0,0.0,0.0,0.0,0.0,0.0,0.0,0.0,0.0,0.0,0.0,0.0,0.0,0.0,0.0,0.0,0.0,0.0,0.0,0.0,0.0,0.0,0.0,0.0,0.0,0.0,0.0,0.0,0.0,0.0,0.0,0.0,0.0,0.0,0.0,0.0,0.0,0.0,0.0,0.0,0.0,0.0,0.0,0.0,0.0,0.0,0.0,0.0,0.0,0.0,0.0,0.0,0.0,0.0,0.0,0.0,0.0,0.0,0.0,0.0,0.0,0.0,0.0,0.0,0.0,0.0,0.0,0.0,0.0,0.0,0.0,0.0,0.0,0.0,0.0,0.0,0.0,0.0,0.0,0.0,0.0,0.0,0.0,0.0,0.0,0.0,0.0,0.0,0.0,0.0,0.0,0.0,0.0,0.0,0.0,0.0,0.0,0.0,0.0,0.0,0.0,0.0,0.0,0.0,0.0,0.0,0.0,0.0,0.0,0.0,0.0,0.0,0.0,0.0,0.0,0.0,0.0,0.0,0.0,0.0,0.0,0.0,0.0,0.0,0.0,0.0,0.0,0.0,0.0,0.0,0.0,0.0,0.0,0.0,0.0,0.0,0.0,0.0,0.0,0.0,0.0,0.0,0.0,0.0,0.0,0.0,0.0,0.0,0.0,0.0,0.0,0.0,0.0,0.0,0.0,0.0,0.0,0.0,0.0,0.0,0.0,0.0,0.0,0.0,0.0,-1.7438,0.0,0.0,0.0,0.0,0.0,0.0,0.0,0.0,0.0,0.0,0.0,0.0,0.0,0.0,0.0,0.0,0.0,0.0,0.0,0.0,0.0,0.0,0.0,0.0,0.0,0.0,0.0,0.0,0.0,0.0,0.0,0.0,0.0,0.0,0.0,0.0,0.0,0.0,0.0,0.0,0.0,0.0,0.0,0.0,0.0,0.0,0.0,0.0,0.0,0.0,0.0,0.0,0.0,0.0,0.0,0.0,0.0,0.0,0.0,0.0,0.0,0.0,0.0,0.0,0.0,0.0,0.0,0.0,0.0,0.0,0.0,0.0,0.0,0.0,0.0,0.0,0.0,0.0,0.0,0.0,0.0,0.0,0.0,0.0,0.0,0.0,0.0,0.0,0.0,0.0,0.0,0.0,0.0,0.0,0.0,0.0,0.0,0.0,0.0,0.0,0.0,0.0,0.0,0.0,0.0,0.0,0.0,0.0,0.0,0.0,-1.9,-1.8624,-1.8139,-1.7874,-1.7863,0.0,0.0,0.0,0.0,0.0,0.0,0.0,0.0,0.0,0.0,0.0,0.0,0.0,0.0,0.0,0.0,0.0,0.0,0.0,0.0,0.0,0.0,0.0,0.0,0.0,0.0,0.0,0.0,0.0,0.0,0.0,0.0,0.0,0.0,0.0,0.0,0.0,0.0,0.0,0.0,0.0,0.0,0.0,0.0,0.0,0.0,0.0,0.0,0.0,0.0,0.0,0.0,0.0,0.0,0.0,0.0,0.0,0.0,0.0,0.0,0.0,0.0,0.0,0.0,0.0,0.0,0.0,0.0,0.0,0.0,0.0,0.0,0.0,0.0,0.0,0.0,0.0,0.0,0.0,0.0,0.0,0.0,0.0,0.0,0.0,0.0,0.0,0.0,0.0,0.0,0.0,0.0,0.0,0.0,0.0,0.0,0.0,0.0,0.0,0.0,0.0,0.0,0.0,0.0,0.0,0.0,0.0,0.0,0.0,0.0,0.0,0.0,-1.8838,-1.8484,-1.8517,0.0,0.0,0.0,0.0,0.0,0.0,0.0,0.0,0.0,0.0,0.0,0.0,0.0,0.0,0.0,0.0,0.0,0.0,0.0,0.0,0.0,0.0,0.0,0.0,0.0,0.0,0.0,0.0,0.0,0.0,0.0,0.0,0.0,0.0,0.0,0.0,0.0,0.0,0.0,0.0,0.0,0.0,0.0,0.0,0.0,0.0,0.0,0.0,0.0,0.0,0.0,0.0,0.0,0.0,0.0,0.0,0.0,0.0,0.0,0.0,0.0,0.0,0.0,0.0,0.0,0.0,0.0,0.0,0.0,0.0,0.0,0.0,0.0,0.0,0.0,0.0,0.0,0.0,0.0,0.0,0.0,0.0,0.0,0.0,0.0,0.0,0.0,0.0,0.0,0.0,0.0,0.0,0.0,0.0,0.0,0.0,0.0,0.0,0.0,0.0,0.0,0.0,0.0,0.0,0.0,0.0,0.0,0.0,0.0,0.0,-2.0377,-2.039,-2.0289,0.0,-2.0269,0.0,0.0,0.0,0.0,0.0,0.0,0.0,0.0,0.0,0.0,0.0,0.0,0.0,0.0,0.0,0.0,0.0,0.0,0.0,0.0,0.0,0.0,0.0,0.0,0.0,0.0,0.0,0.0,0.0,0.0,0.0,0.0,0.0,0.0,0.0,0.0,0.0,0.0,0.0,0.0,0.0,0.0,0.0,0.0,0.0,0.0,0.0,0.0,0.0,0.0,0.0,0.0,0.0,0.0,0.0,0.0,0.0,0.0,0.0,0.0,0.0,0.0,0.0,0.0,0.0,0.0,0.0,0.0,0.0,0.0,0.0,0.0,0.0,0.0,0.0,0.0,0.0,0.0,0.0,0.0,0.0,0.0,0.0,0.0,0.0,0.0,0.0,0.0,0.0,0.0,0.0,0.0,0.0,0.0,0.0,0.0,0.0,0.0,0.0,0.0,0.0,0.0,0.0,0.0,0.0,0.0,0.0,0.0,0.0,0.0,-2.0516,-2.0513,-2.0513,-2.0513,0.0,0.0,0.0,0.0,0.0,0.0,0.0,0.0,0.0,0.0,0.0,0.0,0.0,0.0,0.0,0.0,0.0,0.0,0.0,0.0,0.0,0.0,0.0,0.0,0.0,0.0,0.0,0.0,0.0,0.0,0.0,0.0,0.0,0.0,0.0,0.0,0.0,0.0,0.0,0.0,0.0,0.0,0.0,0.0,0.0,0.0,0.0,0.0,0.0,0.0,0.0,0.0,0.0,0.0,0.0,0.0,0.0,0.0,0.0,0.0,0.0,0.0,0.0,0.0,0.0,0.0,0.0,0.0,0.0,0.0,0.0,0.0,0.0,0.0,0.0,0.0,0.0,0.0,0.0,0.0,0.0,0.0,0.0,0.0,0.0,0.0,0.0,0.0,0.0,0.0,0.0,0.0,0.0,0.0,0.0,0.0,0.0,0.0,0.0,0.0,0.0,0.0,0.0,0.0,0.0,0.0,0.0,0.0,0.0,0.0,-2.0506,-2.0503,-2.05,-2.05,-2.05,-2.05,0.0,0.0,0.0,0.0,0.0,0.0,0.0,0.0,0.0,0.0,0.0,0.0,0.0,0.0,0.0,0.0,0.0,0.0,0.0,0.0,0.0,0.0,0.0,0.0,0.0,0.0,0.0,0.0,0.0,0.0,0.0,0.0,0.0,0.0,0.0,0.0,0.0,0.0,0.0,0.0,0.0,0.0,0.0,0.0,0.0,0.0,0.0,0.0,0.0,0.0,0.0,0.0,0.0,0.0,0.0,0.0,0.0,0.0,0.0,0.0,0.0,0.0,0.0,0.0,0.0,0.0,0.0,0.0,0.0,0.0,0.0,0.0,0.0,0.0,0.0,0.0,0.0,0.0,0.0,0.0,0.0,0.0,0.0,0.0,0.0,0.0,0.0,0.0,0.0,0.0,0.0,0.0,0.0,0.0,0.0,0.0,0.0,0.0,0.0,0.0,0.0,0.0,0.0,0.0,0.0,0.0,0.0,0.0,-2.0516,-2.0516,-2.0514,-2.0506,-2.05,-2.05,0.0,0.0,0.0,0.0,0.0,0.0,0.0,0.0,0.0,0.0,0.0,0.0,0.0,0.0,0.0,0.0,0.0,0.0,0.0,0.0,0.0,0.0,0.0,0.0,0.0,0.0,0.0,0.0,0.0,0.0,0.0,0.0,0.0,0.0,0.0,0.0,0.0,0.0,0.0,0.0,0.0,0.0,0.0,0.0,0.0,0.0,0.0,0.0,0.0,0.0,0.0,0.0,0.0,0.0,0.0,0.0,0.0,0.0,0.0,0.0,0.0,0.0,0.0,0.0,0.0,0.0,0.0,0.0,0.0,0.0,0.0,0.0,0.0,0.0,0.0,0.0,0.0,0.0,0.0,0.0,0.0,0.0,0.0,0.0,0.0,0.0,0.0,0.0,0.0,0.0,0.0,0.0,0.0,0.0,0.0,0.0,0.0,0.0,0.0,0.0,0.0,0.0,0.0,0.0,0.0,0.0,0.0,0.0,0.0,-2.0516,-2.0516,-2.0516,-2.0514,-2.0511,-2.0509,0.0,0.0,0.0,0.0,0.0,0.0,0.0,0.0,0.0,0.0,0.0,0.0,0.0,0.0,0.0,0.0,0.0,0.0,0.0,0.0,0.0,0.0,0.0,0.0,0.0,0.0,0.0,0.0,0.0,0.0,0.0,0.0,0.0,0.0,0.0,0.0,0.0,0.0,0.0,0.0,0.0,0.0,0.0,0.0,0.0,0.0,0.0,0.0,0.0,0.0,0.0,0.0,0.0,0.0,0.0,0.0,0.0,0.0,0.0,0.0,0.0,0.0,0.0,0.0,0.0,0.0,0.0,0.0,0.0,0.0,0.0,0.0,0.0,0.0,0.0,0.0,0.0,0.0,0.0,0.0,0.0,0.0,0.0,0.0,0.0,0.0,0.0,0.0,0.0,0.0,0.0,0.0,0.0,0.0,0.0,0.0,0.0,0.0,0.0,0.0,0.0,0.0,0.0,0.0,0.0,0.0,0.0,0.0,0.0,-2.0543,0.0,-2.0523,-2.0521,-2.0504,-2.0499,0.0,0.0,0.0,0.0,0.0,0.0,0.0,0.0,0.0,0.0,0.0,0.0,0.0,0.0,0.0,0.0,0.0,0.0,0.0,0.0,0.0,0.0,0.0,0.0,0.0,0.0,0.0,0.0,0.0,0.0,0.0,0.0,0.0,0.0,0.0,0.0,0.0,0.0,0.0,0.0,0.0,0.0,0.0,0.0,0.0,0.0,0.0,0.0,0.0,0.0,0.0,0.0,0.0,0.0,0.0,0.0,0.0,0.0,0.0,0.0,0.0,0.0,0.0,0.0,0.0,0.0,0.0,0.0,0.0,0.0,0.0,0.0,0.0,0.0,0.0,0.0,0.0,0.0,0.0,0.0,0.0,0.0,0.0,0.0,0.0,0.0,0.0,0.0,0.0,0.0,0.0,0.0,0.0,0.0,0.0,0.0,0.0,0.0,0.0,0.0,0.0,0.0,0.0,0.0,0.0,0.0,0.0,0.0,-2.0632,-2.0632,-2.0671,-2.0728,-2.0625,-2.0611,-2.0529,0.0,0.0,0.0,0.0,0.0,0.0,0.0,0.0,0.0,0.0,0.0,0.0,0.0,0.0,0.0,0.0,0.0,0.0,0.0,0.0,0.0,0.0,0.0,0.0,0.0,0.0,0.0,0.0,0.0,0.0,0.0,0.0,0.0,0.0,0.0,0.0,0.0,0.0,0.0,0.0,0.0,0.0,0.0,0.0,0.0,0.0,0.0,0.0,0.0,0.0,0.0,0.0,0.0,0.0,0.0,0.0,0.0,0.0,0.0,0.0,0.0,0.0,0.0,0.0,0.0,0.0,0.0,0.0,0.0,0.0,0.0,0.0,0.0,0.0,0.0,0.0,0.0,0.0,0.0,0.0,0.0,0.0,0.0,0.0,0.0,0.0,0.0,0.0,0.0,0.0,0.0,0.0,0.0,0.0,0.0,0.0,0.0,0.0,0.0,0.0,0.0,0.0,0.0,0.0,0.0,0.0,0.0,0.0,0.0,-2.151,-2.2037,-2.233,-2.2289,-2.1762,-2.145,0.0,0.0,0.0,0.0,0.0,0.0,0.0,0.0,0.0,0.0,0.0,0.0,0.0,0.0,0.0,0.0,0.0,0.0,0.0,0.0,0.0,0.0,0.0,0.0,0.0,0.0,0.0,0.0,0.0,0.0,0.0,0.0,0.0,0.0,0.0,0.0,0.0,0.0,0.0,0.0,0.0,0.0,0.0,0.0,0.0,0.0,0.0,0.0,0.0,0.0,0.0,0.0,0.0,0.0,0.0,0.0,0.0,0.0,0.0,0.0,0.0,0.0,0.0,0.0,0.0,0.0,0.0,0.0,0.0,0.0,0.0,0.0,0.0,0.0,0.0,0.0,0.0,0.0,0.0,0.0,0.0,0.0,0.0,0.0,0.0,0.0,0.0,0.0,0.0,0.0,0.0,0.0,0.0,0.0,0.0,0.0,0.0,0.0,0.0,0.0,0.0,0.0,0.0,0.0,0.0,0.0,0.0,0.0,0.0,-2.2853,-2.3011,-2.3265,-2.3576,-2.2797,-2.219,-2.1839,0.0,0.0,0.0,0.0,0.0,0.0,0.0,0.0,0.0,0.0,0.0,0.0,0.0,0.0,0.0,0.0,0.0,0.0,0.0,0.0,0.0,0.0,0.0,0.0,0.0,0.0,0.0,0.0,0.0,0.0,0.0,0.0,0.0,0.0,0.0,0.0,0.0,0.0,0.0,0.0,0.0,0.0,0.0,0.0,0.0,0.0,0.0,0.0,0.0,0.0,0.0,0.0,0.0,0.0,0.0,0.0,0.0,0.0,0.0,0.0,0.0,0.0,0.0,0.0,0.0,0.0,0.0,0.0,0.0,0.0,0.0,0.0,0.0,0.0,0.0,0.0,0.0,0.0,0.0,0.0,0.0,0.0,0.0,0.0,0.0,0.0,0.0,0.0,0.0,0.0,0.0,0.0,0.0,0.0,0.0,0.0,0.0,0.0,0.0,0.0,0.0,0.0,0.0,0.0,0.0,0.0,0.0,0.0,-2.4603,-2.3771,-2.3732,-2.4525,-2.3651,-2.2814,0.0,0.0,0.0,0.0,0.0,0.0,0.0,0.0,0.0,0.0,0.0,0.0,0.0,0.0,0.0,0.0,0.0,0.0,0.0,0.0,0.0,0.0,0.0,0.0,0.0,0.0,0.0,0.0,0.0,0.0,0.0,0.0,0.0,0.0,0.0,0.0,0.0,0.0,0.0,0.0,0.0,0.0,0.0,0.0,0.0,0.0,0.0,0.0,0.0,0.0,0.0,0.0,0.0,0.0,0.0,0.0,0.0,0.0,0.0,0.0,0.0,0.0,0.0,0.0,0.0,0.0,0.0,0.0,0.0,0.0,0.0,0.0,0.0,0.0,0.0,0.0,0.0,0.0,0.0,0.0,0.0,0.0,0.0,0.0,0.0,0.0,0.0,0.0,0.0,0.0,0.0,0.0,0.0,0.0,0.0,0.0,0.0,0.0,0.0,0.0,0.0,0.0,0.0,0.0,0.0,0.0,0.0,0.0,0.0,-2.7131,-2.6412,-2.61,-2.6275,-2.4857,-2.3959,0.0,0.0,0.0,0.0,0.0,0.0,0.0,0.0,0.0,0.0,0.0,0.0,0.0,0.0,0.0,0.0,0.0,0.0,0.0,0.0,0.0,0.0,0.0,0.0,0.0,0.0,0.0,0.0,0.0,0.0,0.0,0.0,0.0,0.0,0.0,0.0,0.0,0.0,0.0,0.0,0.0,0.0,0.0,0.0,0.0,0.0,0.0,0.0,0.0,0.0,0.0,0.0,0.0,0.0,0.0,0.0,0.0,0.0,0.0,0.0,0.0,0.0,0.0,0.0,0.0,0.0,0.0,0.0,0.0,0.0,0.0,0.0,0.0,0.0,0.0,0.0,0.0,0.0,0.0,0.0,0.0,0.0,0.0,0.0,0.0,0.0,0.0,0.0,0.0,0.0,0.0,0.0,0.0,0.0,0.0,0.0,0.0,0.0,0.0,0.0,0.0,0.0,0.0,0.0,0.0,0.0,0.0,0.0,-2.7089,-2.7696,-2.792,-2.8053,-2.8053,-2.6038,-2.4781,0.0,0.0,0.0,0.0,0.0,0.0,0.0,0.0,0.0,0.0,0.0,0.0,0.0,0.0,0.0,0.0,0.0,0.0,0.0,0.0,0.0,0.0,0.0,0.0,0.0,0.0,0.0,0.0,0.0,0.0,0.0,0.0,0.0,0.0,0.0,0.0,0.0,0.0,0.0,0.0,0.0,0.0,0.0,0.0,0.0,0.0,0.0,0.0,0.0,0.0,0.0,0.0,0.0,0.0,0.0,0.0,0.0,0.0,0.0,0.0,0.0,0.0,0.0,0.0,0.0,0.0,0.0,0.0,0.0,0.0,0.0,0.0,0.0,0.0,0.0,0.0,0.0,0.0,0.0,0.0,0.0,0.0,0.0,0.0,0.0,0.0,0.0,0.0,0.0,0.0,0.0,0.0,0.0,0.0,0.0,0.0,0.0,0.0,0.0,0.0,0.0,0.0,0.0,0.0,0.0,0.0,0.0,0.0,-2.795,-2.7287,-2.8727,-2.9533,-2.9557,-2.7183,-2.5471,0.0,0.0,0.0,0.0,0.0,0.0,0.0,0.0,0.0,0.0,0.0,0.0,0.0,0.0,0.0,0.0,0.0,0.0,0.0,0.0,0.0,0.0,0.0,0.0,0.0,0.0,0.0,0.0,0.0,0.0,0.0,0.0,0.0,0.0,0.0,0.0,0.0,0.0,0.0,0.0,0.0,0.0,0.0,0.0,0.0,0.0,0.0,0.0,0.0,0.0,0.0,0.0,0.0,0.0,0.0,0.0,0.0,0.0,0.0,0.0,0.0,0.0,0.0,0.0,0.0,0.0,0.0,0.0,0.0,0.0,0.0,0.0,0.0,0.0,0.0,0.0,0.0,0.0,0.0,0.0,0.0,0.0,0.0,0.0,0.0,0.0,0.0,0.0,0.0,0.0,0.0,0.0,0.0,0.0,0.0,0.0,0.0,0.0,0.0,0.0,0.0,0.0,0.0,0.0,0.0,0.0,0.0,0.0,-2.8532,-2.8954,-2.9308,-2.9825,-3.0487,-2.8057,-2.6654,0.0,0.0,0.0,0.0,0.0,0.0,0.0,0.0,0.0,0.0,0.0,0.0,0.0,0.0,0.0,0.0,0.0,0.0,0.0,0.0,0.0,0.0,0.0,0.0,0.0,0.0,0.0,0.0,0.0,0.0,0.0,0.0,0.0,0.0,0.0,0.0,0.0,0.0,0.0,0.0,0.0,0.0,0.0,0.0,0.0,0.0,0.0,0.0,-2.2331,0.0,0.0,0.0,0.0,0.0,0.0,0.0,0.0,0.0,0.0,0.0,0.0,0.0,0.0,0.0,0.0,0.0,0.0,0.0,0.0,0.0,0.0,0.0,0.0,0.0,0.0,0.0,0.0,0.0,0.0,0.0,0.0,0.0,0.0,0.0,0.0,0.0,0.0,0.0,0.0,0.0,0.0,0.0,0.0,0.0,0.0,0.0,0.0,0.0,0.0,0.0,0.0,0.0,0.0,0.0,0.0,0.0,0.0,0.0,-2.8684,-2.9476,-2.9892,-3.0331,-3.0701,-2.9086,-2.7803,0.0,0.0,0.0,0.0,0.0,0.0,0.0,0.0,0.0,0.0,0.0,0.0,0.0,0.0,0.0,0.0,0.0,0.0,0.0,0.0,0.0,0.0,0.0,0.0,0.0,0.0,0.0,0.0,0.0,0.0,0.0,0.0,0.0,0.0,0.0,0.0,0.0,0.0,0.0,0.0,0.0,0.0,0.0,0.0,0.0,0.0,0.0,0.0,0.0,0.0,0.0,0.0,0.0,0.0,0.0,0.0,0.0,0.0,0.0,0.0,0.0,0.0,0.0,0.0,0.0,0.0,0.0,0.0,0.0,0.0,0.0,0.0,0.0,0.0,0.0,0.0,0.0,0.0,0.0,0.0,0.0,0.0,0.0,0.0,0.0,0.0,0.0,0.0,0.0,0.0,0.0,0.0,0.0,0.0,0.0,0.0,0.0,0.0,0.0,0.0,0.0,0.0,0.0,0.0,0.0,0.0,0.0,-2.7549,-2.8755,-2.9687,-3.0419,-3.0799,-3.0779,-2.994,-2.8772,-2.7235,0.0,0.0,0.0,0.0,0.0,0.0,0.0,0.0,0.0,0.0,0.0,0.0,0.0,0.0,0.0,0.0,0.0,0.0,0.0,0.0,0.0,0.0,0.0,0.0,0.0,0.0,0.0,0.0,0.0,0.0,0.0,0.0,0.0,0.0,0.0,0.0,0.0,0.0,-1.9494,-2.0513,0.0,0.0,0.0,0.0,0.0,0.0,0.0,0.0,-2.3122,0.0,0.0,0.0,0.0,0.0,0.0,0.0,0.0,0.0,0.0,0.0,0.0,0.0,0.0,0.0,0.0,0.0,0.0,0.0,0.0,0.0,0.0,0.0,0.0,0.0,0.0,0.0,0.0,0.0,0.0,0.0,0.0,0.0,0.0,0.0,0.0,0.0,0.0,0.0,0.0,0.0,0.0,0.0,0.0,0.0,0.0,0.0,0.0,0.0,0.0,0.0,0.0,0.0,0.0,0.0,0.0,-2.7824,-2.8151,-2.9043,-3.0531,-3.0726,-3.0799,-3.0779,-2.9959,-2.9062,-2.8067,0.0,0.0,0.0,0.0,0.0,0.0,0.0,0.0,0.0,0.0,0.0,0.0,0.0,0.0,0.0,0.0,0.0,0.0,0.0,0.0,0.0,0.0,0.0,0.0,0.0,0.0,0.0,0.0,0.0,0.0,0.0,0.0,0.0,0.0,0.0,0.0,0.0,0.0,0.0,-2.0975,-2.2009,0.0,0.0,0.0,0.0,0.0,0.0,0.0,0.0,-2.5041,0.0,0.0,0.0,0.0,0.0,0.0,0.0,0.0,0.0,0.0,0.0,0.0,0.0,0.0,0.0,0.0,0.0,0.0,0.0,0.0,0.0,0.0,0.0,0.0,0.0,0.0,0.0,0.0,0.0,0.0,0.0,0.0,0.0,0.0,0.0,0.0,0.0,0.0,0.0,0.0,0.0,0.0,0.0,0.0,0.0,0.0,0.0,0.0,0.0,0.0,0.0,0.0,0.0,0.0,0.0,-2.8154,-2.8697,-2.9531,-3.074,-3.0799,-3.0799,-3.0784,-3.04,-2.9564,0.0,0.0,0.0,0.0,0.0,0.0,0.0,0.0,0.0,0.0,0.0,0.0,0.0,0.0,0.0,0.0,0.0,0.0,0.0,0.0,0.0,0.0,0.0,0.0,0.0,0.0,0.0,0.0,0.0,0.0,0.0,0.0,0.0,0.0,0.0,0.0,0.0,0.0,0.0,0.0,-2.1835,-2.323,-2.4134,0.0,0.0,0.0,0.0,0.0,0.0,-2.686,-2.6208,0.0,0.0,0.0,0.0,0.0,0.0,0.0,0.0,0.0,0.0,0.0,0.0,0.0,0.0,0.0,0.0,0.0,0.0,0.0,0.0,0.0,0.0,0.0,0.0,0.0,0.0,0.0,0.0,0.0,0.0,0.0,0.0,0.0,0.0,0.0,0.0,0.0,0.0,0.0,0.0,0.0,0.0,0.0,0.0,0.0,0.0,0.0,0.0,0.0,0.0,0.0,0.0,0.0,0.0,0.0,-2.8225,-2.9081,-2.992,-3.0765,-3.0974,-3.1072,-3.1052,-3.0882,-3.0085,0.0,0.0,0.0,0.0,0.0,0.0,0.0,0.0,0.0,0.0,0.0,0.0,0.0,0.0,0.0,0.0,0.0,0.0,0.0,0.0,0.0,0.0,0.0,0.0,0.0,0.0,0.0,0.0,0.0,0.0,0.0,0.0,0.0,0.0,0.0,0.0,0.0,0.0,0.0,0.0,0.0,-2.4417,-2.5924,-2.6801,0.0,0.0,0.0,0.0,-2.854,-2.8015,0.0,0.0,0.0,0.0,0.0,0.0,0.0,0.0,0.0,0.0,0.0,0.0,0.0,0.0,0.0,0.0,0.0,0.0,0.0,0.0,0.0,0.0,0.0,0.0,0.0,0.0,0.0,0.0,0.0,0.0,0.0,0.0,0.0,0.0,0.0,0.0,0.0,0.0,0.0,0.0,0.0,0.0,0.0,0.0,0.0,0.0,0.0,0.0,0.0,0.0,0.0,0.0,0.0,0.0,0.0,0.0,-2.8232,-2.9082,-2.9924,-3.0784,-3.1539,-3.1948,-3.1929,-3.1214,-3.0359,0.0,0.0,0.0,0.0,0.0,0.0,0.0,0.0,0.0,0.0,0.0,0.0,0.0,0.0,0.0,0.0,0.0,0.0,0.0,0.0,0.0,0.0,0.0,0.0,0.0,0.0,0.0,0.0,0.0,0.0,0.0,0.0,0.0,0.0,0.0,0.0,0.0,0.0,0.0,0.0,0.0,-2.512,-2.6138,-2.6896,-2.738,0.0,0.0,-2.9419,-2.9532,-2.9884,0.0,0.0,0.0,0.0,0.0,0.0,0.0,0.0,0.0,0.0,0.0,0.0,0.0,0.0,0.0,0.0,0.0,0.0,0.0,0.0,0.0,0.0,0.0,0.0,0.0,0.0,0.0,0.0,0.0,0.0,0.0,0.0,0.0,0.0,0.0,0.0,0.0,0.0,0.0,0.0,0.0,0.0,0.0,0.0,0.0,0.0,0.0,0.0,0.0,0.0,0.0,0.0,0.0,0.0,0.0,-2.729,-2.8963,-3.0302,-3.1153,-3.1535,-3.2396,-3.2835,-3.2849,-3.1984,-3.1168,0.0,0.0,0.0,0.0,0.0,0.0,0.0,0.0,0.0,0.0,0.0,0.0,0.0,0.0,0.0,0.0,0.0,0.0,0.0,0.0,0.0,0.0,0.0,0.0,0.0,0.0,0.0,0.0,0.0,0.0,0.0,0.0,0.0,0.0,0.0,0.0,0.0,0.0,0.0,0.0,0.0,0.0,-2.8265,-2.9114,0.0,0.0,0.0,-3.049,-3.0978,0.0,0.0,0.0,0.0,0.0,0.0,0.0,0.0,0.0,0.0,0.0,0.0,0.0,0.0,0.0,0.0,0.0,0.0,0.0,0.0,0.0,0.0,0.0,0.0,0.0,0.0,0.0,0.0,0.0,0.0,0.0,0.0,0.0,0.0,0.0,0.0,0.0,0.0,0.0,0.0,0.0,0.0,0.0,0.0,0.0,0.0,0.0,0.0,0.0,0.0,0.0,0.0,0.0,0.0,0.0,0.0,0.0,-2.9819,-3.1554,-3.2423,-3.2463,-3.3275,-3.3715,-3.3688,-3.3075,0.0,0.0,0.0,0.0,0.0,0.0,0.0,0.0,0.0,0.0,0.0,0.0,0.0,0.0,0.0,0.0,0.0,0.0,0.0,0.0,0.0,0.0,0.0,0.0,0.0,0.0,0.0,-2.09,0.0,0.0,0.0,0.0,0.0,0.0,0.0,0.0,0.0,0.0,0.0,0.0,0.0,0.0,-2.8674,-2.9931,-3.0966,-3.1827,0.0,0.0,-3.169,-3.2291,-3.2425,-3.1905,0.0,0.0,0.0,0.0,0.0,0.0,0.0,0.0,0.0,0.0,0.0,0.0,0.0,0.0,0.0,0.0,0.0,0.0,0.0,0.0,0.0,0.0,0.0,0.0,0.0,0.0,0.0,0.0,0.0,0.0,0.0,0.0,0.0,0.0,0.0,0.0,0.0,0.0,0.0,0.0,0.0,0.0,0.0,0.0,0.0,0.0,0.0,0.0,0.0,0.0,0.0,0.0,0.0,0.0,0.0,-3.0723,-3.2418,-3.3316,-3.3339,-3.4159,-3.4588,-3.4512,-3.4512,-3.373,0.0,0.0,0.0,0.0,0.0,0.0,0.0,0.0,0.0,0.0,0.0,0.0,0.0,0.0,0.0,0.0,0.0,0.0,0.0,0.0,0.0,0.0,0.0,0.0,0.0,0.0,0.0,0.0,0.0,0.0,0.0,0.0,0.0,0.0,0.0,0.0,0.0,0.0,0.0,0.0,0.0,-2.9969,-3.0083,-3.1477,-3.2507,0.0,0.0,-3.3294,-3.3243,-3.3664,-3.3473,-3.1916,0.0,0.0,0.0,0.0,0.0,0.0,0.0,0.0,0.0,0.0,0.0,0.0,0.0,0.0,0.0,0.0,0.0,0.0,0.0,0.0,0.0,0.0,0.0,0.0,0.0,0.0,0.0,0.0,0.0,0.0,0.0,0.0,0.0,0.0,0.0,0.0,0.0,0.0,0.0,0.0,0.0,0.0,0.0,0.0,0.0,0.0,0.0,0.0,0.0,0.0,0.0,0.0,0.0,-3.0723,-3.1599,-3.3311,-3.4196,-3.4237,-3.5054,-3.549,-3.5447,-3.495,-3.4381,0.0,0.0,0.0,0.0,0.0,0.0,0.0,0.0,0.0,0.0,0.0,0.0,0.0,0.0,0.0,0.0,0.0,0.0,0.0,0.0,0.0,0.0,0.0,0.0,0.0,0.0,0.0,0.0,-2.6981,-2.7691,-2.743,0.0,0.0,0.0,0.0,0.0,0.0,0.0,0.0,0.0,0.0,-3.1276,-3.2286,-3.2991,0.0,0.0,-3.3845,-3.3771,-3.4163,-3.4398,-3.4102,-3.2913,-3.156,0.0,0.0,0.0,0.0,0.0,0.0,0.0,0.0,0.0,0.0,0.0,0.0,0.0,0.0,0.0,0.0,0.0,0.0,0.0,0.0,0.0,0.0,0.0,0.0,0.0,0.0,0.0,0.0,0.0,0.0,0.0,0.0,0.0,0.0,0.0,0.0,0.0,0.0,0.0,0.0,0.0,0.0,0.0,0.0,0.0,0.0,0.0,0.0,0.0,0.0,0.0,0.0,-3.1741,-3.2868,-3.4322,-3.5052,-3.5076,-3.5659,-3.599,-3.5994,-3.5641,-3.5227,0.0,0.0,0.0,0.0,0.0,0.0,0.0,0.0,0.0,0.0,0.0,0.0,0.0,0.0,0.0,0.0,0.0,0.0,0.0,0.0,0.0,0.0,0.0,0.0,0.0,0.0,0.0,0.0,-2.8197,-2.8637,-2.7951,0.0,0.0,0.0,0.0,0.0,0.0,0.0,0.0,0.0,0.0,-3.2584,-3.3732,-3.4113,-3.4514,-3.5088,-3.4545,-3.4245,-3.4696,-3.471,-3.4363,-3.3452,0.0,0.0,0.0,0.0,0.0,0.0,0.0,0.0,0.0,0.0,0.0,0.0,0.0,0.0,0.0,0.0,0.0,0.0,0.0,0.0,0.0,0.0,0.0,0.0,0.0,0.0,0.0,0.0,0.0,0.0,-2.2983,0.0,0.0,0.0,0.0,0.0,0.0,0.0,0.0,0.0,0.0,0.0,0.0,0.0,0.0,0.0,0.0,0.0,0.0,0.0,0.0,0.0,0.0,-3.2928,-3.4607,-3.5429,-3.5918,-3.5976,-3.5956,-3.5991,-3.6052,-3.6746,-3.638,-3.4783,0.0,0.0,0.0,0.0,0.0,0.0,0.0,0.0,0.0,0.0,0.0,0.0,0.0,0.0,0.0,0.0,0.0,0.0,0.0,0.0,0.0,0.0,0.0,0.0,0.0,0.0,-2.7951,-2.8043,-2.8027,0.0,0.0,0.0,0.0,0.0,0.0,0.0,0.0,0.0,0.0,-3.2267,-3.3846,-3.3903,-3.4628,-3.5126,-3.511,-3.4963,-3.4812,-3.471,-3.4645,-3.4301,0.0,0.0,0.0,0.0,0.0,0.0,0.0,0.0,0.0,0.0,0.0,0.0,0.0,0.0,0.0,0.0,0.0,0.0,0.0,0.0,0.0,0.0,0.0,0.0,0.0,0.0,0.0,-2.482,-2.6876,0.0,0.0,0.0,0.0,0.0,0.0,0.0,0.0,0.0,0.0,0.0,-3.4174,-3.4242,0.0,0.0,0.0,0.0,0.0,0.0,0.0,0.0,0.0,0.0,0.0,0.0,-3.4114,-3.4724,-3.6069,-3.679,-3.6811,-3.7348,-3.7628,-3.7655,-3.7929,-3.7519,-3.6398,0.0,0.0,0.0,0.0,0.0,0.0,0.0,0.0,0.0,0.0,0.0,0.0,0.0,0.0,0.0,0.0,0.0,0.0,0.0,0.0,0.0,0.0,0.0,0.0,0.0,-2.8624,0.0,0.0,0.0,0.0,0.0,0.0,0.0,0.0,0.0,0.0,0.0,-3.1525,-3.255,-3.3429,-3.4155,-3.4697,-3.5002,-3.5176,0.0,0.0,0.0,0.0,0.0,0.0,0.0,0.0,0.0,0.0,0.0,0.0,0.0,0.0,-3.0114,-2.8836,-2.8572,-2.8552,-2.847,0.0,0.0,0.0,0.0,0.0,0.0,0.0,0.0,0.0,0.0,0.0,0.0,0.0,0.0,-2.9205,0.0,-3.132,0.0,0.0,0.0,0.0,0.0,0.0,0.0,0.0,-3.5615,-3.6286,-3.6794,-3.6846,-3.6872,0.0,-3.6875,-3.5691,0.0,0.0,0.0,0.0,0.0,0.0,0.0,0.0,-3.5447,-3.604,-3.7084,-3.7643,-3.7666,-3.8213,-3.8518,-3.8512,-3.8506,-3.8373,-3.8105,-3.7817,-3.6749,0.0,0.0,0.0,0.0,0.0,0.0,0.0,0.0,0.0,0.0,0.0,0.0,0.0,0.0,0.0,0.0,0.0,0.0,0.0,0.0,0.0,0.0,0.0,-3.0905,0.0,0.0,0.0,0.0,0.0,0.0,0.0,0.0,0.0,-3.0898,-3.1838,-3.2917,-3.3944,-3.4299,-3.4672,-3.5197,0.0,0.0,0.0,0.0,0.0,0.0,0.0,-3.6026,-3.6577,-3.5742,-3.5116,-3.5344,-3.4225,-3.3241,-3.3186,0.0,0.0,-3.077,-3.0431,-3.043,-3.035,-3.029,-3.0269,-3.0248,-3.0098,-2.9779,0.0,0.0,0.0,0.0,0.0,0.0,0.0,0.0,-3.1833,-3.3194,0.0,-3.4905,0.0,0.0,0.0,0.0,0.0,-3.613,0.0,0.0,-3.812,-3.8539,-3.8574,-3.8589,-3.859,-3.8594,-3.859,-3.8543,-3.8417,-3.6944,0.0,0.0,0.0,0.0,0.0,0.0,-3.6889,-3.8443,-3.8575,-3.8603,-3.8653,-3.8672,-3.8716,-3.8734,-3.8726,-3.9105,-3.9804,-3.9101,-3.8222,-3.7304,-3.5722,0.0,0.0,0.0,0.0,0.0,0.0,0.0,0.0,0.0,0.0,0.0,0.0,0.0,0.0,0.0,0.0,0.0,0.0,0.0,0.0,-3.2363,0.0,0.0,0.0,0.0,0.0,0.0,0.0,0.0,0.0,0.0,-3.2348,-3.3437,-3.4357,-3.4378,0.0,0.0,0.0,0.0,-3.6623,-3.6544,-3.7196,-3.7656,-3.7585,-3.7566,-3.7623,-3.7717,0.0,0.0,-3.6462,-3.5514,-3.4832,-3.4812,-3.4737,-3.4263,-3.258,-3.2278,-3.2258,-3.2177,-3.2156,-3.2156,-3.2094,-3.1924,-3.177,-3.1602,0.0,0.0,0.0,0.0,-2.8713,-3.0845,-3.4517,-3.4761,-3.6183,-3.8372,-3.899,0.0,0.0,0.0,0.0,0.0,0.0,-3.8487,-3.9048,-3.9328,-3.9761,-4.0349,-4.0351,-4.0351,-4.0368,-4.0369,-4.0363,-4.0375,-4.05,-3.9505,-3.7437,0.0,0.0,0.0,0.0,-3.8336,-3.9399,-4.0045,-4.0643,-4.1195,-4.1838,-4.2136,-4.2134,-4.2122,-4.1988,-4.1674,-4.1414,-4.0599,-3.9118,-3.8008,0.0,0.0,0.0,0.0,0.0,0.0,0.0,0.0,0.0,0.0,0.0,0.0,0.0,0.0,0.0,0.0,0.0,0.0,0.0,-3.2497,-3.3574,-3.386,0.0,0.0,0.0,0.0,0.0,0.0,0.0,0.0,0.0,-3.6577,-3.6357,-3.6433,0.0,0.0,-3.7295,-3.7261,-3.7445,-3.757,-3.7513,-3.7696,0.0,-3.7747,-3.7715,-3.7888,-3.8516,-3.8132,-3.7389,-3.6528,-3.5675,-3.5089,-3.502,-3.5057,-3.4886,-3.4414,-3.4131,-3.4014,-3.3951,-3.3949,-3.3949,-3.3867,-3.3717,-3.3612,-3.7809,-3.5603,-3.2226,-3.1602,-3.2831,-3.2871,-3.4825,-3.8026,-3.8024,-3.9094,-4.0854,-4.1394,-4.1214,-4.0586,-4.1113,0.0,0.0,0.0,-4.0851,-4.1332,-4.1361,-4.162,-4.2109,-4.2114,-4.2092,-4.2084,-4.2084,-4.2073,-4.2086,-4.2617,-4.2081,-4.0557,0.0,0.0,-4.0053,-4.0056,-4.046,-4.1284,-4.1838,-4.2338,-4.2818,-4.3325,-4.3617,-4.3617,-4.3617,-4.3377,-4.29,-4.288,-4.2381,-4.1335,-4.016,-3.8663,0.0,0.0,0.0,0.0,0.0,0.0,0.0,0.0,0.0,0.0,0.0,-2.909,0.0,0.0,0.0,0.0,-3.3186,-3.4035,-3.5197,-3.5813,0.0,0.0,0.0,0.0,0.0,0.0,0.0,-3.682,-3.7383,-3.8052,-3.8864,-3.8493,-3.8147,-3.8277,-3.8219,-3.8169,-3.8136,0.0,-3.8659,-3.8917,-3.8958,-3.9032,-3.9306,-3.9312,-3.9487,-4.0002,-3.9047,-3.8129,-3.7555,-3.6525,-3.573,-3.5621,-3.5393,-3.5183,-3.5092,-3.5002,-3.4888,-3.481,-3.4769,-3.4768,-3.4687,-3.4805,-3.4944,-4.3704,-4.3021,-3.5154,-3.371,-3.656,-3.6601,-3.8397,-4.1264,-4.1303,-4.1752,-4.2494,-4.2591,-4.3079,-4.3899,-4.3821,0.0,-4.2639,-4.339,-4.3665,-4.371,-4.371,-4.3707,-4.3704,-4.3621,-4.3612,-4.361,-4.3606,-4.3617,-4.3585,-4.3675,-4.3695,-4.3702,-4.3033,-4.2641,-4.249,-4.2479,-4.2883,-4.3682,-4.3689,-4.3734,-4.3812,-4.3792,-4.3812,-4.3812,-4.3812,-4.3773,-4.3714,-4.3702,-4.3663,-4.3546,-4.2124,-4.0905,-3.9978,0.0,0.0,0.0,0.0,0.0,0.0,0.0,0.0,0.0,0.0,0.0,0.0,0.0,0.0,0.0,-3.5208,0.0,-3.8364,-3.8514,0.0,0.0,0.0,-3.7303,-3.7303,-3.7381,-3.7712,-3.8531,0.0,0.0,-3.9794,-3.9892,-3.9613,-3.8831,-3.8656,-3.8614,-3.8634,-3.9315,-3.999,-4.0733,-4.0781,-4.0979,-4.1541,-4.166,-4.1662,-4.1664,-4.0401,-3.935,-3.9085,-3.7844,-3.6778,-3.6533,-3.5904,-3.5465,-3.5356,-3.5451,-3.5265,-3.5211,-3.5116,-3.4982,-3.4865,-3.5405,-3.5979,-4.3704,-4.3528,-4.1479,-4.1127,-4.1869,-4.1872,-4.2341,-4.3063,-4.3079,-4.3196,-4.343,-4.4094,-4.4855,-4.5636,-4.4992,-4.4579,-4.4383,-4.3905,-4.3713,-4.371,-4.371,-4.37,-4.3708,-4.3674,-4.3649,-4.3611,-4.3617,-4.3617,-4.3643,-4.426,-4.4598,-4.4598,-4.5072,-4.4624,-4.3358,-4.3299,-4.3728,-4.4585,-4.4579,-4.491,-4.5553,-4.5572,-4.5592,-4.5572,-4.5572,-4.526,-4.4618,-4.4598,-4.4286,-4.3624,-4.3215,-4.2637,-4.1802,-3.9741,0.0,0.0,0.0,0.0,0.0,0.0,0.0,0.0,0.0,-3.4147,-3.5014,0.0,-3.7285,0.0,-3.7698,-3.8374,-3.9374,-3.8883,0.0,0.0,-3.82,-3.8185,-3.8205,-3.8779,-3.9267,-3.9468,-4.0086,-4.0559,-4.0773,-4.0793,-4.0953,-4.1363,-4.1387,-4.1351,-4.1369,-4.2023,-4.2565,-4.2656,-4.2595,-4.2633,-4.2799,-4.2794,-4.2725,-4.2693,-4.1775,-4.0895,-4.0189,-3.9229,-3.829,-3.7699,-3.7412,-3.7277,-3.7185,-3.719,-3.7118,-3.6991,-3.6463,-3.5742,-3.5019,-3.5984,-3.7387,-4.4855,-4.4855,-4.4855,-4.4855,-4.4816,-4.4036,-4.3704,-4.3707,-4.3704,-4.3915,-4.4328,-4.5187,-4.5831,-4.6261,-4.5812,-4.5561,-4.5567,-4.5473,-4.5411,-4.5389,-4.5406,-4.5391,-4.5362,-4.4994,-4.4806,-4.4754,-4.4754,-4.4949,-4.5358,-4.5825,-4.6254,-4.6624,-4.7111,-4.6858,-4.5923,-4.5144,-4.4988,-4.5475,-4.5475,-4.5728,-4.6176,-4.6196,-4.6196,-4.6196,-4.6196,-4.5981,-4.5494,-4.5475,-4.526,-4.4773,-4.4384,-4.3975,-4.3507,-4.1909,-3.9984,0.0,0.0,0.0,0.0,0.0,0.0,0.0,0.0,0.0,0.0,0.0,-3.94,-4.0176,-3.9911,-4.0059,-4.0877,-4.0164,-3.9661,-3.9642,-3.9661,-3.9642,-3.965,-4.0083,-4.0398,-4.0391,-4.1156,-4.1686,-4.1686,-4.2018,-4.2428,-4.2923,-4.3294,-4.3373,-4.3011,-4.3311,-4.3653,-4.3947,-4.359,-4.3394,-4.3689,-4.3412,-4.3269,-4.3511,-4.2917,-4.2033,-4.1187,-4.0307,-3.9445,-3.8658,-3.8162,-3.7897,-3.7897,-3.7865,-3.7929,-3.8183,-3.7922,-3.7222,-3.6293,-3.7109,-3.8364,-4.6456,-4.6456,-4.6358,-4.6378,-4.6339,-4.4836,-4.4153,-4.4036,-4.4153,-4.4618,-4.5382,-4.6124,-4.6456,-4.6475,-4.6573,-4.6622,-4.6671,-4.74,-4.773,-4.7659,-4.7659,-4.7665,-4.7619,-4.6891,-4.6527,-4.6527,-4.6527,-4.6917,-4.7637,-4.7657,-4.8047,-4.8768,-4.8806,-4.8806,-4.8729,-4.7287,-4.6488,-4.6371,-4.6371,-4.6352,-4.6371,-4.6468,-4.6527,-4.6527,-4.6429,-4.6371,-4.6371,-4.6274,-4.6196,-4.6176,-4.5475,-4.5066,-4.5046,-4.3563,-4.2007,0.0,-3.9543,0.0,0.0,0.0,0.0,0.0,0.0,0.0,0.0,-4.0268,-4.0968,-4.26,-4.1937,-4.1796,-4.2646,-4.1959,-4.1437,-4.1445,-4.1425,-4.1433,-4.142,-4.142,-4.1439,-4.1439,-4.2103,-4.2572,-4.2611,-4.3235,-4.3684,-4.3879,-4.4403,-4.4657,-4.4208,-4.4055,-4.4286,-4.489,-4.422,-4.4073,-4.4515,-4.4071,-4.3871,-4.4424,-4.4039,-4.3142,-4.2352,-4.159,-4.075,-3.9792,-3.9065,-3.8516,-3.8285,-3.8293,-3.8527,-3.9164,-3.9243,-3.8944,-3.8212,-3.848,-3.8976,-4.7354,-4.7276,-4.6612,-4.671,-4.7315,-4.7002,-4.6456,-4.5851,-4.6554,-4.6963,-4.712,-4.7276,-4.7338,-4.7416,-4.8099,-4.8392,-4.8421,-4.8532,-4.8564,-4.8574,-4.8543,-4.8548,-4.8535,-4.8385,-4.83,-4.83,-4.8319,-4.8397,-4.8553,-4.8553,-4.8631,-4.8787,-4.8794,-4.8794,-4.8787,0.0,0.0,0.0,-4.7267,-4.7248,-4.7267,-4.7956,-4.8307,-4.828,-4.7618,0.0,-4.7228,-4.6566,-4.6196,-4.6196,-4.604,0.0,0.0,0.0,0.0,0.0,0.0,0.0,0.0,0.0,0.0,0.0,-4.2672,-4.2344,-4.1995,-4.2552,-4.3388,-4.4383,-4.37,-4.3564,-4.4419,-4.3739,-4.3212,-4.3193,-4.3196,-4.3216,-4.3216,-4.3177,-4.3196,-4.3216,-4.3352,-4.345,-4.3469,-4.3606,-4.3997,-4.466,-4.4894,-4.5226,-4.5714,-4.5645,-4.5754,-4.5878,-4.555,-4.5495,-4.5685,-4.5421,-4.5196,-4.5491,-4.5422,-4.4847,-4.4081,-4.3805,-4.3081,-4.1654,-4.1249,-4.0829,-4.0193,-4.0097,-4.001,-4.0269,-4.0258,-4.0153,-3.9863,-3.9942,-4.0077,-4.7608,0.0,-4.6671,-4.6554,0.0,-4.6963,-4.6729,-4.6397,-4.7686,-4.8252,-4.8252,-4.8242,-4.8242,-4.8275,-4.8704,-4.8882,-4.8855,-4.925,-4.9455,-4.9439,-4.9439,-4.9422,-4.9372,-4.9001,-4.8806,-4.8806,-4.8806,-4.9001,-4.9372,-4.9391,-4.9605,-5.0034,-5.0034,-5.0034,-5.0014,-4.9605,-4.8962,-4.8144,-4.8125,-4.8144,-4.8144,-4.8573,-4.8794,-4.8787,-4.8378,0.0,0.0,0.0,0.0,0.0,0.0,0.0,0.0,0.0,0.0,-4.5553,-4.4754,-4.4473,-4.4869,-4.4922,-4.5304,-4.6147,-4.6219,-4.5488,-4.3818,-4.4477,-4.5177,-4.5578,-4.4855,-4.4524,-4.4914,-4.4211,-4.3704,-4.3704,-4.3704,-4.3704,-4.3704,-4.3704,-4.3704,-4.3743,-4.4075,-4.4348,-4.4348,-4.4738,-4.5129,-4.5558,-4.5636,-4.5792,-4.6202,-4.6288,-4.6231,-4.6209,-4.6142,-4.6084,-4.6047,-4.5994,-4.5932,-4.5899,-4.5866,-4.5504,-4.4703,-4.4539,-4.3965,-4.2381,-4.1942,-4.1658,-4.0866,-4.0621,-4.0588,-4.0579,-4.0564,-4.0549,-4.0469,-4.0427,-4.0379,-4.8037,-4.7978,-4.71,-4.6827,-4.6983,-4.6963,-4.7061,-4.7276,0.0,0.0,0.0,-4.9109,-4.9114,-4.9115,-4.9268,-4.9314,-4.9302,-5.0001,-5.0341,-5.0318,-5.0326,-5.0287,-5.0202,-4.9566,-4.9235,-4.9235,-4.9235,-4.9586,-5.0209,-5.0229,-5.0599,-5.1242,-5.13,-5.13,-5.1242,-5.0579,-4.9917,-4.9274,-4.9079,-4.9001,-4.9001,-4.9157,-4.9235,-4.9255,-4.9079,-4.9021,-4.9001,-4.8865,-4.8475,-4.7774,-4.7735,-4.7735,-4.7703,-4.7041,-4.6975,-4.7645,-4.7067,-4.6976,-4.7665,-4.7723,-4.8029,-4.8755,-4.8792,-4.7929,-4.5836,-4.6207,-4.6536,-4.6544,-4.574,-4.523,-4.5226,-4.4602,-4.4153,-4.4153,-4.4172,-4.4192,-4.4172,-4.4153,-4.425,-4.4231,-4.4836,-4.5226,-4.5265,-4.5792,-4.63,-4.628,-4.6222,-4.63,-4.63,-4.63,-4.6288,-4.6226,-4.6203,-4.6183,-4.6127,-4.6093,-4.6095,-4.6026,-4.6011,-4.5708,-4.5092,-4.484,-4.4189,-4.2899,-4.2369,-4.1911,-4.1145,-4.0783,-4.0635,-4.0635,-4.0621,-4.0621,-4.0607,-4.0523,-4.0466,-4.9735,-4.9673,-4.8818,-4.8876,-4.9579,-4.9563,-4.9993,-5.0504,-4.8629,-4.8591,-4.9932,-4.9941,-4.9941,-4.9978,-5.0711,-5.1037,-5.1037,-5.116,-5.123,-5.1203,-5.1164,-5.1125,-5.1106,-5.1008,-5.095,-5.095,-5.093,-5.1008,-5.1106,-5.1106,-5.1183,-5.1281,-5.13,-5.13,-5.13,-5.1183,-5.1067,-5.093,-5.0209,-4.9839,-4.9839,-5.056,-5.095,-5.093,-5.0209,-4.982,-4.982,-4.9177,-4.8748,-4.8631,-4.8612,-4.8612,-4.8619,-4.8483,-4.8475,-4.8604,-4.8514,-4.8502,-4.8619,-4.8619,-4.8665,-4.8789,-4.8853,-4.8711,-4.8379,-4.7773,-4.7422,-4.7382,-4.6655,-4.6119,-4.6128,-4.6007,-4.5913,-4.589,-4.5929,-4.5929,-4.5851,-4.589,-4.5851,-4.5812,-4.6027,-4.6105,-4.6066,-4.6202,-4.63,-4.63,-4.63,-4.63,-4.63,-4.63,-4.63,-4.6292,-4.6231,-4.6203,-4.619,-4.6135,-4.6111,-4.6088,-4.6093,-4.6008,-4.5753,-4.57,-4.5277,-4.4376,-4.3511,-4.2744,-4.1932,-4.1203,-4.0848,-4.0771,-4.0739,-4.07,-4.0739,-4.0646,-4.0583,-5.0106,-5.0008,-4.9169,-4.9032,-4.9442,-4.9407,-4.989,-5.0586,-4.9475,-4.9634,-5.0761,-5.0798,-5.0812,-5.084,-5.1234,-5.1386,-5.1391,-5.1355,-5.133,-5.1339,-5.13,-5.13,-5.13,-5.13,-5.13,-5.13,-5.13,-5.13,-5.13,-5.13,-5.13,-5.13,-5.13,-5.13,-5.13,-5.13,-5.13,-5.13,-5.0911,-5.0716,-5.0696,-5.1106,-5.13,-5.13,-5.0891,-5.0716,-5.0716,-5.0346,-4.9937,-4.9469,-4.9449,-4.9449,-4.943,-4.904,-4.9216,-5.0112,-4.9722,-4.9664,-5.019,-5.0209,-5.0212,-5.021,-5.0245,-5.0253,-5.0273,-4.9062,-4.832,-4.8301,-4.791,-4.7712,-4.7709,-4.7703,-4.7525,-4.7037,-4.7015,-4.6814,-4.6436,-4.6768,-4.6827,-4.6456,-4.6729,-4.6827,-4.6339,-4.63,-4.63,-4.63,-4.63,-4.63,-4.63,-4.63,-4.63,-4.63,-4.6269,-4.626,-4.6255,-4.6226,-4.6201,-4.6153,-4.6157,-4.6123,-4.6063,-4.6056,-4.5667,-4.4868,-4.4003,-4.313,-4.2276,-4.1422,-4.0975,-4.0849,-4.0807,-4.0792,-4.08,-4.0739,-4.0654,-5.0393,-5.03,-4.9656,-4.9419,-4.9458,-4.9414,-4.9784,-5.0367,-5.0362,-5.0774,-5.1347,-5.1391,-5.1398,-5.1402,-5.1394,-5.1366,-5.1374,-5.133,-5.1304,-5.13,-5.13,-5.13,-5.13,-5.13,-5.13,-5.13,-5.13,-5.13,-5.13,-5.13,-5.13,-5.13,-5.13,-5.13,-5.13,-5.13,-5.13,-5.13,-5.13,-5.13,-5.13,-5.13,-5.13,-5.13,-5.13,-5.13,-5.13,-5.13,-5.0989,-5.0365,-5.0287,-5.0287,-5.0287,-4.9722,-4.9956,-5.1145,-5.0716,-5.0618,-5.13,-5.1398,-5.1401,-5.1402,-5.1388,-5.138,-5.1289,-5.0234,-4.9375,-4.9219,-4.8965,-4.8848,-4.8808,-4.8843,-4.8621,-4.7977,-4.7857,-4.752,-4.683,-4.7198,-4.7276,-4.6554,-4.6905,-4.7002,-4.6495,-4.63,-4.63,-4.63,-4.63,-4.63,-4.63,-4.63,-4.63,-4.63,-4.63,-4.63,-4.63,-4.63,-4.6277,-4.6222,-4.6221,-4.6195,-4.6144,-4.6135,-4.5916,-4.5198,-4.4411,-4.3594,-4.2688,-4.1832,-4.1377,-4.1349,-4.114,-4.083,-4.0858,-4.0815,-4.072,-5.1269,-5.1285,-5.113,-5.1169,-5.1112,-5.111,-5.1148,-5.1252,-5.1203,-5.1261,-5.1386,-5.1391,-5.1386,-5.1388,-5.1347,-5.1316,-5.132,-5.1308,-5.1308,-5.13,-5.13,-5.13,-5.13,-5.13,-5.13,-5.13,-5.13,-5.13,-5.13,-5.13,-5.13,-5.13,-5.13,-5.13,-5.13,-5.13,-5.13,-5.13,-5.13,-5.13,-5.13,-5.13,-5.13,-5.13,-5.1339,-5.13,-5.1359,-5.13,-5.1281,-5.1203,-5.1203,-5.1203,-5.1164,-5.1106,-5.1145,-5.132,-5.1222,-5.1261,-5.1378,-5.1398,-5.1394,-5.1402,-5.1396,-5.1386,-5.1387,-5.123,-5.082,-5.0156,-4.9375,-4.9043,-4.8906,-4.8975,-4.8978,-4.8821,-4.8724,-4.8369,-4.7686,-4.7569,-4.7276,-4.6397,-4.6632,-4.6397,-4.6456,-4.6339,-4.63,-4.63,-4.63,-4.63,-4.63,-4.63,-4.63,-4.63,-4.63,-4.63,-4.63,-4.63,-4.63,-4.63,-4.63,-4.6264,-4.622,-4.6183,-4.6092,-4.5811,-4.5176,-4.4289,-4.3463,-4.2716,-4.214,-4.1882,-4.1451,-4.0894,-4.084,-4.083,-4.0819,-5.1398,-5.1389,-5.1396,-5.1394,-5.1391,-5.1402,-5.1386,-5.1398,-5.132,-5.132,-5.1339,-5.1336,-5.1349,-5.132,-5.131,-5.1303,-5.13,-5.13,-5.13,-5.13,-5.13,-5.13,-5.13,-5.13,-5.13,-5.13,-5.13,-5.13,-5.13,-5.13,-5.13,-5.13,-5.13,-5.13,-5.13,-5.13,-5.13,-5.132,-5.1826,-5.208,-5.206,-5.208,-5.2314,-5.2781,-5.284,-5.2567,-5.2177,-5.2547,-5.2372,-5.1476,-5.2275,-5.2606,-5.2099,-5.206,-5.206,-5.2041,-5.1593,-5.13,-5.1339,-5.1378,-5.1388,-5.1401,-5.1398,-5.1396,-5.1387,-5.1387,-5.123,-5.0937,-5.0566,-5.037,-5.0344,-5.0367,-5.0184,-4.9731,-4.9579,-4.9228,-4.8408,-4.8759,-4.874,-4.792,-4.7783,-4.7549,-4.71,-4.6612,-4.6339,-4.63,-4.63,-4.63,-4.63,-4.63,-4.63,-4.63,-4.63,-4.63,-4.63,-4.63,-4.63,-4.63,-4.63,-4.6292,-4.6269,-4.626,-4.6236,-4.6215,-4.5507,-4.4688,-4.3743,-4.2919,-4.2256,-4.1978,-4.1565,-4.0954,-4.0866,-4.0885,-4.0869,-5.139,-5.1357,-5.1375,-5.139,-5.1372,-5.1381,-5.1378,-5.1378,-5.132,-5.13,-5.13,-5.13,-5.13,-5.13,-5.13,-5.13,-5.13,-5.13,-5.13,-5.13,-5.13,-5.13,-5.13,-5.13,-5.13,-5.13,-5.13,-5.13,-5.13,-5.13,-5.13,-5.13,-5.13,-5.13,-5.13,-5.13,-5.1417,-5.171,-5.2314,-5.282,-5.3229,-5.3327,-5.3522,-5.3872,-5.3892,-5.3599,-5.3015,-5.356,-5.3346,-5.2138,-5.3249,-5.3619,-5.3015,-5.2957,-5.2859,-5.2586,-5.2021,-5.1534,-5.1339,-5.1339,-5.1378,-5.1386,-5.139,-5.1402,-5.1387,-5.1387,-5.1387,-5.1367,-5.1385,-5.1347,-5.1403,-5.1391,-5.1112,-5.0526,-5.0445,-5.0106,-4.9345,-4.9774,-4.9618,-4.8701,-4.8466,-4.8505,-4.7666,-4.6846,-4.63,-4.63,-4.63,-4.63,-4.63,-4.63,-4.63,-4.63,-4.63,-4.63,-4.63,-4.63,-4.63,-4.63,-4.63,-4.63,-4.63,-4.63,-4.63,-4.6186,-4.5633,-4.493,-4.3966,-4.3072,-4.2334,-4.1573,-4.1343,-4.1348,-4.1032,-4.0979,-4.0945,-5.1347,-5.1308,-5.1308,-5.1296,-5.1308,-5.13,-5.1281,-5.1222,-5.13,-5.13,-5.1242,-5.13,-5.13,-5.13,-5.13,-5.13,-5.13,-5.13,-5.13,-5.13,-5.13,-5.13,-5.13,-5.13,-5.13,-5.13,-5.13,-5.13,-5.13,-5.13,-5.13,-5.13,-5.13,-5.13,-5.13,-5.13,-5.171,-5.2294,-5.2567,-5.3366,-5.4768,-5.5002,-5.4671,-5.4126,-5.395,-5.3989,-5.3872,-5.3892,-5.3853,-5.3755,-5.3911,-5.395,-5.3853,-5.3853,-5.3483,-5.2762,-5.2567,-5.2197,-5.1534,-5.1398,-5.1398,-5.1437,-5.1432,-5.1386,-5.1402,-5.1387,-5.1387,-5.1402,-5.1382,-5.1385,-5.1391,-5.1386,-5.1363,-5.1283,-5.1291,-5.0871,-5.0145,-5.0129,-4.9345,-4.8388,-4.8564,-4.8505,-4.7744,-4.6846,-4.6436,-4.6319,-4.63,-4.63,-4.63,-4.63,-4.63,-4.63,-4.63,-4.63,-4.63,-4.63,-4.63,-4.63,-4.63,-4.63,-4.63,-4.63,-4.63,-4.63,-4.6124,-4.546,-4.425,-4.3333,-4.2689,-4.2279,-4.2415,-4.2299,-4.1451,-4.1154,-4.1042,-5.132,-5.13,-5.13,-5.13,-5.13,-5.13,-5.0989,-5.0513,-5.1086,-5.0989,-5.063,-5.1047,-5.13,-5.13,-5.13,-5.13,-5.13,-5.13,-5.13,-5.13,-5.13,-5.13,-5.13,-5.13,-5.13,-5.13,-5.13,-5.13,-5.13,-5.13,-5.13,-5.13,-5.13,-5.13,-5.13,-5.13,-5.1476,-5.1846,-5.282,-5.3755,-5.4457,-5.545,-5.586,-5.5587,-5.5567,-5.5314,-5.4749,-5.5275,-5.508,-5.395,-5.4924,-5.5314,-5.4807,-5.473,-5.434,-5.356,-5.3424,-5.3288,-5.2957,-5.245,-5.2138,-5.2119,-5.1671,-5.1425,-5.1355,-5.1375,-5.1391,-5.1389,-5.1398,-5.1394,-5.1402,-5.14,-5.1387,-5.1386,-5.1385,-5.1281,-5.1023,-5.0906,-5.0669,-5.0129,-4.9872,-4.9111,-4.7962,-4.7315,-4.6928,-4.6417,-4.63,-4.63,-4.63,-4.63,-4.63,-4.63,-4.63,-4.63,-4.63,-4.63,-4.63,-4.63,-4.63,-4.63,-4.63,-4.63,-4.63,-4.63,-4.63,-4.589,-4.4621,-4.3587,-4.2982,-4.3021,-4.3196,-4.2685,-4.1933,-4.1464,-4.1183,-5.13,-5.13,-5.13,-5.13,-5.13,-5.13,-5.0969,-5.0494,-5.1028,-5.0969,-5.0618,-5.1067,-5.13,-5.13,-5.13,-5.13,-5.13,-5.13,-5.13,-5.13,-5.13,-5.13,-5.13,-5.13,-5.13,-5.13,-5.13,-5.13,-5.13,-5.13,-5.13,-5.13,-5.13,-5.13,-5.13,-5.13,-5.1398,-5.1943,-5.3171,-5.4009,-5.4457,-5.5723,-5.6483,-5.6483,-5.6483,-5.623,-5.5665,-5.6191,-5.6015,-5.51,-5.5879,-5.623,-5.5684,-5.5626,-5.5236,-5.4437,-5.432,-5.4164,-5.3892,-5.3346,-5.3007,-5.2959,-5.2511,-5.2074,-5.1773,-5.1764,-5.1673,-5.1484,-5.139,-5.1401,-5.1394,-5.1389,-5.14,-5.1386,-5.1386,-5.1386,-5.1402,-5.1382,-5.1359,-5.1115,-5.0234,-4.9218,-4.8259,-4.7806,-4.7201,-4.6417,-4.63,-4.63,-4.63,-4.63,-4.63,-4.63,-4.63,-4.63,-4.63,-4.63,-4.63,-4.63,-4.63,-4.63,-4.63,-4.63,-4.63,-4.63,-4.6124,-4.5792,-4.5051,-4.3977,-4.3645,-4.3645,-4.3313,-4.2864,-4.2213,-4.1628,-4.1308,-5.13,-5.13,-5.13,-5.13,-5.13,-5.13,-5.1281,-5.1125,-5.125,-5.1211,-5.0989,-5.1242,-5.13,-5.13,-5.13,-5.13,-5.13,-5.13,-5.13,-5.13,-5.13,-5.13,-5.13,-5.13,-5.13,-5.13,-5.13,-5.13,-5.13,-5.13,-5.13,-5.13,-5.13,-5.13,-5.13,-5.1339,-5.169,-5.2411,-5.3288,-5.4184,-5.5158,-5.5879,-5.6366,-5.6405,-5.6444,-5.6464,-5.6405,-5.6483,-5.6425,-5.6366,-5.6405,-5.6483,-5.6386,-5.6386,-5.6074,-5.5372,-5.5217,-5.4788,-5.4164,-5.3989,-5.3883,-5.3798,-5.3731,-5.3263,-5.2709,-5.2601,-5.232,-5.17,-5.1525,-5.1458,-5.1429,-5.1398,-5.1385,-5.1396,-5.1384,-5.1387,-5.1386,-5.1384,-5.1402,-5.1203,-5.0188,-4.9074,-4.8721,-4.8228,-4.7442,-4.6599,-4.6303,-4.6303,-4.6303,-4.6303,-4.6303,-4.6303,-4.6287,-4.6293,-4.6287,-4.63,-4.63,-4.63,-4.63,-4.63,-4.63,-4.63,-4.63,-4.63,-4.63,-4.5968,-4.5304,-4.4348,-4.4211,-4.4114,-4.3626,-4.3118,-4.2669,-4.21,-4.1374,-5.13,-5.13,-5.13,-5.13,-5.13,-5.13,-5.0989,-5.0513,-5.1028,-5.0969,-5.0599,-5.1047,-5.13,-5.13,-5.13,-5.13,-5.13,-5.13,-5.13,-5.13,-5.13,-5.13,-5.13,-5.13,-5.13,-5.13,-5.13,-5.13,-5.13,-5.13,-5.13,-5.13,-5.13,-5.13,-5.13,-5.132,-5.1495,-5.1768,-5.2567,-5.3171,-5.3522,-5.4846,-5.5587,-5.5665,-5.6171,-5.6483,-5.6483,-5.6483,-5.6483,-5.6483,-5.6483,-5.6483,-5.6483,-5.6483,-5.6366,-5.6152,-5.6113,-5.6015,-5.5665,-5.5119,-5.4751,-5.4616,-5.4198,-5.373,-5.3466,-5.3399,-5.302,-5.2321,-5.2214,-5.2044,-5.1523,-5.1394,-5.1398,-5.1382,-5.1389,-5.1396,-5.1385,-5.1386,-5.1384,-5.1366,-5.0937,-5.0195,-4.9199,-4.8535,-4.7924,-4.6571,-4.6315,-4.6351,-4.6306,-4.6293,-4.63,-4.6297,-4.6301,-4.6301,-4.63,-4.6295,-4.6293,-4.6287,-4.6303,-4.63,-4.63,-4.63,-4.63,-4.63,-4.63,-4.6046,-4.5382,-4.5031,-4.4894,-4.4348,-4.3743,-4.3391,-4.3157,-4.2533,-4.169,-5.13,-5.13,-5.13,-5.13,-5.13,-5.13,-5.1008,-5.0591,-5.1047,-5.0989,-5.0689,-5.1047,-5.13,-5.13,-5.13,-5.13,-5.13,-5.13,-5.13,-5.13,-5.13,-5.13,-5.13,-5.13,-5.13,-5.13,-5.13,-5.13,-5.13,-5.13,-5.13,-5.13,-5.13,-5.13,-5.13,-5.13,-5.13,-5.1417,-5.2158,-5.2606,-5.2898,-5.3989,-5.471,-5.4807,-5.5256,-5.5684,-5.5976,-5.6015,-5.6171,-5.6425,-5.6483,-5.6483,-5.6483,-5.6483,-5.6483,-5.6483,-5.6474,-5.6455,-5.6416,-5.5911,-5.5629,-5.5463,-5.5041,-5.4397,-5.3977,-5.3786,-5.333,-5.2309,-5.2021,-5.1889,-5.1469,-5.139,-5.1394,-5.1394,-5.1394,-5.1402,-5.1394,-5.1386,-5.1386,-5.1387,-5.1328,-5.0547,-4.9433,-4.9219,-4.8457,-4.6893,-4.6576,-4.6575,-4.6449,-4.6295,-4.6297,-4.6301,-4.6303,-4.6305,-4.6306,-4.6305,-4.6301,-4.6295,-4.6306,-4.6303,-4.63,-4.63,-4.63,-4.63,-4.63,-4.628,-4.5734,-4.5656,-4.548,-4.4699,-4.3782,-4.3645,-4.3333,-4.2552,-4.1752,-5.13,-5.13,-5.13,-5.13,-5.13,-5.13,-5.1261,-5.1261,-5.1281,-5.1261,-5.1261,-5.1261,-5.13,-5.13,-5.13,-5.13,-5.13,-5.13,-5.13,-5.13,-5.13,-5.13,-5.13,-5.13,-5.13,-5.13,-5.13,-5.13,-5.13,-5.13,-5.13,-5.13,-5.13,-5.13,-5.13,-5.13,-5.13,-5.1417,-5.208,-5.245,-5.2489,-5.3366,-5.3833,-5.3853,-5.402,-5.4487,-5.5217,-5.5461,-5.5801,-5.6366,-5.6483,-5.6483,-5.6483,-5.6483,-5.6483,-5.6347,-5.6329,-5.6183,-5.6213,-5.5882,-5.5861,-5.5769,-5.5633,-5.5532,-5.3992,-5.3676,-5.3145,-5.1783,-5.1522,-5.1409,-5.1375,-5.1377,-5.139,-5.1394,-5.1394,-5.1394,-5.1398,-5.14,-5.1386,-5.1387,-5.1308,-5.0762,-4.9199,-4.9531,-4.8613,-4.7168,-4.6854,-4.6791,-4.6532,-4.6295,-4.6295,-4.63,-4.6306,-4.6289,-4.6289,-4.6289,-4.6289,-4.6305,-4.63,-4.6295,-4.6306,-4.6303,-4.63,-4.63,-4.6183,-4.6202,-4.5968,-4.5617,-4.5129,-4.4231,-4.3762,-4.3762,-4.3216,-4.2337,-4.1771,-5.13,-5.13,-5.13,-5.13,-5.13,-5.13,-5.13,-5.13,-5.13,-5.13,-5.13,-5.13,-5.13,-5.13,-5.13,-5.13,-5.13,-5.13,-5.13,-5.13,-5.13,-5.13,-5.13,-5.13,-5.13,-5.13,-5.13,-5.13,-5.13,-5.13,-5.13,-5.13,-5.13,-5.13,-5.13,-5.13,-5.13,-5.13,-5.1495,-5.1671,-5.1807,-5.2508,-5.2937,-5.2995,-5.3522,-5.4242,-5.515,-5.5784,-5.6173,-5.6425,-5.6483,-5.6483,-5.6483,-5.6444,-5.6163,-5.5647,-5.5463,-5.5152,-5.4675,-5.4557,-5.4527,-5.4474,-5.4618,-5.4237,-5.3819,-5.3709,-5.3159,-5.2313,-5.2115,-5.1869,-5.1447,-5.1352,-5.139,-5.1394,-5.1394,-5.1394,-5.1394,-5.1402,-5.1396,-5.1387,-5.1387,-5.0566,-4.9512,-4.9062,-4.8574,-4.6973,-4.6562,-4.6677,-4.6419,-4.6301,-4.6303,-4.6288,-4.6289,-4.6306,-4.6301,-4.6297,-4.6303,-4.6289,-4.6288,-4.6306,-4.6297,-4.6303,-4.6303,-4.63,-4.5929,-4.5851,-4.5226,-4.4699,-4.4094,-4.386,-4.3704,-4.3606,-4.2747,-4.1908,-4.1537,-5.13,-5.13,-5.13,-5.13,-5.13,-5.13,-5.13,-5.13,-5.13,-5.13,-5.13,-5.13,-5.13,-5.13,-5.13,-5.13,-5.13,-5.13,-5.13,-5.13,-5.13,-5.13,-5.13,-5.13,-5.13,-5.13,-5.13,-5.13,-5.13,-5.13,-5.13,-5.13,-5.13,-5.13,-5.13,-5.13,-5.13,-5.13,-5.13,-5.13,-5.1359,-5.1768,-5.1982,-5.2119,-5.2606,-5.3202,-5.407,-5.4859,-5.5599,-5.6183,-5.6437,-5.6456,-5.6388,-5.6057,-5.5658,-5.5083,-5.4792,-5.4304,-5.3944,-5.3766,-5.3755,-5.3751,-5.3751,-5.3521,-5.3249,-5.3125,-5.2757,-5.1897,-5.1874,-5.1657,-5.1394,-5.1291,-5.1377,-5.139,-5.1394,-5.1394,-5.1394,-5.1394,-5.1385,-5.1398,-5.1305,-5.0781,-4.9179,-4.9219,-4.8301,-4.7051,-4.6738,-4.6621,-4.6402,-4.6346,-4.6289,-4.6289,-4.6287,-4.6305,-4.63,-4.6295,-4.6295,-4.6306,-4.6288,-4.6289,-4.6287,-4.6297,-4.6293,-4.6195,-4.5779,-4.5402,-4.5012,-4.4602,-4.425,-4.4036,-4.3782,-4.3099,-4.222,-4.183,-4.1439,-5.13,-5.13,-5.13,-5.13,-5.13,-5.13,-5.13,-5.13,-5.13,-5.13,-5.13,-5.13,-5.13,-5.13,-5.13,-5.13,-5.13,-5.13,-5.13,-5.13,-5.13,-5.13,-5.13,-5.13,-5.13,-5.13,-5.13,-5.13,-5.13,-5.13,-5.13,-5.13,-5.13,-5.13,-5.13,-5.13,-5.13,-5.13,-5.13,-5.13,-5.13,-5.1417,-5.1476,-5.1515,-5.176,-5.2152,-5.2835,-5.3546,-5.45,-5.5947,-5.6094,-5.5939,-5.5858,-5.5286,-5.4879,-5.4597,-5.4002,-5.3591,-5.3452,-5.3227,-5.33,-5.3222,-5.3243,-5.3119,-5.2427,-5.2191,-5.1891,-5.1233,-5.1075,-5.119,-5.12,-5.1245,-5.1336,-5.1386,-5.1394,-5.1394,-5.1394,-5.1394,-5.1394,-5.1394,-5.1391,-5.0599,-4.9803,-4.9375,-4.9141,-4.7207,-4.6894,-4.6582,-4.6406,-4.6328,-4.6307,-4.6303,-4.6303,-4.6303,-4.63,-4.6293,-4.6295,-4.63,-4.6301,-4.6305,-4.6287,-4.6289,-4.6306,-4.6126,-4.5687,-4.5581,-4.5578,-4.5148,-4.4484,-4.3782,-4.3235,-4.2454,-4.1674,-4.1693,-4.1479,-5.13,-5.13,-5.13,-5.13,-5.13,-5.13,-5.13,-5.13,-5.13,-5.13,-5.13,-5.13,-5.13,-5.13,-5.13,-5.13,-5.13,-5.13,-5.13,-5.13,-5.13,-5.13,-5.13,-5.13,-5.13,-5.13,-5.13,-5.13,-5.13,-5.13,-5.13,-5.13,-5.13,-5.13,-5.13,-5.13,-5.13,-5.13,-5.13,-5.13,-5.13,-5.13,-5.13,-5.1359,-5.1869,-5.2271,-5.2621,-5.3308,-5.3868,-5.4128,-5.43,-5.438,-5.4427,-5.4225,-5.3827,-5.331,-5.2969,-5.25,-5.1952,-5.1851,-5.169,-5.1826,-5.1864,-5.1566,-5.1383,-5.1349,-5.1203,-5.0971,-5.1042,-5.1125,-5.1219,-5.1269,-5.1336,-5.1381,-5.1394,-5.1394,-5.1394,-5.1394,-5.1394,-5.1394,-5.1359,-5.0992,-4.9963,-4.9367,-4.8727,-4.7499,-4.6951,-4.6575,-4.6399,-4.6301,-4.63,-4.6297,-4.6297,-4.63,-4.6293,-4.6287,-4.629,-4.6293,-4.6293,-4.6295,-4.63,-4.6306,-4.6289,-4.6012,-4.559,-4.5626,-4.5818,-4.4875,-4.4075,-4.3372,-4.2747,-4.2106,-4.1638,-4.1638,-4.1518,-5.13,-5.13,-5.13,-5.13,-5.13,-5.13,-5.13,-5.13,-5.13,-5.13,-5.13,-5.13,-5.13,-5.13,-5.13,-5.13,-5.13,-5.13,-5.13,-5.13,-5.13,-5.13,-5.13,-5.13,-5.13,-5.13,-5.13,-5.13,-5.13,-5.13,-5.13,-5.13,-5.13,-5.13,-5.13,-5.13,-5.13,-5.13,-5.13,-5.13,-5.13,-5.13,-5.1292,-5.1323,-5.1706,-5.1901,-5.1897,-5.2193,-5.2408,-5.2453,-5.253,-5.2962,-5.3455,-5.3343,-5.29,-5.2539,-5.1991,-5.1707,-5.1256,-5.1121,-5.1133,-5.1089,-5.1081,-5.1053,-5.1005,-5.099,-5.0941,-5.0941,-5.0981,-5.1069,-5.1228,-5.1245,-5.1303,-5.1381,-5.1394,-5.1394,-5.1394,-5.1394,-5.1394,-5.1394,-5.1394,-5.0926,-5.0246,-4.967,-4.8811,-4.7862,-4.7419,-4.7022,-4.6373,-4.6295,-4.6295,-4.6293,-4.6295,-4.6293,-4.6306,-4.6303,-4.6303,-4.6303,-4.6306,-4.6306,-4.629,-4.6301,-4.6287,-4.6015,-4.5798,-4.5848,-4.5807,-4.4767,-4.3983,-4.3498,-4.2934,-4.2112,-4.1563,-4.1423,-4.1325,-5.13,-5.13,-5.13,-5.13,-5.13,-5.13,-5.13,-5.13,-5.13,-5.13,-5.13,-5.13,-5.13,-5.13,-5.13,-5.13,-5.13,-5.13,-5.13,-5.13,-5.13,-5.13,-5.13,-5.13,-5.13,-5.13,-5.13,-5.13,-5.13,-5.13,-5.13,-5.13,-5.13,-5.13,-5.13,-5.1292,-5.1292,-5.13,-5.1292,-5.1292,-5.13,-5.1292,-5.1284,-5.1259,-5.1268,-5.1284,-5.1249,-5.1289,-5.1205,-5.1101,-5.1089,-5.1845,-5.2582,-5.2661,-5.22,-5.2173,-5.1535,-5.1231,-5.116,-5.1081,-5.1073,-5.1067,-5.102,-5.1005,-5.0971,-5.0941,-5.0906,-5.0906,-5.0937,-5.099,-5.118,-5.122,-5.1269,-5.1352,-5.1394,-5.1394,-5.1394,-5.1394,-5.1394,-5.1394,-5.1394,-5.1063,-5.0633,-5.011,-4.9169,-4.8353,-4.7935,-4.7432,-4.6803,-4.6309,-4.6329,-4.6309,-4.6293,-4.629,-4.6303,-4.63,-4.63,-4.63,-4.63,-4.63,-4.6303,-4.6297,-4.6305,-4.6305,-4.6191,-4.6172,-4.5937,-4.5227,-4.4503,-4.3899,-4.3079,-4.224,-4.1689,-4.1253,-4.1153,-5.13,-5.13,-5.13,-5.13,-5.13,-5.13,-5.13,-5.13,-5.13,-5.13,-5.13,-5.13,-5.13,-5.13,-5.13,-5.13,-5.13,-5.13,-5.13,-5.13,-5.13,-5.13,-5.13,-5.13,-5.13,-5.13,-5.13,-5.13,-5.13,-5.13,-5.13,-5.13,-5.13,-5.13,-5.1292,-5.1304,-5.1304,-5.1284,-5.1284,-5.1304,-5.1284,-5.1276,-5.122,-5.1169,-5.1136,-5.112,-5.1089,-5.1048,-5.102,-5.1039,-5.102,-5.1189,-5.1527,-5.1535,-5.1476,-5.1393,-5.1257,-5.1069,-5.1081,-5.1053,-5.102,-5.1005,-5.0956,-5.0921,-5.0906,-5.0906,-5.0906,-5.0906,-5.0921,-5.0976,-5.119,-5.1211,-5.1281,-5.1347,-5.1394,-5.1394,-5.1394,-5.1394,-5.1394,-5.1394,-5.1375,-5.1355,-5.0965,-5.0575,-4.993,-4.9169,-4.8607,-4.7994,-4.7293,-4.6742,-4.6404,-4.6368,-4.629,-4.6306,-4.63,-4.63,-4.63,-4.63,-4.63,-4.63,-4.6306,-4.6295,-4.6301,-4.6303,-4.6289,-4.625,-4.5937,-4.5488,-4.4918,-4.4212,-4.3298,-4.2363,-4.1814,-4.1322,-4.1164,-5.13,-5.13,-5.13,-5.13,-5.13,-5.13,-5.13,-5.13,-5.13,-5.13,-5.13,-5.13,-5.13,-5.13,-5.13,-5.13,-5.13,-5.13,-5.13,-5.13,-5.13,-5.13,-5.13,-5.13,-5.13,-5.1292,-5.1312,-5.1312,-5.13,-5.13,-5.13,-5.13,-5.13,-5.1292,-5.1304,-5.1295,-5.1287,-5.1267,-5.1258,-5.1249,-5.1258,-5.123,-5.1139,-5.1105,-5.1076,-5.1042,-5.1034,-5.0971,-5.0971,-5.1005,-5.1005,-5.102,-5.1067,-5.1095,-5.114,-5.1101,-5.1062,-5.1042,-5.1053,-5.1005,-5.0956,-5.0956,-5.0906,-5.0906,-5.0906,-5.0906,-5.0906,-5.0906,-5.0906,-5.0966,-5.1125,-5.1161,-5.1245,-5.133,-5.1381,-5.1394,-5.1394,-5.1394,-5.1394,-5.1394,-5.1394,-5.1375,-5.1355,-5.0965,-5.0594,-5.0008,-4.9345,-4.859,-4.7818,-4.7249,-4.6733,-4.6365,-4.6287,-4.6306,-4.63,-4.63,-4.63,-4.63,-4.6303,-4.6303,-4.6303,-4.6295,-4.6301,-4.6306,-4.6289,-4.6289,-4.6016,-4.5605,-4.5058,-4.4453,-4.3379,-4.2441,-4.1875,-4.1464,-4.125,-5.13,-5.13,-5.13,-5.13,-5.13,-5.13,-5.13,-5.13,-5.13,-5.13,-5.13,-5.13,-5.13,-5.13,-5.13,-5.13,-5.13,-5.13,-5.13,-5.13,-5.13,-5.13,-5.13,-5.1292,-5.1312,-5.1304,-5.1267,-5.1295,-5.1304,-5.1284,-5.1265,-5.1265,-5.1284,-5.1276,-5.1287,-5.1269,-5.124,-5.122,-5.1201,-5.1201,-5.118,-5.1128,-5.1093,-5.1069,-5.1029,-5.0986,-5.0971,-5.0921,-5.0941,-5.0956,-5.0971,-5.099,-5.1044,-5.1058,-5.1053,-5.1053,-5.102,-5.1005,-5.0971,-5.0941,-5.0925,-5.0906,-5.0906,-5.0906,-5.0906,-5.0906,-5.0906,-5.0906,-5.0906,-5.0952,-5.1076,-5.1139,-5.1219,-5.131,-5.1352,-5.1394,-5.1394,-5.1394,-5.1394,-5.1394,-5.1394,-5.1394,-5.1375,-5.1336,-5.0965,-5.0633,-4.9969,-4.9118,-4.8362,-4.7712,-4.7159,-4.6554,-4.6303,-4.6303,-4.63,-4.63,-4.63,-4.63,-4.6303,-4.6306,-4.6306,-4.629,-4.6297,-4.6303,-4.6289,-4.625,-4.5996,-4.584,-4.5547,-4.4824,-4.3496,-4.2754,-4.2539,-4.1816,-4.123,-5.13,-5.13,-5.13,-5.13,-5.13,-5.13,-5.13,-5.13,-5.13,-5.13,-5.1292,-5.13,-5.13,-5.13,-5.13,-5.13,-5.13,-5.13,-5.13,-5.13,-5.1292,-5.1292,-5.1292,-5.1304,-5.1295,-5.1287,-5.1249,-5.1249,-5.1278,-5.123,-5.122,-5.122,-5.123,-5.1211,-5.1211,-5.122,-5.121,-5.1201,-5.12,-5.1159,-5.1117,-5.1125,-5.1076,-5.1029,-5.102,-5.0971,-5.0921,-5.0906,-5.0906,-5.0906,-5.0906,-5.0925,-5.0925,-5.0925,-5.0906,-5.0921,-5.0937,-5.0971,-5.0921,-5.0906,-5.0906,-5.0906,-5.0906,-5.0906,-5.0906,-5.0906,-5.0906,-5.0906,-5.0906,-5.0937,-5.105,-5.1139,-5.1219,-5.1284,-5.1366,-5.139,-5.1394,-5.1394,-5.1394,-5.1394,-5.1394,-5.1394,-5.1394,-5.1394,-5.1336,-5.1004,-5.0535,-4.9625,-4.8672,-4.7845,-4.7256,-4.6573,-4.63,-4.63,-4.63,-4.63,-4.63,-4.63,-4.6287,-4.6293,-4.6297,-4.6297,-4.6306,-4.6297,-4.6306,-4.6289,-4.6152,-4.6055,-4.6016,-4.5254,-4.4004,-4.3633,-4.3535,-4.2617,-4.1582,-5.1276,-5.13,-5.1312,-5.1312,-5.13,-5.13,-5.13,-5.13,-5.13,-5.1304,-5.1306,-5.1312,-5.13,-5.13,-5.13,-5.13,-5.13,-5.1312,-5.1312,-5.1284,-5.1256,-5.1239,-5.1239,-5.1249,-5.1249,-5.124,-5.1201,-5.121,-5.122,-5.123,-5.1211,-5.1211,-5.1201,-5.1171,-5.115,-5.1147,-5.1125,-5.1132,-5.1159,-5.1127,-5.1102,-5.1069,-5.1023,-5.0986,-5.0971,-5.0941,-5.0925,-5.0906,-5.0906,-5.0906,-5.0906,-5.0906,-5.0906,-5.0906,-5.0906,-5.0906,-5.0921,-5.0941,-5.0906,-5.0906,-5.0906,-5.0906,-5.0906,-5.0906,-5.0906,-5.0906,-5.0906,-5.0906,-5.0906,-5.0937,-5.1009,-5.1117,-5.1181,-5.1253,-5.1336,-5.1381,-5.1394,-5.1394,-5.1394,-5.1394,-5.1394,-5.1394,-5.1394,-5.1394,-5.1219,-5.077,-5.0262,-4.9466,-4.8353,-4.724,-4.6788,-4.6417,-4.63,-4.63,-4.63,-4.63,-4.63,-4.6303,-4.6295,-4.63,-4.6307,-4.6306,-4.63,-4.6295,-4.6305,-4.6289,-4.6269,-4.5976,-4.5683,-4.5137,-4.4531,-4.4199,-4.3887,-4.3574,-4.2656,-5.122,-5.1284,-5.1287,-5.1267,-5.1265,-5.1273,-5.1281,-5.1281,-5.1265,-5.1287,-5.1306,-5.1304,-5.13,-5.13,-5.13,-5.1292,-5.1312,-5.1295,-5.1295,-5.1248,-5.123,-5.121,-5.12,-5.1189,-5.118,-5.118,-5.1167,-5.1175,-5.1175,-5.1167,-5.1159,-5.1161,-5.1159,-5.1136,-5.1113,-5.1088,-5.1095,-5.1108,-5.1095,-5.1081,-5.1048,-5.102,-5.1005,-5.0971,-5.0921,-5.0906,-5.0906,-5.0906,-5.0906,-5.0906,-5.0906,-5.0906,-5.0906,-5.0906,-5.0906,-5.0906,-5.0906,-5.0906,-5.0906,-5.0906,-5.0906,-5.0906,-5.0906,-5.0906,-5.0906,-5.0906,-5.0906,-5.0906,-5.0906,-5.0906,-5.0937,-5.1088,-5.1169,-5.1248,-5.131,-5.1347,-5.139,-5.1394,-5.1394,-5.1394,-5.1394,-5.1394,-5.1394,-5.1394,-5.1121,-5.0594,-4.995,-4.9247,-4.8135,-4.6866,-4.6534,-4.63,-4.63,-4.63,-4.63,-4.63,-4.63,-4.6264,-4.6256,-4.6265,-4.623,-4.6269,-4.6287,-4.6307,-4.6269,-4.6289,-4.6289,-4.5781,-4.5332,-4.5273,-4.5098,-4.4473,-4.4082,-4.3926,-4.3633,-5.1197,-5.1211,-5.1191,-5.1211,-5.1201,-5.1226,-5.1222,-5.1234,-5.121,-5.1249,-5.1276,-5.1292,-5.1292,-5.1292,-5.1292,-5.1304,-5.1306,-5.1306,-5.1258,-5.122,-5.1201,-5.1186,-5.1171,-5.1139,-5.1113,-5.112,-5.1114,-5.1108,-5.1114,-5.1121,-5.1114,-5.1127,-5.1114,-5.1108,-5.1095,-5.1075,-5.1062,-5.1067,-5.1067,-5.1053,-5.102,-5.1005,-5.0971,-5.0941,-5.0906,-5.0906,-5.0906,-5.0906,-5.0906,-5.0906,-5.0906,-5.0906,-5.0906,-5.0906,-5.0906,-5.0906,-5.0906,-5.0906,-5.0906,-5.0906,-5.0906,-5.0906,-5.0906,-5.0906,-5.0906,-5.0906,-5.0906,-5.0906,-5.0906,-5.0906,-5.0937,-5.1023,-5.1136,-5.1211,-5.1261,-5.1355,-5.1381,-5.1394,-5.1394,-5.1394,-5.1297,-5.1121,-5.0887,-5.077,-5.0926,-5.0457,-4.9481,-4.8759,-4.7822,-4.6749,-4.6475,-4.63,-4.63,-4.63,-4.63,-4.63,-4.63,-4.6167,-4.6075,-4.6108,-4.6133,-4.6152,-4.5703,-4.6211,-4.6172,-4.623,-4.6289,-4.5996,-4.582,-4.5898,-4.5683,-4.5137,-4.4785,-4.4648,-4.4277,-5.1069,-5.1017,-5.1056,-5.1128,-5.1211,-5.1152,-5.1161,-5.1181,-5.1101,-5.112,-5.1171,-5.122,-5.1239,-5.1239,-5.1276,-5.1287,-5.1249,-5.1249,-5.122,-5.119,-5.1159,-5.1127,-5.1127,-5.1114,-5.1089,-5.1075,-5.1081,-5.1081,-5.1101,-5.1053,-5.1053,-5.1048,-5.1067,-5.1067,-5.1034,-5.1005,-5.099,-5.099,-5.099,-5.0956,-5.0956,-5.0941,-5.0941,-5.0906,-5.0906,-5.0906,-5.0906,-5.0906,-5.0906,-5.0906,-5.0906,-5.0906,-5.0906,-5.0906,-5.0906,-5.0906,-5.0906,-5.0906,-5.0906,-5.0906,-5.0906,-5.0906,-5.0906,-5.0906,-5.0906,-5.0906,-5.0906,-5.0906,-5.0906,-5.0906,-5.0921,-5.1004,-5.1117,-5.1161,-5.1228,-5.1317,-5.1372,-5.1386,-5.1238,-5.116,-5.0809,-5.0496,-5.0243,-5.0008,-5.0223,-5.0282,-4.9247,-4.8232,-4.7315,-4.669,-4.6436,-4.63,-4.63,-4.63,-4.63,-4.63,-4.63,-4.6128,-4.5955,-4.595,-4.5879,-4.4805,-4.4609,-4.5312,-4.5937,-4.5801,-4.5879,-4.6191,-4.623,-4.6152,-4.6074,-4.5898,-4.5625,-4.5351,-4.5,-5.0932,-5.0906,-5.0981,-5.103,-5.1117,-5.1072,-5.1081,-5.1093,-5.1,-5.102,-5.1093,-5.1139,-5.118,-5.122,-5.122,-5.122,-5.1169,-5.1178,-5.1189,-5.1167,-5.1132,-5.1075,-5.1067,-5.1053,-5.1053,-5.1053,-5.102,-5.102,-5.102,-5.099,-5.099,-5.1005,-5.1024,-5.1005,-5.0971,-5.0921,-5.0906,-5.0906,-5.0906,-5.0906,-5.0906,-5.0906,-5.0906,-5.0906,-5.0906,-5.0906,-5.0906,-5.0906,-5.0906,-5.0906,-5.0906,-5.0906,-5.0906,-5.0906,-5.0906,-5.0906,-5.0906,-5.0906,-5.0906,-5.0906,-5.0906,-5.0906,-5.0906,-5.0906,-5.0906,-5.0906,-5.0906,-5.0906,-5.0906,-5.0906,-5.0906,-5.1009,-5.1069,-5.1128,-5.12,-5.1284,-5.1361,-5.1381,-5.1113,-5.0906,-5.0496,-5.0087,-4.9599,-4.9325,-4.915,-4.9247,-4.8662,-4.7705,-4.6885,-4.6456,-4.6378,-4.63,-4.63,-4.63,-4.63,-4.63,-4.63,-4.6261,-4.6072,-4.585,-4.5469,-4.4433,-4.4121,-4.5058,-4.5449,-4.5293,-4.5312,-4.543,-4.584,-4.625,-4.6191,-4.6133,-4.6113,-4.582,-4.5781,-5.0906,-5.0906,-5.0971,-5.0971,-5.0917,-5.0966,-5.0972,-5.0952,-5.0925,-5.0971,-5.1063,-5.1088,-5.1144,-5.1167,-5.1147,-5.1125,-5.112,-5.1108,-5.1101,-5.1101,-5.1102,-5.1058,-5.1029,-5.0995,-5.099,-5.0925,-5.0941,-5.0941,-5.0941,-5.0941,-5.0925,-5.0925,-5.0941,-5.0921,-5.0906,-5.0906,-5.0906,-5.0906,-5.0906,-5.0906,-5.0906,-5.0906,-5.0906,-5.0906,-5.0906,-5.0906,-5.0906,-5.0906,-5.0906,-5.0906,-5.0906,-5.0906,-5.0906,-5.0906,-5.0906,-5.0906,-5.0906,-5.0906,-5.0906,-5.0906,-5.0906,-5.0906,-5.0906,-5.0906,-5.0906,-5.0906,-5.0906,-5.0906,-5.0906,-5.0906,-5.0941,-5.0971,-5.1056,-5.1113,-5.1191,-5.1269,-5.1343,-5.1381,-5.1156,-5.0789,-5.0301,-4.9794,-4.9169,-4.8642,-4.8213,-4.7998,-4.7744,-4.7198,-4.6515,-4.63,-4.63,-4.63,-4.63,-4.63,-4.63,-4.63,-4.628,-4.628,-4.6075,-4.5717,-4.543,-4.4785,-4.4746,-4.5117,-4.5156,-4.5156,-4.4863,-4.459,-4.5293,-4.5996,-4.623,-4.6269,-4.6289,-4.623,-4.6035,-5.081,-5.0776,-5.0827,-5.0827,-5.0775,-5.0887,-5.0932,-5.0909,-5.0904,-5.0924,-5.0975,-5.1015,-5.1089,-5.1114,-5.1108,-5.1082,-5.1075,-5.1075,-5.1089,-5.1089,-5.1048,-5.1024,-5.0979,-5.096,-5.0941,-5.0906,-5.0906,-5.0906,-5.0906,-5.0906,-5.0906,-5.0906,-5.0906,-5.0906,-5.0906,-5.0906,-5.0906,-5.0906,-5.0906,-5.0906,-5.0906,-5.0906,-5.0906,-5.0906,-5.0906,-5.0906,-5.0906,-5.0906,-5.0906,-5.0906,-5.0906,-5.0906,-5.0906,-5.0906,-5.0906,-5.0906,-5.0906,-5.0906,-5.0906,-5.0906,-5.0906,-5.0906,-5.0906,-5.0906,-5.0906,-5.0906,-5.0906,-5.0906,-5.0906,-5.0906,-5.0906,-5.1005,-5.1095,-5.1127,-5.1189,-5.1256,-5.133,-5.1372,-5.1238,-5.077,-5.0301,-4.8896,-4.7998,-4.8174,-4.79,-4.7627,-4.7471,-4.7081,-4.6475,-4.6339,-4.63,-4.63,-4.63,-4.63,-4.63,-4.63,-4.6306,-4.629,-4.585,-4.5292,-4.5,-4.4941,-4.4863,-4.4961,-4.5019,-4.5058,-4.5,-4.5019,-4.5273,-4.5723,-4.5781,-4.5913,-4.5918,-4.5937,-4.5957,-5.074,-5.0702,-5.0758,-5.072,-5.0721,-5.0805,-5.0855,-5.0846,-5.0817,-5.0836,-5.0863,-5.089,-5.0937,-5.099,-5.1005,-5.1,-5.101,-5.101,-5.1,-5.1005,-5.0971,-5.096,-5.0945,-5.0945,-5.0925,-5.0906,-5.0906,-5.0906,-5.0906,-5.0906,-5.0906,-5.0906,-5.0906,-5.0906,-5.0906,-5.0906,-5.0906,-5.0906,-5.0906,-5.0906,-5.0906,-5.0906,-5.0906,-5.0906,-5.0906,-5.0906,-5.0906,-5.0906,-5.0906,-5.0906,-5.0906,-5.0906,-5.0906,-5.0906,-5.0906,-5.0906,-5.0906,-5.0906,-5.0906,-5.0906,-5.0906,-5.0906,-5.0906,-5.0906,-5.0906,-5.0906,-5.0906,-5.0906,-5.0906,-5.0941,-5.0956,-5.1053,-5.1095,-5.1134,-5.1178,-5.1258,-5.13,-5.133,-5.1167,-5.0718,-5.0184,-4.8603,-4.7432,-4.7471,-4.7666,-4.7451,-4.7237,-4.6866,-4.6515,-4.6378,-4.6306,-4.629,-4.629,-4.629,-4.6306,-4.63,-4.6287,-4.6295,-4.5879,-4.5371,-4.5234,-4.5273,-4.5039,-4.4824,-4.5,-4.5176,-4.541,-4.5547,-4.5273,-4.5098,-4.5039,-4.5208,-4.5425,-4.5707,-4.593,-5.0683,-5.0702,-5.0702,-5.0702,-5.0702,-5.0769,-5.0752,-5.0721,-5.0721,-5.074,-5.0793,-5.0738,-5.081,-5.088,-5.0827,-5.0827,-5.0827,-5.088,-5.0874,-5.0887,-5.0906,-5.0909,-5.0925,-5.0906,-5.0906,-5.0906,-5.089,-5.089,-5.089,-5.0909,-5.0909,-5.0906,-5.0906,-5.0906,-5.0906,-5.0906,-5.0906,-5.0906,-5.0906,-5.0906,-5.0906,-5.0906,-5.0906,-5.0906,-5.0906,-5.0906,-5.0906,-5.0906,-5.0906,-5.0906,-5.0906,-5.0906,-5.0906,-5.0906,-5.0906,-5.0906,-5.0906,-5.0906,-5.0906,-5.0906,-5.0906,-5.0906,-5.0906,-5.0906,-5.0906,-5.0906,-5.0906,-5.0906,-5.0921,-5.0956,-5.1005,-5.1048,-5.1075,-5.112,-5.1159,-5.1211,-5.123,-5.1164,-5.0972,-5.0645,-5.0313,-4.9341,-4.8545,-4.831,-4.8096,-4.7822,-4.7627,-4.7198,-4.6827,-4.6397,-4.6329,-4.6301,-4.6301,-4.6297,-4.6289,-4.6289,-4.6297,-4.6305,-4.6289,-4.5937,-4.5801,-4.5625,-4.5488,-4.5332,-4.5156,-4.5293,-4.5664,-4.5332,-4.4707,-4.4629,-4.4922,-4.5134,-4.5558,-4.5899,-4.5963,-5.0683,-5.0683,-5.0683,-5.0683,-5.0702,-5.072,-5.0721,-5.0683,-5.0683,-5.0721,-5.0721,-5.0701,-5.0757,-5.0829,-5.081,-5.0812,-5.081,-5.0827,-5.0841,-5.0858,-5.0874,-5.0893,-5.0909,-5.089,-5.089,-5.089,-5.0909,-5.0893,-5.0897,-5.0897,-5.0893,-5.089,-5.0909,-5.089,-5.0906,-5.0906,-5.0906,-5.0906,-5.0906,-5.0906,-5.0906,-5.0906,-5.0906,-5.0906,-5.0906,-5.0906,-5.0906,-5.0906,-5.0906,-5.0906,-5.0906,-5.0906,-5.0906,-5.0906,-5.0906,-5.0906,-5.0906,-5.0906,-5.0906,-5.0906,-5.0906,-5.0906,-5.0906,-5.0906,-5.0906,-5.0906,-5.0921,-5.0956,-5.0971,-5.1005,-5.1034,-5.1075,-5.1102,-5.1139,-5.1178,-5.121,-5.123,-5.1189,-5.1004,-5.0946,-5.0577,-5.0098,-4.936,-4.9111,-4.8876,-4.8486,-4.8076,-4.7647,-4.7081,-4.6632,-4.6332,-4.6305,-4.6289,-4.6289,-4.6289,-4.6289,-4.6289,-4.6289,-4.6289,-4.6289,-4.6133,-4.5976,-4.5937,-4.584,-4.5683,-4.5781,-4.6016,-4.5566,-4.5137,-4.5137,-4.5371,-4.5488,-4.5662,-4.6028,-4.5787,-5.0683,-5.0683,-5.0683,-5.0683,-5.0683,-5.0683,-5.0683,-5.0683,-5.0683,-5.0683,-5.0683,-5.0702,-5.072,-5.0758,-5.0757,-5.0757,-5.0758,-5.0829,-5.0846,-5.0812,-5.0863,-5.0844,-5.0841,-5.0841,-5.0841,-5.0877,-5.0877,-5.088,-5.0899,-5.0899,-5.0897,-5.0909,-5.0909,-5.0909,-5.0909,-5.0906,-5.0906,-5.0906,-5.0906,-5.0906,-5.0906,-5.0906,-5.0906,-5.0906,-5.0906,-5.0906,-5.0906,-5.0906,-5.0906,-5.0906,-5.0906,-5.0906,-5.0906,-5.0906,-5.0906,-5.0906,-5.0906,-5.0906,-5.0906,-5.0906,-5.0906,-5.0925,-5.0925,-5.0925,-5.0941,-5.0956,-5.0971,-5.099,-5.102,-5.1067,-5.1075,-5.1082,-5.1114,-5.1159,-5.1175,-5.1208,-5.122,-5.1249,-5.1234,-5.1239,-5.0951,-5.0513,-5.0152,-4.9926,-4.97,-4.9391,-4.8961,-4.8427,-4.7588,-4.6729,-4.6434,-4.6307,-4.6289,-4.6289,-4.6289,-4.6289,-4.6289,-4.6289,-4.6289,-4.6289,-4.6289,-4.625,-4.6133,-4.6172,-4.6211,-4.625,-4.6191,-4.623,-4.5976,-4.5898,-4.5762,-4.5859,-4.5957,-4.6112,-4.5523,-5.0683,-5.0683,-5.0683,-5.0683,-5.0683,-5.0683,-5.0683,-5.0683,-5.0683,-5.0683,-5.0683,-5.0683,-5.0702,-5.0721,-5.0702,-5.0702,-5.0721,-5.0795,-5.0795,-5.0721,-5.0794,-5.081,-5.0773,-5.0773,-5.0827,-5.081,-5.0829,-5.0827,-5.0883,-5.0863,-5.0863,-5.0893,-5.0897,-5.0897,-5.0913,-5.0874,-5.0874,-5.0909,-5.0909,-5.0909,-5.089,-5.0906,-5.0906,-5.0906,-5.0906,-5.0906,-5.0906,-5.0906,-5.0906,-5.0906,-5.0906,-5.0906,-5.0906,-5.0906,-5.0906,-5.0906,-5.0906,-5.0906,-5.0906,-5.0906,-5.0906,-5.0925,-5.0964,-5.096,-5.0975,-5.1005,-5.1024,-5.1034,-5.1062,-5.1108,-5.1114,-5.1127,-5.1159,-5.1171,-5.1183,-5.1206,-5.1217,-5.124,-5.1256,-5.1284,-5.1232,-5.0859,-5.0869,-5.0644,-5.0516,-5.0273,-4.9793,-4.9182,-4.8512,-4.7419,-4.6777,-4.6562,-4.6641,-4.6641,-4.6289,-4.6289,-4.6289,-4.6289,-4.6289,-4.6289,-4.6289,-4.6289,-4.6289,-4.6289,-4.6289,-4.6289,-4.6269,-4.6289,-4.6269,-4.6211,-4.6133,-4.623,-4.6289,-4.6289,-4.5664,-5.0683,-5.0683,-5.0683,-5.0683,-5.0683,-5.0683,-5.0683,-5.0683,-5.0683,-5.0683,-5.0683,-5.0683,-5.0683,-5.0702,-5.0683,-5.0683,-5.0721,-5.0759,-5.0721,-5.0721,-5.0757,-5.0775,-5.0756,-5.0775,-5.0812,-5.0812,-5.0793,-5.0756,-5.0775,-5.0775,-5.0794,-5.0812,-5.0812,-5.0846,-5.0863,-5.0844,-5.0861,-5.0897,-5.0897,-5.0893,-5.089,-5.089,-5.0906,-5.0906,-5.0906,-5.089,-5.089,-5.0906,-5.0906,-5.0906,-5.0906,-5.0906,-5.0906,-5.0906,-5.0906,-5.0906,-5.0906,-5.0906,-5.0906,-5.0906,-5.0906,-5.0925,-5.0945,-5.0995,-5.101,-5.1024,-5.1053,-5.1075,-5.1102,-5.1127,-5.1159,-5.1159,-5.119,-5.119,-5.1202,-5.1202,-5.1202,-5.1238,-5.1258,-5.13,-5.1356,-5.1375,-5.1386,-5.1347,-5.1277,-5.09,-5.0388,-4.988,-4.9602,-4.8769,-4.7617,-4.7324,-4.7285,-4.7168,-4.6699,-4.6426,-4.6504,-4.6348,-4.6289,-4.6289,-4.6308,-4.6289,-4.6289,-4.6289,-4.6289,-4.6289,-4.6289,-4.6289,-4.6289,-4.6289,-4.6289,-4.6289,-4.6289,-4.6289,-4.5723,-5.0683,-5.0683,-5.0683,-5.0683,-5.0683,-5.0683,-5.0683,-5.0683,-5.0683,-5.0683,-5.0683,-5.0683,-5.0683,-5.0702,-5.0683,-5.0683,-5.0702,-5.074,-5.074,-5.0702,-5.0682,-5.072,-5.0758,-5.0758,-5.074,-5.0758,-5.0757,-5.072,-5.0701,-5.0701,-5.072,-5.0739,-5.0756,-5.0775,-5.0812,-5.0793,-5.0829,-5.0846,-5.0846,-5.0844,-5.0858,-5.0874,-5.0909,-5.0909,-5.0909,-5.0909,-5.0909,-5.0909,-5.0906,-5.0906,-5.0906,-5.0906,-5.0906,-5.0906,-5.0906,-5.0906,-5.0906,-5.0906,-5.0906,-5.0906,-5.0906,-5.0925,-5.0995,-5.1044,-5.1053,-5.1101,-5.1108,-5.1114,-5.1127,-5.1171,-5.119,-5.119,-5.119,-5.1202,-5.1202,-5.1202,-5.1214,-5.1228,-5.123,-5.1239,-5.13,-5.1336,-5.1366,-5.1394,-5.132,-5.1302,-5.0801,-5.043,-5.0176,-5.0078,-4.8926,-4.8203,-4.8281,-4.7812,-4.7226,-4.6933,-4.6797,-4.6621,-4.6504,-4.6367,-4.6406,-4.6328,-4.6289,-4.6289,-4.6289,-4.6289,-4.6289,-4.6289,-4.6289,-4.6289,-4.6289,-4.6289,-4.6289,-4.6289,-4.5937,-5.0683,-5.0683,-5.0683,-5.0683,-5.0683,-5.0683,-5.0683,-5.0683,-5.0683,-5.0683,-5.0683,-5.0683,-5.0683,-5.0683,-5.0683,-5.0683,-5.0721,-5.074,-5.074,-5.0702,-5.0683,-5.0702,-5.0702,-5.0702,-5.0702,-5.0702,-5.0702,-5.0702,-5.0702,-5.0682,-5.0682,-5.07,-5.07,-5.0701,-5.07,-5.0738,-5.0794,-5.0793,-5.0793,-5.0793,-5.0808,-5.0841,-5.0861,-5.0897,-5.0897,-5.0858,-5.0877,-5.0897,-5.0874,-5.0909,-5.0893,-5.0909,-5.0909,-5.0909,-5.0906,-5.0906,-5.0906,-5.0906,-5.0906,-5.0906,-5.0906,-5.0925,-5.1029,-5.1092,-5.1101,-5.1108,-5.1134,-5.1159,-5.1171,-5.1202,-5.1202,-5.1202,-5.1202,-5.1202,-5.1202,-5.1202,-5.1214,-5.1217,-5.121,-5.1211,-5.1276,-5.1323,-5.1352,-5.1396,-5.1384,-5.1386,-5.123,-5.0898,-5.0644,-5.0664,-5.0176,-4.9648,-4.9531,-4.8887,-4.7988,-4.7676,-4.7539,-4.7441,-4.7324,-4.6855,-4.6504,-4.6426,-4.6367,-4.6289,-4.6289,-4.6289,-4.6289,-4.6289,-4.6289,-4.6289,-4.6289,-4.6289,-4.6289,-4.6289,-4.6289,-5.0683,-5.0683,-5.0683,-5.0683,-5.0683,-5.0683,-5.0683,-5.0683,-5.0683,-5.0683,-5.0683,-5.0683,-5.0683,-5.0683,-5.0702,-5.0683,-5.0702,-5.074,-5.0721,-5.0702,-5.0683,-5.0702,-5.0683,-5.0683,-5.0683,-5.0702,-5.0683,-5.0702,-5.0702,-5.0683,-5.0683,-5.0701,-5.0683,-5.0683,-5.0701,-5.072,-5.0721,-5.072,-5.0739,-5.0757,-5.0793,-5.081,-5.081,-5.081,-5.0827,-5.0827,-5.081,-5.081,-5.0827,-5.0827,-5.088,-5.088,-5.0897,-5.0893,-5.0893,-5.0874,-5.0874,-5.089,-5.0893,-5.0909,-5.0909,-5.0909,-5.0995,-5.1029,-5.1053,-5.1095,-5.1102,-5.1127,-5.1139,-5.1202,-5.1202,-5.1202,-5.1202,-5.1202,-5.1202,-5.1202,-5.1214,-5.1208,-5.1201,-5.1249,-5.1315,-5.1339,-5.1381,-5.1396,-5.1402,-5.1391,-5.14,-5.1094,-5.1074,-5.1152,-5.123,-5.0937,-5.0605,-4.9902,-4.8984,-4.8691,-4.8535,-4.8398,-4.8125,-4.7637,-4.7129,-4.6582,-4.6465,-4.6348,-4.6308,-4.6289,-4.6289,-4.6289,-4.6289,-4.6289,-4.6289,-4.6289,-4.6289,-4.6289,-4.6289]}]]